<?xml version="1.0" encoding="UTF-8" standalone="no" ?>
<gpx xmlns="http://www.topografix.com/GPX/1/1" xmlns:xsi="http://www.w3.org/2001/XMLSchema-instance" xsi:schemaLocation="http://www.topografix.com/GPX/1/1 http://www.topografix.com/GPX/1/1/gpx.xsd" version="1.1" creator="VisuGPX - https://www.visugpx.com">
  <metadata>
    <name>Gilly, Soffaz,Longebonne</name>
    <desc><![CDATA[06.06.2020

comment ...]]></desc>
  </metadata>
  <trk>
    <name><![CDATA[Perriere, Soffaz,Longebonne]]></name>
    <trkseg>
      <trkpt lat="45.6628" lon="6.35197">
        <ele>302</ele>
        <time>2020-06-06T12:14:17Z</time>
      </trkpt>
      <trkpt lat="45.66281" lon="6.35198">
        <ele>302</ele>
        <time>2020-06-06T12:14:18Z</time>
      </trkpt>
      <trkpt lat="45.6629" lon="6.352">
        <ele>300</ele>
        <time>2020-06-06T12:14:46Z</time>
      </trkpt>
      <trkpt lat="45.66298" lon="6.352">
        <ele>300</ele>
        <time>2020-06-06T12:14:49Z</time>
      </trkpt>
      <trkpt lat="45.66303" lon="6.35198">
        <ele>301</ele>
        <time>2020-06-06T12:14:56Z</time>
      </trkpt>
      <trkpt lat="45.66308" lon="6.35199">
        <ele>301</ele>
        <time>2020-06-06T12:15:01Z</time>
      </trkpt>
      <trkpt lat="45.66316" lon="6.35202">
        <ele>301</ele>
        <time>2020-06-06T12:15:08Z</time>
      </trkpt>
      <trkpt lat="45.66323" lon="6.35205">
        <ele>301</ele>
        <time>2020-06-06T12:15:16Z</time>
      </trkpt>
      <trkpt lat="45.66333" lon="6.35207">
        <ele>301</ele>
        <time>2020-06-06T12:15:24Z</time>
      </trkpt>
      <trkpt lat="45.66337" lon="6.35209">
        <ele>301</ele>
        <time>2020-06-06T12:15:26Z</time>
      </trkpt>
      <trkpt lat="45.66344" lon="6.3521">
        <ele>301</ele>
        <time>2020-06-06T12:15:31Z</time>
      </trkpt>
      <trkpt lat="45.66361" lon="6.35215">
        <ele>299</ele>
        <time>2020-06-06T12:15:43Z</time>
      </trkpt>
      <trkpt lat="45.66364" lon="6.35218">
        <ele>297</ele>
        <time>2020-06-06T12:15:45Z</time>
      </trkpt>
      <trkpt lat="45.664" lon="6.35238">
        <ele>283</ele>
        <time>2020-06-06T12:16:05Z</time>
      </trkpt>
      <trkpt lat="45.66403" lon="6.35239">
        <ele>281</ele>
        <time>2020-06-06T12:16:08Z</time>
      </trkpt>
      <trkpt lat="45.66406" lon="6.35238">
        <ele>280</ele>
        <time>2020-06-06T12:16:11Z</time>
      </trkpt>
      <trkpt lat="45.6641" lon="6.35239">
        <ele>281</ele>
        <time>2020-06-06T12:16:13Z</time>
      </trkpt>
      <trkpt lat="45.66414" lon="6.35238">
        <ele>283</ele>
        <time>2020-06-06T12:16:20Z</time>
      </trkpt>
      <trkpt lat="45.66417" lon="6.35237">
        <ele>284</ele>
        <time>2020-06-06T12:16:23Z</time>
      </trkpt>
      <trkpt lat="45.66427" lon="6.35232">
        <ele>288</ele>
        <time>2020-06-06T12:16:35Z</time>
      </trkpt>
      <trkpt lat="45.66434" lon="6.35227">
        <ele>290</ele>
        <time>2020-06-06T12:16:41Z</time>
      </trkpt>
      <trkpt lat="45.66443" lon="6.35226">
        <ele>292</ele>
        <time>2020-06-06T12:16:49Z</time>
      </trkpt>
      <trkpt lat="45.66445" lon="6.35225">
        <ele>292</ele>
        <time>2020-06-06T12:16:51Z</time>
      </trkpt>
      <trkpt lat="45.66448" lon="6.35226">
        <ele>293</ele>
        <time>2020-06-06T12:16:54Z</time>
      </trkpt>
      <trkpt lat="45.66451" lon="6.35226">
        <ele>294</ele>
        <time>2020-06-06T12:16:58Z</time>
      </trkpt>
      <trkpt lat="45.66454" lon="6.35226">
        <ele>295</ele>
        <time>2020-06-06T12:17:01Z</time>
      </trkpt>
      <trkpt lat="45.6646" lon="6.35228">
        <ele>295</ele>
        <time>2020-06-06T12:17:05Z</time>
      </trkpt>
      <trkpt lat="45.66464" lon="6.35229">
        <ele>295</ele>
        <time>2020-06-06T12:17:08Z</time>
      </trkpt>
      <trkpt lat="45.66483" lon="6.35242">
        <ele>298</ele>
        <time>2020-06-06T12:17:25Z</time>
      </trkpt>
      <trkpt lat="45.66489" lon="6.35247">
        <ele>299</ele>
        <time>2020-06-06T12:17:31Z</time>
      </trkpt>
      <trkpt lat="45.66494" lon="6.3525">
        <ele>299</ele>
        <time>2020-06-06T12:17:34Z</time>
      </trkpt>
      <trkpt lat="45.66498" lon="6.35252">
        <ele>299</ele>
        <time>2020-06-06T12:17:36Z</time>
      </trkpt>
      <trkpt lat="45.66501" lon="6.35253">
        <ele>299</ele>
        <time>2020-06-06T12:17:38Z</time>
      </trkpt>
      <trkpt lat="45.66504" lon="6.35256">
        <ele>300</ele>
        <time>2020-06-06T12:17:41Z</time>
      </trkpt>
      <trkpt lat="45.66505" lon="6.35259">
        <ele>303</ele>
        <time>2020-06-06T12:18:13Z</time>
      </trkpt>
      <trkpt lat="45.66507" lon="6.35261">
        <ele>303</ele>
        <time>2020-06-06T12:18:15Z</time>
      </trkpt>
      <trkpt lat="45.6651" lon="6.35262">
        <ele>303</ele>
        <time>2020-06-06T12:18:18Z</time>
      </trkpt>
      <trkpt lat="45.66513" lon="6.35264">
        <ele>303</ele>
        <time>2020-06-06T12:18:21Z</time>
      </trkpt>
      <trkpt lat="45.66519" lon="6.35269">
        <ele>303</ele>
        <time>2020-06-06T12:18:27Z</time>
      </trkpt>
      <trkpt lat="45.66526" lon="6.35273">
        <ele>302</ele>
        <time>2020-06-06T12:18:34Z</time>
      </trkpt>
      <trkpt lat="45.6653" lon="6.35276">
        <ele>302</ele>
        <time>2020-06-06T12:18:37Z</time>
      </trkpt>
      <trkpt lat="45.66538" lon="6.35281">
        <ele>302</ele>
        <time>2020-06-06T12:18:45Z</time>
      </trkpt>
      <trkpt lat="45.66543" lon="6.35285">
        <ele>301</ele>
        <time>2020-06-06T12:18:51Z</time>
      </trkpt>
      <trkpt lat="45.66546" lon="6.35288">
        <ele>301</ele>
        <time>2020-06-06T12:18:55Z</time>
      </trkpt>
      <trkpt lat="45.66548" lon="6.35287">
        <ele>301</ele>
        <time>2020-06-06T12:19:04Z</time>
      </trkpt>
      <trkpt lat="45.6655" lon="6.35287">
        <ele>301</ele>
        <time>2020-06-06T12:19:11Z</time>
      </trkpt>
      <trkpt lat="45.66553" lon="6.35289">
        <ele>301</ele>
        <time>2020-06-06T12:19:14Z</time>
      </trkpt>
      <trkpt lat="45.66561" lon="6.35297">
        <ele>302</ele>
        <time>2020-06-06T12:19:23Z</time>
      </trkpt>
      <trkpt lat="45.6656" lon="6.35299">
        <ele>302</ele>
        <time>2020-06-06T12:19:43Z</time>
      </trkpt>
      <trkpt lat="45.6656" lon="6.35301">
        <ele>304</ele>
        <time>2020-06-06T12:19:50Z</time>
      </trkpt>
      <trkpt lat="45.66562" lon="6.35299">
        <ele>305</ele>
        <time>2020-06-06T12:19:54Z</time>
      </trkpt>
      <trkpt lat="45.66568" lon="6.35305">
        <ele>304</ele>
        <time>2020-06-06T12:20:10Z</time>
      </trkpt>
      <trkpt lat="45.66568" lon="6.35309">
        <ele>300</ele>
        <time>2020-06-06T12:20:17Z</time>
      </trkpt>
      <trkpt lat="45.66571" lon="6.3531">
        <ele>298</ele>
        <time>2020-06-06T12:20:21Z</time>
      </trkpt>
      <trkpt lat="45.66584" lon="6.35315">
        <ele>289</ele>
        <time>2020-06-06T12:20:34Z</time>
      </trkpt>
      <trkpt lat="45.66587" lon="6.35317">
        <ele>289</ele>
        <time>2020-06-06T12:20:38Z</time>
      </trkpt>
      <trkpt lat="45.66591" lon="6.35319">
        <ele>289</ele>
        <time>2020-06-06T12:20:41Z</time>
      </trkpt>
      <trkpt lat="45.66594" lon="6.35319">
        <ele>291</ele>
        <time>2020-06-06T12:20:45Z</time>
      </trkpt>
      <trkpt lat="45.6661" lon="6.35323">
        <ele>292</ele>
        <time>2020-06-06T12:20:58Z</time>
      </trkpt>
      <trkpt lat="45.66613" lon="6.35322">
        <ele>292</ele>
        <time>2020-06-06T12:21:02Z</time>
      </trkpt>
      <trkpt lat="45.66615" lon="6.35325">
        <ele>293</ele>
        <time>2020-06-06T12:21:05Z</time>
      </trkpt>
      <trkpt lat="45.66619" lon="6.35326">
        <ele>294</ele>
        <time>2020-06-06T12:21:08Z</time>
      </trkpt>
      <trkpt lat="45.66623" lon="6.35328">
        <ele>295</ele>
        <time>2020-06-06T12:21:10Z</time>
      </trkpt>
      <trkpt lat="45.66626" lon="6.35329">
        <ele>295</ele>
        <time>2020-06-06T12:21:12Z</time>
      </trkpt>
      <trkpt lat="45.66629" lon="6.35332">
        <ele>294</ele>
        <time>2020-06-06T12:21:14Z</time>
      </trkpt>
      <trkpt lat="45.66632" lon="6.35332">
        <ele>294</ele>
        <time>2020-06-06T12:21:17Z</time>
      </trkpt>
      <trkpt lat="45.66635" lon="6.35333">
        <ele>293</ele>
        <time>2020-06-06T12:21:19Z</time>
      </trkpt>
      <trkpt lat="45.66642" lon="6.35336">
        <ele>292</ele>
        <time>2020-06-06T12:21:24Z</time>
      </trkpt>
      <trkpt lat="45.66655" lon="6.3534">
        <ele>289</ele>
        <time>2020-06-06T12:21:33Z</time>
      </trkpt>
      <trkpt lat="45.6666" lon="6.35343">
        <ele>288</ele>
        <time>2020-06-06T12:21:37Z</time>
      </trkpt>
      <trkpt lat="45.66665" lon="6.35349">
        <ele>288</ele>
        <time>2020-06-06T12:21:41Z</time>
      </trkpt>
      <trkpt lat="45.6667" lon="6.35354">
        <ele>287</ele>
        <time>2020-06-06T12:21:46Z</time>
      </trkpt>
      <trkpt lat="45.66673" lon="6.35357">
        <ele>287</ele>
        <time>2020-06-06T12:21:50Z</time>
      </trkpt>
      <trkpt lat="45.66677" lon="6.35358">
        <ele>288</ele>
        <time>2020-06-06T12:21:53Z</time>
      </trkpt>
      <trkpt lat="45.66679" lon="6.35362">
        <ele>289</ele>
        <time>2020-06-06T12:21:56Z</time>
      </trkpt>
      <trkpt lat="45.66681" lon="6.35365">
        <ele>290</ele>
        <time>2020-06-06T12:21:59Z</time>
      </trkpt>
      <trkpt lat="45.66684" lon="6.35368">
        <ele>290</ele>
        <time>2020-06-06T12:22:01Z</time>
      </trkpt>
      <trkpt lat="45.66702" lon="6.35388">
        <ele>293</ele>
        <time>2020-06-06T12:22:16Z</time>
      </trkpt>
      <trkpt lat="45.66704" lon="6.35396">
        <ele>295</ele>
        <time>2020-06-06T12:22:24Z</time>
      </trkpt>
      <trkpt lat="45.66707" lon="6.35398">
        <ele>296</ele>
        <time>2020-06-06T12:22:27Z</time>
      </trkpt>
      <trkpt lat="45.6671" lon="6.35401">
        <ele>296</ele>
        <time>2020-06-06T12:22:30Z</time>
      </trkpt>
      <trkpt lat="45.66712" lon="6.35405">
        <ele>297</ele>
        <time>2020-06-06T12:22:32Z</time>
      </trkpt>
      <trkpt lat="45.66713" lon="6.35409">
        <ele>298</ele>
        <time>2020-06-06T12:22:35Z</time>
      </trkpt>
      <trkpt lat="45.66715" lon="6.3541">
        <ele>300</ele>
        <time>2020-06-06T12:22:39Z</time>
      </trkpt>
      <trkpt lat="45.66718" lon="6.35413">
        <ele>301</ele>
        <time>2020-06-06T12:22:42Z</time>
      </trkpt>
      <trkpt lat="45.6672" lon="6.35415">
        <ele>302</ele>
        <time>2020-06-06T12:22:45Z</time>
      </trkpt>
      <trkpt lat="45.6674" lon="6.35437">
        <ele>300</ele>
        <time>2020-06-06T12:23:04Z</time>
      </trkpt>
      <trkpt lat="45.66745" lon="6.35443">
        <ele>298</ele>
        <time>2020-06-06T12:23:10Z</time>
      </trkpt>
      <trkpt lat="45.66747" lon="6.35447">
        <ele>298</ele>
        <time>2020-06-06T12:23:12Z</time>
      </trkpt>
      <trkpt lat="45.6675" lon="6.35449">
        <ele>298</ele>
        <time>2020-06-06T12:23:15Z</time>
      </trkpt>
      <trkpt lat="45.66755" lon="6.35453">
        <ele>299</ele>
        <time>2020-06-06T12:23:19Z</time>
      </trkpt>
      <trkpt lat="45.66758" lon="6.35456">
        <ele>299</ele>
        <time>2020-06-06T12:23:21Z</time>
      </trkpt>
      <trkpt lat="45.6676" lon="6.35457">
        <ele>299</ele>
        <time>2020-06-06T12:23:23Z</time>
      </trkpt>
      <trkpt lat="45.66763" lon="6.35456">
        <ele>299</ele>
        <time>2020-06-06T12:23:25Z</time>
      </trkpt>
      <trkpt lat="45.66768" lon="6.35454">
        <ele>299</ele>
        <time>2020-06-06T12:23:29Z</time>
      </trkpt>
      <trkpt lat="45.66776" lon="6.35448">
        <ele>299</ele>
        <time>2020-06-06T12:23:35Z</time>
      </trkpt>
      <trkpt lat="45.66778" lon="6.35448">
        <ele>299</ele>
        <time>2020-06-06T12:23:37Z</time>
      </trkpt>
      <trkpt lat="45.66793" lon="6.35438">
        <ele>298</ele>
        <time>2020-06-06T12:23:50Z</time>
      </trkpt>
      <trkpt lat="45.66796" lon="6.35437">
        <ele>298</ele>
        <time>2020-06-06T12:23:52Z</time>
      </trkpt>
      <trkpt lat="45.668" lon="6.3543">
        <ele>299</ele>
        <time>2020-06-06T12:23:57Z</time>
      </trkpt>
      <trkpt lat="45.66802" lon="6.35427">
        <ele>300</ele>
        <time>2020-06-06T12:24:00Z</time>
      </trkpt>
      <trkpt lat="45.66808" lon="6.35425">
        <ele>302</ele>
        <time>2020-06-06T12:24:07Z</time>
      </trkpt>
      <trkpt lat="45.66811" lon="6.35423">
        <ele>303</ele>
        <time>2020-06-06T12:24:10Z</time>
      </trkpt>
      <trkpt lat="45.66818" lon="6.35415">
        <ele>305</ele>
        <time>2020-06-06T12:24:16Z</time>
      </trkpt>
      <trkpt lat="45.66821" lon="6.35413">
        <ele>306</ele>
        <time>2020-06-06T12:24:18Z</time>
      </trkpt>
      <trkpt lat="45.66821" lon="6.35409">
        <ele>307</ele>
        <time>2020-06-06T12:24:20Z</time>
      </trkpt>
      <trkpt lat="45.66824" lon="6.35406">
        <ele>310</ele>
        <time>2020-06-06T12:24:22Z</time>
      </trkpt>
      <trkpt lat="45.66827" lon="6.35405">
        <ele>311</ele>
        <time>2020-06-06T12:24:24Z</time>
      </trkpt>
      <trkpt lat="45.66829" lon="6.35404">
        <ele>312</ele>
        <time>2020-06-06T12:24:26Z</time>
      </trkpt>
      <trkpt lat="45.66831" lon="6.35401">
        <ele>312</ele>
        <time>2020-06-06T12:24:28Z</time>
      </trkpt>
      <trkpt lat="45.66838" lon="6.35393">
        <ele>313</ele>
        <time>2020-06-06T12:24:34Z</time>
      </trkpt>
      <trkpt lat="45.66842" lon="6.35389">
        <ele>313</ele>
        <time>2020-06-06T12:24:38Z</time>
      </trkpt>
      <trkpt lat="45.66845" lon="6.35387">
        <ele>314</ele>
        <time>2020-06-06T12:24:40Z</time>
      </trkpt>
      <trkpt lat="45.66849" lon="6.35384">
        <ele>314</ele>
        <time>2020-06-06T12:24:44Z</time>
      </trkpt>
      <trkpt lat="45.66851" lon="6.35382">
        <ele>314</ele>
        <time>2020-06-06T12:24:46Z</time>
      </trkpt>
      <trkpt lat="45.66862" lon="6.35375">
        <ele>315</ele>
        <time>2020-06-06T12:24:54Z</time>
      </trkpt>
      <trkpt lat="45.66863" lon="6.35373">
        <ele>315</ele>
        <time>2020-06-06T12:24:56Z</time>
      </trkpt>
      <trkpt lat="45.66874" lon="6.35362">
        <ele>315</ele>
        <time>2020-06-06T12:25:06Z</time>
      </trkpt>
      <trkpt lat="45.66876" lon="6.35356">
        <ele>316</ele>
        <time>2020-06-06T12:25:11Z</time>
      </trkpt>
      <trkpt lat="45.66877" lon="6.35354">
        <ele>316</ele>
        <time>2020-06-06T12:25:13Z</time>
      </trkpt>
      <trkpt lat="45.66878" lon="6.35352">
        <ele>316</ele>
        <time>2020-06-06T12:25:15Z</time>
      </trkpt>
      <trkpt lat="45.66881" lon="6.35349">
        <ele>316</ele>
        <time>2020-06-06T12:25:17Z</time>
      </trkpt>
      <trkpt lat="45.66883" lon="6.35347">
        <ele>316</ele>
        <time>2020-06-06T12:25:18Z</time>
      </trkpt>
      <trkpt lat="45.66885" lon="6.35346">
        <ele>316</ele>
        <time>2020-06-06T12:25:19Z</time>
      </trkpt>
      <trkpt lat="45.66886" lon="6.35343">
        <ele>316</ele>
        <time>2020-06-06T12:25:21Z</time>
      </trkpt>
      <trkpt lat="45.66887" lon="6.35341">
        <ele>316</ele>
        <time>2020-06-06T12:25:23Z</time>
      </trkpt>
      <trkpt lat="45.66896" lon="6.35318">
        <ele>317</ele>
        <time>2020-06-06T12:25:42Z</time>
      </trkpt>
      <trkpt lat="45.66898" lon="6.35314">
        <ele>318</ele>
        <time>2020-06-06T12:25:45Z</time>
      </trkpt>
      <trkpt lat="45.66902" lon="6.35309">
        <ele>320</ele>
        <time>2020-06-06T12:25:49Z</time>
      </trkpt>
      <trkpt lat="45.66902" lon="6.35306">
        <ele>321</ele>
        <time>2020-06-06T12:25:52Z</time>
      </trkpt>
      <trkpt lat="45.66903" lon="6.35303">
        <ele>321</ele>
        <time>2020-06-06T12:25:55Z</time>
      </trkpt>
      <trkpt lat="45.66905" lon="6.35302">
        <ele>322</ele>
        <time>2020-06-06T12:25:57Z</time>
      </trkpt>
      <trkpt lat="45.66906" lon="6.35298">
        <ele>323</ele>
        <time>2020-06-06T12:25:59Z</time>
      </trkpt>
      <trkpt lat="45.66908" lon="6.35293">
        <ele>324</ele>
        <time>2020-06-06T12:26:01Z</time>
      </trkpt>
      <trkpt lat="45.66909" lon="6.3529">
        <ele>324</ele>
        <time>2020-06-06T12:26:02Z</time>
      </trkpt>
      <trkpt lat="45.66912" lon="6.35286">
        <ele>323</ele>
        <time>2020-06-06T12:26:04Z</time>
      </trkpt>
      <trkpt lat="45.66912" lon="6.35283">
        <ele>323</ele>
        <time>2020-06-06T12:26:05Z</time>
      </trkpt>
      <trkpt lat="45.66918" lon="6.35279">
        <ele>321</ele>
        <time>2020-06-06T12:26:09Z</time>
      </trkpt>
      <trkpt lat="45.66922" lon="6.35277">
        <ele>321</ele>
        <time>2020-06-06T12:26:11Z</time>
      </trkpt>
      <trkpt lat="45.66923" lon="6.35274">
        <ele>320</ele>
        <time>2020-06-06T12:26:13Z</time>
      </trkpt>
      <trkpt lat="45.66933" lon="6.35268">
        <ele>319</ele>
        <time>2020-06-06T12:26:21Z</time>
      </trkpt>
      <trkpt lat="45.66935" lon="6.35268">
        <ele>319</ele>
        <time>2020-06-06T12:26:22Z</time>
      </trkpt>
      <trkpt lat="45.66937" lon="6.35269">
        <ele>318</ele>
        <time>2020-06-06T12:26:23Z</time>
      </trkpt>
      <trkpt lat="45.66945" lon="6.35268">
        <ele>317</ele>
        <time>2020-06-06T12:26:29Z</time>
      </trkpt>
      <trkpt lat="45.66949" lon="6.35267">
        <ele>318</ele>
        <time>2020-06-06T12:26:33Z</time>
      </trkpt>
      <trkpt lat="45.66952" lon="6.35267">
        <ele>318</ele>
        <time>2020-06-06T12:26:35Z</time>
      </trkpt>
      <trkpt lat="45.66954" lon="6.35267">
        <ele>318</ele>
        <time>2020-06-06T12:26:37Z</time>
      </trkpt>
      <trkpt lat="45.66956" lon="6.35266">
        <ele>318</ele>
        <time>2020-06-06T12:26:39Z</time>
      </trkpt>
      <trkpt lat="45.66958" lon="6.35267">
        <ele>319</ele>
        <time>2020-06-06T12:26:41Z</time>
      </trkpt>
      <trkpt lat="45.66964" lon="6.35265">
        <ele>319</ele>
        <time>2020-06-06T12:26:45Z</time>
      </trkpt>
      <trkpt lat="45.66967" lon="6.35264">
        <ele>318</ele>
        <time>2020-06-06T12:26:47Z</time>
      </trkpt>
      <trkpt lat="45.66968" lon="6.35266">
        <ele>318</ele>
        <time>2020-06-06T12:26:48Z</time>
      </trkpt>
      <trkpt lat="45.66979" lon="6.35266">
        <ele>318</ele>
        <time>2020-06-06T12:26:56Z</time>
      </trkpt>
      <trkpt lat="45.6701" lon="6.35251">
        <ele>322</ele>
        <time>2020-06-06T12:27:22Z</time>
      </trkpt>
      <trkpt lat="45.67014" lon="6.3525">
        <ele>321</ele>
        <time>2020-06-06T12:27:25Z</time>
      </trkpt>
      <trkpt lat="45.67017" lon="6.35249">
        <ele>321</ele>
        <time>2020-06-06T12:27:27Z</time>
      </trkpt>
      <trkpt lat="45.67024" lon="6.35249">
        <ele>319</ele>
        <time>2020-06-06T12:27:33Z</time>
      </trkpt>
      <trkpt lat="45.67043" lon="6.35238">
        <ele>317</ele>
        <time>2020-06-06T12:27:48Z</time>
      </trkpt>
      <trkpt lat="45.67047" lon="6.35237">
        <ele>317</ele>
        <time>2020-06-06T12:27:50Z</time>
      </trkpt>
      <trkpt lat="45.67049" lon="6.35237">
        <ele>317</ele>
        <time>2020-06-06T12:27:51Z</time>
      </trkpt>
      <trkpt lat="45.67051" lon="6.35237">
        <ele>317</ele>
        <time>2020-06-06T12:27:53Z</time>
      </trkpt>
      <trkpt lat="45.67054" lon="6.35236">
        <ele>317</ele>
        <time>2020-06-06T12:27:55Z</time>
      </trkpt>
      <trkpt lat="45.67056" lon="6.35237">
        <ele>317</ele>
        <time>2020-06-06T12:27:57Z</time>
      </trkpt>
      <trkpt lat="45.6706" lon="6.35235">
        <ele>318</ele>
        <time>2020-06-06T12:28:01Z</time>
      </trkpt>
      <trkpt lat="45.67062" lon="6.35234">
        <ele>320</ele>
        <time>2020-06-06T12:28:03Z</time>
      </trkpt>
      <trkpt lat="45.67065" lon="6.35233">
        <ele>321</ele>
        <time>2020-06-06T12:28:05Z</time>
      </trkpt>
      <trkpt lat="45.67067" lon="6.35233">
        <ele>322</ele>
        <time>2020-06-06T12:28:08Z</time>
      </trkpt>
      <trkpt lat="45.67079" lon="6.35227">
        <ele>324</ele>
        <time>2020-06-06T12:28:20Z</time>
      </trkpt>
      <trkpt lat="45.67085" lon="6.3523">
        <ele>323</ele>
        <time>2020-06-06T12:28:24Z</time>
      </trkpt>
      <trkpt lat="45.67087" lon="6.35228">
        <ele>323</ele>
        <time>2020-06-06T12:28:26Z</time>
      </trkpt>
      <trkpt lat="45.6709" lon="6.35227">
        <ele>323</ele>
        <time>2020-06-06T12:28:28Z</time>
      </trkpt>
      <trkpt lat="45.67102" lon="6.35224">
        <ele>325</ele>
        <time>2020-06-06T12:28:38Z</time>
      </trkpt>
      <trkpt lat="45.67105" lon="6.35226">
        <ele>325</ele>
        <time>2020-06-06T12:28:40Z</time>
      </trkpt>
      <trkpt lat="45.67107" lon="6.35227">
        <ele>326</ele>
        <time>2020-06-06T12:28:42Z</time>
      </trkpt>
      <trkpt lat="45.67111" lon="6.35229">
        <ele>327</ele>
        <time>2020-06-06T12:28:46Z</time>
      </trkpt>
      <trkpt lat="45.67114" lon="6.35232">
        <ele>329</ele>
        <time>2020-06-06T12:28:51Z</time>
      </trkpt>
      <trkpt lat="45.67117" lon="6.35233">
        <ele>329</ele>
        <time>2020-06-06T12:28:54Z</time>
      </trkpt>
      <trkpt lat="45.67133" lon="6.35251">
        <ele>331</ele>
        <time>2020-06-06T12:29:10Z</time>
      </trkpt>
      <trkpt lat="45.67147" lon="6.35257">
        <ele>332</ele>
        <time>2020-06-06T12:29:22Z</time>
      </trkpt>
      <trkpt lat="45.67149" lon="6.35258">
        <ele>332</ele>
        <time>2020-06-06T12:29:24Z</time>
      </trkpt>
      <trkpt lat="45.67153" lon="6.3526">
        <ele>332</ele>
        <time>2020-06-06T12:29:27Z</time>
      </trkpt>
      <trkpt lat="45.67156" lon="6.35261">
        <ele>332</ele>
        <time>2020-06-06T12:29:29Z</time>
      </trkpt>
      <trkpt lat="45.67168" lon="6.35267">
        <ele>332</ele>
        <time>2020-06-06T12:29:37Z</time>
      </trkpt>
      <trkpt lat="45.67174" lon="6.35268">
        <ele>331</ele>
        <time>2020-06-06T12:29:41Z</time>
      </trkpt>
      <trkpt lat="45.67176" lon="6.35269">
        <ele>331</ele>
        <time>2020-06-06T12:29:43Z</time>
      </trkpt>
      <trkpt lat="45.67178" lon="6.35269">
        <ele>332</ele>
        <time>2020-06-06T12:29:45Z</time>
      </trkpt>
      <trkpt lat="45.67187" lon="6.35272">
        <ele>333</ele>
        <time>2020-06-06T12:29:52Z</time>
      </trkpt>
      <trkpt lat="45.67196" lon="6.35271">
        <ele>334</ele>
        <time>2020-06-06T12:29:59Z</time>
      </trkpt>
      <trkpt lat="45.67199" lon="6.35271">
        <ele>335</ele>
        <time>2020-06-06T12:30:02Z</time>
      </trkpt>
      <trkpt lat="45.67201" lon="6.3527">
        <ele>335</ele>
        <time>2020-06-06T12:30:04Z</time>
      </trkpt>
      <trkpt lat="45.67204" lon="6.35271">
        <ele>335</ele>
        <time>2020-06-06T12:30:07Z</time>
      </trkpt>
      <trkpt lat="45.67207" lon="6.35272">
        <ele>335</ele>
        <time>2020-06-06T12:30:09Z</time>
      </trkpt>
      <trkpt lat="45.67217" lon="6.3527">
        <ele>336</ele>
        <time>2020-06-06T12:30:18Z</time>
      </trkpt>
      <trkpt lat="45.67223" lon="6.35271">
        <ele>336</ele>
        <time>2020-06-06T12:30:22Z</time>
      </trkpt>
      <trkpt lat="45.67231" lon="6.35273">
        <ele>336</ele>
        <time>2020-06-06T12:30:27Z</time>
      </trkpt>
      <trkpt lat="45.67233" lon="6.35273">
        <ele>336</ele>
        <time>2020-06-06T12:30:28Z</time>
      </trkpt>
      <trkpt lat="45.67241" lon="6.35274">
        <ele>335</ele>
        <time>2020-06-06T12:30:32Z</time>
      </trkpt>
      <trkpt lat="45.67243" lon="6.35275">
        <ele>334</ele>
        <time>2020-06-06T12:30:33Z</time>
      </trkpt>
      <trkpt lat="45.67257" lon="6.35273">
        <ele>332</ele>
        <time>2020-06-06T12:30:46Z</time>
      </trkpt>
      <trkpt lat="45.6726" lon="6.35272">
        <ele>332</ele>
        <time>2020-06-06T12:30:48Z</time>
      </trkpt>
      <trkpt lat="45.67263" lon="6.35272">
        <ele>333</ele>
        <time>2020-06-06T12:30:50Z</time>
      </trkpt>
      <trkpt lat="45.67267" lon="6.3527">
        <ele>334</ele>
        <time>2020-06-06T12:30:56Z</time>
      </trkpt>
      <trkpt lat="45.67272" lon="6.3527">
        <ele>334</ele>
        <time>2020-06-06T12:31:00Z</time>
      </trkpt>
      <trkpt lat="45.67275" lon="6.35269">
        <ele>333</ele>
        <time>2020-06-06T12:31:02Z</time>
      </trkpt>
      <trkpt lat="45.67277" lon="6.35271">
        <ele>333</ele>
        <time>2020-06-06T12:31:04Z</time>
      </trkpt>
      <trkpt lat="45.67279" lon="6.3527">
        <ele>333</ele>
        <time>2020-06-06T12:31:06Z</time>
      </trkpt>
      <trkpt lat="45.67282" lon="6.3527">
        <ele>333</ele>
        <time>2020-06-06T12:31:08Z</time>
      </trkpt>
      <trkpt lat="45.67287" lon="6.35269">
        <ele>333</ele>
        <time>2020-06-06T12:31:13Z</time>
      </trkpt>
      <trkpt lat="45.6729" lon="6.35268">
        <ele>333</ele>
        <time>2020-06-06T12:31:17Z</time>
      </trkpt>
      <trkpt lat="45.67293" lon="6.35268">
        <ele>333</ele>
        <time>2020-06-06T12:31:21Z</time>
      </trkpt>
      <trkpt lat="45.67296" lon="6.35269">
        <ele>333</ele>
        <time>2020-06-06T12:31:23Z</time>
      </trkpt>
      <trkpt lat="45.673" lon="6.3527">
        <ele>333</ele>
        <time>2020-06-06T12:31:26Z</time>
      </trkpt>
      <trkpt lat="45.67303" lon="6.35272">
        <ele>332</ele>
        <time>2020-06-06T12:31:28Z</time>
      </trkpt>
      <trkpt lat="45.67306" lon="6.35274">
        <ele>332</ele>
        <time>2020-06-06T12:31:30Z</time>
      </trkpt>
      <trkpt lat="45.6731" lon="6.35273">
        <ele>332</ele>
        <time>2020-06-06T12:31:32Z</time>
      </trkpt>
      <trkpt lat="45.67312" lon="6.35273">
        <ele>332</ele>
        <time>2020-06-06T12:31:35Z</time>
      </trkpt>
      <trkpt lat="45.67315" lon="6.35273">
        <ele>333</ele>
        <time>2020-06-06T12:31:37Z</time>
      </trkpt>
      <trkpt lat="45.67328" lon="6.35271">
        <ele>333</ele>
        <time>2020-06-06T12:31:48Z</time>
      </trkpt>
      <trkpt lat="45.67342" lon="6.35274">
        <ele>335</ele>
        <time>2020-06-06T12:32:00Z</time>
      </trkpt>
      <trkpt lat="45.67344" lon="6.35272">
        <ele>335</ele>
        <time>2020-06-06T12:32:04Z</time>
      </trkpt>
      <trkpt lat="45.67345" lon="6.3527">
        <ele>336</ele>
        <time>2020-06-06T12:32:07Z</time>
      </trkpt>
      <trkpt lat="45.67347" lon="6.35271">
        <ele>336</ele>
        <time>2020-06-06T12:32:08Z</time>
      </trkpt>
      <trkpt lat="45.67354" lon="6.35271">
        <ele>337</ele>
        <time>2020-06-06T12:32:12Z</time>
      </trkpt>
      <trkpt lat="45.67361" lon="6.35275">
        <ele>336</ele>
        <time>2020-06-06T12:32:17Z</time>
      </trkpt>
      <trkpt lat="45.67364" lon="6.35275">
        <ele>336</ele>
        <time>2020-06-06T12:32:20Z</time>
      </trkpt>
      <trkpt lat="45.67366" lon="6.35277">
        <ele>335</ele>
        <time>2020-06-06T12:32:22Z</time>
      </trkpt>
      <trkpt lat="45.67376" lon="6.35277">
        <ele>334</ele>
        <time>2020-06-06T12:32:30Z</time>
      </trkpt>
      <trkpt lat="45.67387" lon="6.3528">
        <ele>332</ele>
        <time>2020-06-06T12:32:41Z</time>
      </trkpt>
      <trkpt lat="45.67389" lon="6.35281">
        <ele>333</ele>
        <time>2020-06-06T12:32:47Z</time>
      </trkpt>
      <trkpt lat="45.67394" lon="6.35282">
        <ele>333</ele>
        <time>2020-06-06T12:32:50Z</time>
      </trkpt>
      <trkpt lat="45.67396" lon="6.35283">
        <ele>333</ele>
        <time>2020-06-06T12:32:52Z</time>
      </trkpt>
      <trkpt lat="45.67405" lon="6.35289">
        <ele>334</ele>
        <time>2020-06-06T12:32:57Z</time>
      </trkpt>
      <trkpt lat="45.67412" lon="6.35293">
        <ele>335</ele>
        <time>2020-06-06T12:33:01Z</time>
      </trkpt>
      <trkpt lat="45.67414" lon="6.35294">
        <ele>335</ele>
        <time>2020-06-06T12:33:03Z</time>
      </trkpt>
      <trkpt lat="45.67417" lon="6.35295">
        <ele>336</ele>
        <time>2020-06-06T12:33:05Z</time>
      </trkpt>
      <trkpt lat="45.6742" lon="6.35297">
        <ele>336</ele>
        <time>2020-06-06T12:33:07Z</time>
      </trkpt>
      <trkpt lat="45.67426" lon="6.35299">
        <ele>337</ele>
        <time>2020-06-06T12:33:10Z</time>
      </trkpt>
      <trkpt lat="45.6743" lon="6.353">
        <ele>338</ele>
        <time>2020-06-06T12:33:13Z</time>
      </trkpt>
      <trkpt lat="45.67448" lon="6.35311">
        <ele>348</ele>
        <time>2020-06-06T12:33:29Z</time>
      </trkpt>
      <trkpt lat="45.67451" lon="6.35313">
        <ele>349</ele>
        <time>2020-06-06T12:33:31Z</time>
      </trkpt>
      <trkpt lat="45.67453" lon="6.35314">
        <ele>349</ele>
        <time>2020-06-06T12:33:32Z</time>
      </trkpt>
      <trkpt lat="45.67455" lon="6.35315">
        <ele>349</ele>
        <time>2020-06-06T12:33:33Z</time>
      </trkpt>
      <trkpt lat="45.67457" lon="6.35318">
        <ele>350</ele>
        <time>2020-06-06T12:33:35Z</time>
      </trkpt>
      <trkpt lat="45.67459" lon="6.35319">
        <ele>350</ele>
        <time>2020-06-06T12:33:36Z</time>
      </trkpt>
      <trkpt lat="45.67464" lon="6.35322">
        <ele>351</ele>
        <time>2020-06-06T12:33:40Z</time>
      </trkpt>
      <trkpt lat="45.6747" lon="6.35326">
        <ele>351</ele>
        <time>2020-06-06T12:33:46Z</time>
      </trkpt>
      <trkpt lat="45.67471" lon="6.35328">
        <ele>352</ele>
        <time>2020-06-06T12:33:48Z</time>
      </trkpt>
      <trkpt lat="45.67477" lon="6.3533">
        <ele>354</ele>
        <time>2020-06-06T12:33:53Z</time>
      </trkpt>
      <trkpt lat="45.67479" lon="6.35331">
        <ele>354</ele>
        <time>2020-06-06T12:33:55Z</time>
      </trkpt>
      <trkpt lat="45.67481" lon="6.35332">
        <ele>354</ele>
        <time>2020-06-06T12:33:58Z</time>
      </trkpt>
      <trkpt lat="45.67483" lon="6.35332">
        <ele>355</ele>
        <time>2020-06-06T12:34:00Z</time>
      </trkpt>
      <trkpt lat="45.67505" lon="6.35353">
        <ele>362</ele>
        <time>2020-06-06T12:34:22Z</time>
      </trkpt>
      <trkpt lat="45.67516" lon="6.35359">
        <ele>363</ele>
        <time>2020-06-06T12:34:33Z</time>
      </trkpt>
      <trkpt lat="45.67525" lon="6.35367">
        <ele>362</ele>
        <time>2020-06-06T12:34:40Z</time>
      </trkpt>
      <trkpt lat="45.6753" lon="6.35371">
        <ele>360</ele>
        <time>2020-06-06T12:34:44Z</time>
      </trkpt>
      <trkpt lat="45.67542" lon="6.35383">
        <ele>358</ele>
        <time>2020-06-06T12:34:53Z</time>
      </trkpt>
      <trkpt lat="45.67543" lon="6.35384">
        <ele>357</ele>
        <time>2020-06-06T12:34:55Z</time>
      </trkpt>
      <trkpt lat="45.67554" lon="6.35392">
        <ele>355</ele>
        <time>2020-06-06T12:35:05Z</time>
      </trkpt>
      <trkpt lat="45.67557" lon="6.35394">
        <ele>354</ele>
        <time>2020-06-06T12:35:07Z</time>
      </trkpt>
      <trkpt lat="45.67567" lon="6.35403">
        <ele>351</ele>
        <time>2020-06-06T12:35:13Z</time>
      </trkpt>
      <trkpt lat="45.6757" lon="6.35407">
        <ele>351</ele>
        <time>2020-06-06T12:35:16Z</time>
      </trkpt>
      <trkpt lat="45.67579" lon="6.35411">
        <ele>350</ele>
        <time>2020-06-06T12:35:26Z</time>
      </trkpt>
      <trkpt lat="45.67601" lon="6.35432">
        <ele>352</ele>
        <time>2020-06-06T12:35:46Z</time>
      </trkpt>
      <trkpt lat="45.67603" lon="6.35433">
        <ele>352</ele>
        <time>2020-06-06T12:35:49Z</time>
      </trkpt>
      <trkpt lat="45.67607" lon="6.35438">
        <ele>352</ele>
        <time>2020-06-06T12:35:54Z</time>
      </trkpt>
      <trkpt lat="45.67616" lon="6.35445">
        <ele>351</ele>
        <time>2020-06-06T12:36:02Z</time>
      </trkpt>
      <trkpt lat="45.67638" lon="6.35474">
        <ele>352</ele>
        <time>2020-06-06T12:36:23Z</time>
      </trkpt>
      <trkpt lat="45.67647" lon="6.35481">
        <ele>353</ele>
        <time>2020-06-06T12:36:29Z</time>
      </trkpt>
      <trkpt lat="45.67651" lon="6.35486">
        <ele>353</ele>
        <time>2020-06-06T12:36:35Z</time>
      </trkpt>
      <trkpt lat="45.67653" lon="6.35488">
        <ele>353</ele>
        <time>2020-06-06T12:36:38Z</time>
      </trkpt>
      <trkpt lat="45.67657" lon="6.35494">
        <ele>353</ele>
        <time>2020-06-06T12:36:42Z</time>
      </trkpt>
      <trkpt lat="45.67665" lon="6.35504">
        <ele>352</ele>
        <time>2020-06-06T12:36:51Z</time>
      </trkpt>
      <trkpt lat="45.67671" lon="6.35512">
        <ele>352</ele>
        <time>2020-06-06T12:36:57Z</time>
      </trkpt>
      <trkpt lat="45.67673" lon="6.35514">
        <ele>353</ele>
        <time>2020-06-06T12:36:59Z</time>
      </trkpt>
      <trkpt lat="45.67676" lon="6.35519">
        <ele>353</ele>
        <time>2020-06-06T12:37:03Z</time>
      </trkpt>
      <trkpt lat="45.67678" lon="6.35523">
        <ele>353</ele>
        <time>2020-06-06T12:37:05Z</time>
      </trkpt>
      <trkpt lat="45.67685" lon="6.35528">
        <ele>353</ele>
        <time>2020-06-06T12:37:12Z</time>
      </trkpt>
      <trkpt lat="45.67687" lon="6.3553">
        <ele>353</ele>
        <time>2020-06-06T12:37:14Z</time>
      </trkpt>
      <trkpt lat="45.6769" lon="6.35532">
        <ele>353</ele>
        <time>2020-06-06T12:37:17Z</time>
      </trkpt>
      <trkpt lat="45.67693" lon="6.35537">
        <ele>354</ele>
        <time>2020-06-06T12:37:21Z</time>
      </trkpt>
      <trkpt lat="45.677" lon="6.35541">
        <ele>355</ele>
        <time>2020-06-06T12:37:31Z</time>
      </trkpt>
      <trkpt lat="45.67706" lon="6.35545">
        <ele>358</ele>
        <time>2020-06-06T12:37:36Z</time>
      </trkpt>
      <trkpt lat="45.67712" lon="6.35554">
        <ele>362</ele>
        <time>2020-06-06T12:37:48Z</time>
      </trkpt>
      <trkpt lat="45.67714" lon="6.35557">
        <ele>363</ele>
        <time>2020-06-06T12:37:50Z</time>
      </trkpt>
      <trkpt lat="45.67717" lon="6.35562">
        <ele>365</ele>
        <time>2020-06-06T12:37:56Z</time>
      </trkpt>
      <trkpt lat="45.67719" lon="6.35565">
        <ele>365</ele>
        <time>2020-06-06T12:37:57Z</time>
      </trkpt>
      <trkpt lat="45.6772" lon="6.35567">
        <ele>364</ele>
        <time>2020-06-06T12:37:58Z</time>
      </trkpt>
      <trkpt lat="45.67724" lon="6.35577">
        <ele>364</ele>
        <time>2020-06-06T12:38:03Z</time>
      </trkpt>
      <trkpt lat="45.67727" lon="6.35581">
        <ele>364</ele>
        <time>2020-06-06T12:38:05Z</time>
      </trkpt>
      <trkpt lat="45.67729" lon="6.35583">
        <ele>364</ele>
        <time>2020-06-06T12:38:06Z</time>
      </trkpt>
      <trkpt lat="45.67731" lon="6.35587">
        <ele>364</ele>
        <time>2020-06-06T12:38:08Z</time>
      </trkpt>
      <trkpt lat="45.67762" lon="6.35624">
        <ele>364</ele>
        <time>2020-06-06T12:38:35Z</time>
      </trkpt>
      <trkpt lat="45.67763" lon="6.35626">
        <ele>364</ele>
        <time>2020-06-06T12:38:36Z</time>
      </trkpt>
      <trkpt lat="45.67767" lon="6.3563">
        <ele>363</ele>
        <time>2020-06-06T12:38:39Z</time>
      </trkpt>
      <trkpt lat="45.67776" lon="6.35639">
        <ele>361</ele>
        <time>2020-06-06T12:38:46Z</time>
      </trkpt>
      <trkpt lat="45.6778" lon="6.35644">
        <ele>361</ele>
        <time>2020-06-06T12:38:50Z</time>
      </trkpt>
      <trkpt lat="45.67783" lon="6.35648">
        <ele>360</ele>
        <time>2020-06-06T12:38:54Z</time>
      </trkpt>
      <trkpt lat="45.67788" lon="6.35653">
        <ele>358</ele>
        <time>2020-06-06T12:38:59Z</time>
      </trkpt>
      <trkpt lat="45.678" lon="6.35667">
        <ele>357</ele>
        <time>2020-06-06T12:39:15Z</time>
      </trkpt>
      <trkpt lat="45.67803" lon="6.3567">
        <ele>357</ele>
        <time>2020-06-06T12:39:18Z</time>
      </trkpt>
      <trkpt lat="45.67805" lon="6.35673">
        <ele>357</ele>
        <time>2020-06-06T12:39:22Z</time>
      </trkpt>
      <trkpt lat="45.67814" lon="6.35685">
        <ele>356</ele>
        <time>2020-06-06T12:39:29Z</time>
      </trkpt>
      <trkpt lat="45.67816" lon="6.35688">
        <ele>355</ele>
        <time>2020-06-06T12:39:31Z</time>
      </trkpt>
      <trkpt lat="45.67818" lon="6.35691">
        <ele>355</ele>
        <time>2020-06-06T12:39:34Z</time>
      </trkpt>
      <trkpt lat="45.67821" lon="6.35698">
        <ele>355</ele>
        <time>2020-06-06T12:39:40Z</time>
      </trkpt>
      <trkpt lat="45.67822" lon="6.35701">
        <ele>356</ele>
        <time>2020-06-06T12:39:41Z</time>
      </trkpt>
      <trkpt lat="45.67824" lon="6.35704">
        <ele>357</ele>
        <time>2020-06-06T12:39:43Z</time>
      </trkpt>
      <trkpt lat="45.67827" lon="6.35707">
        <ele>357</ele>
        <time>2020-06-06T12:39:47Z</time>
      </trkpt>
      <trkpt lat="45.67829" lon="6.35711">
        <ele>358</ele>
        <time>2020-06-06T12:39:50Z</time>
      </trkpt>
      <trkpt lat="45.67832" lon="6.35713">
        <ele>359</ele>
        <time>2020-06-06T12:39:56Z</time>
      </trkpt>
      <trkpt lat="45.67835" lon="6.35715">
        <ele>360</ele>
        <time>2020-06-06T12:39:59Z</time>
      </trkpt>
      <trkpt lat="45.67843" lon="6.35729">
        <ele>362</ele>
        <time>2020-06-06T12:40:06Z</time>
      </trkpt>
      <trkpt lat="45.67849" lon="6.35736">
        <ele>364</ele>
        <time>2020-06-06T12:40:14Z</time>
      </trkpt>
      <trkpt lat="45.67852" lon="6.35737">
        <ele>365</ele>
        <time>2020-06-06T12:40:16Z</time>
      </trkpt>
      <trkpt lat="45.67863" lon="6.35759">
        <ele>369</ele>
        <time>2020-06-06T12:40:29Z</time>
      </trkpt>
      <trkpt lat="45.67865" lon="6.35762">
        <ele>370</ele>
        <time>2020-06-06T12:40:31Z</time>
      </trkpt>
      <trkpt lat="45.67873" lon="6.35774">
        <ele>371</ele>
        <time>2020-06-06T12:40:39Z</time>
      </trkpt>
      <trkpt lat="45.67879" lon="6.3578">
        <ele>372</ele>
        <time>2020-06-06T12:40:45Z</time>
      </trkpt>
      <trkpt lat="45.67882" lon="6.35784">
        <ele>372</ele>
        <time>2020-06-06T12:40:48Z</time>
      </trkpt>
      <trkpt lat="45.67884" lon="6.35789">
        <ele>371</ele>
        <time>2020-06-06T12:40:50Z</time>
      </trkpt>
      <trkpt lat="45.67893" lon="6.35803">
        <ele>370</ele>
        <time>2020-06-06T12:40:59Z</time>
      </trkpt>
      <trkpt lat="45.67895" lon="6.35803">
        <ele>370</ele>
        <time>2020-06-06T12:41:01Z</time>
      </trkpt>
      <trkpt lat="45.67897" lon="6.35802">
        <ele>370</ele>
        <time>2020-06-06T12:41:02Z</time>
      </trkpt>
      <trkpt lat="45.67899" lon="6.358">
        <ele>370</ele>
        <time>2020-06-06T12:41:04Z</time>
      </trkpt>
      <trkpt lat="45.679" lon="6.35798">
        <ele>370</ele>
        <time>2020-06-06T12:41:06Z</time>
      </trkpt>
      <trkpt lat="45.67902" lon="6.35796">
        <ele>370</ele>
        <time>2020-06-06T12:41:08Z</time>
      </trkpt>
      <trkpt lat="45.67902" lon="6.35793">
        <ele>371</ele>
        <time>2020-06-06T12:41:10Z</time>
      </trkpt>
      <trkpt lat="45.67901" lon="6.35791">
        <ele>371</ele>
        <time>2020-06-06T12:41:12Z</time>
      </trkpt>
      <trkpt lat="45.679" lon="6.35789">
        <ele>372</ele>
        <time>2020-06-06T12:41:15Z</time>
      </trkpt>
      <trkpt lat="45.679" lon="6.35786">
        <ele>373</ele>
        <time>2020-06-06T12:41:17Z</time>
      </trkpt>
      <trkpt lat="45.67899" lon="6.35782">
        <ele>375</ele>
        <time>2020-06-06T12:41:19Z</time>
      </trkpt>
      <trkpt lat="45.67899" lon="6.35779">
        <ele>376</ele>
        <time>2020-06-06T12:41:21Z</time>
      </trkpt>
      <trkpt lat="45.67898" lon="6.35775">
        <ele>377</ele>
        <time>2020-06-06T12:41:23Z</time>
      </trkpt>
      <trkpt lat="45.67897" lon="6.35773">
        <ele>378</ele>
        <time>2020-06-06T12:41:24Z</time>
      </trkpt>
      <trkpt lat="45.67897" lon="6.35769">
        <ele>378</ele>
        <time>2020-06-06T12:41:26Z</time>
      </trkpt>
      <trkpt lat="45.6789" lon="6.35748">
        <ele>381</ele>
        <time>2020-06-06T12:41:38Z</time>
      </trkpt>
      <trkpt lat="45.67888" lon="6.35742">
        <ele>381</ele>
        <time>2020-06-06T12:41:42Z</time>
      </trkpt>
      <trkpt lat="45.67887" lon="6.35739">
        <ele>381</ele>
        <time>2020-06-06T12:41:44Z</time>
      </trkpt>
      <trkpt lat="45.67886" lon="6.3573">
        <ele>380</ele>
        <time>2020-06-06T12:41:48Z</time>
      </trkpt>
      <trkpt lat="45.67885" lon="6.35728">
        <ele>380</ele>
        <time>2020-06-06T12:41:49Z</time>
      </trkpt>
      <trkpt lat="45.67884" lon="6.35724">
        <ele>379</ele>
        <time>2020-06-06T12:41:51Z</time>
      </trkpt>
      <trkpt lat="45.67884" lon="6.35721">
        <ele>379</ele>
        <time>2020-06-06T12:41:53Z</time>
      </trkpt>
      <trkpt lat="45.67883" lon="6.35717">
        <ele>380</ele>
        <time>2020-06-06T12:41:56Z</time>
      </trkpt>
      <trkpt lat="45.67883" lon="6.35713">
        <ele>380</ele>
        <time>2020-06-06T12:41:58Z</time>
      </trkpt>
      <trkpt lat="45.67881" lon="6.35708">
        <ele>380</ele>
        <time>2020-06-06T12:42:02Z</time>
      </trkpt>
      <trkpt lat="45.67881" lon="6.35705">
        <ele>379</ele>
        <time>2020-06-06T12:42:04Z</time>
      </trkpt>
      <trkpt lat="45.67881" lon="6.35701">
        <ele>379</ele>
        <time>2020-06-06T12:42:06Z</time>
      </trkpt>
      <trkpt lat="45.67879" lon="6.35693">
        <ele>377</ele>
        <time>2020-06-06T12:42:10Z</time>
      </trkpt>
      <trkpt lat="45.67878" lon="6.35689">
        <ele>376</ele>
        <time>2020-06-06T12:42:12Z</time>
      </trkpt>
      <trkpt lat="45.67879" lon="6.35687">
        <ele>376</ele>
        <time>2020-06-06T12:42:14Z</time>
      </trkpt>
      <trkpt lat="45.6788" lon="6.35685">
        <ele>375</ele>
        <time>2020-06-06T12:42:17Z</time>
      </trkpt>
      <trkpt lat="45.67881" lon="6.35681">
        <ele>372</ele>
        <time>2020-06-06T12:44:34Z</time>
      </trkpt>
      <trkpt lat="45.67881" lon="6.3568">
        <ele>373</ele>
        <time>2020-06-06T12:45:44Z</time>
      </trkpt>
      <trkpt lat="45.67881" lon="6.3568">
        <ele>373</ele>
        <time>2020-06-06T12:46:03Z</time>
      </trkpt>
      <trkpt lat="45.67881" lon="6.35678">
        <ele>371</ele>
        <time>2020-06-06T12:47:23Z</time>
      </trkpt>
      <trkpt lat="45.67882" lon="6.35676">
        <ele>370</ele>
        <time>2020-06-06T12:47:25Z</time>
      </trkpt>
      <trkpt lat="45.6788" lon="6.35669">
        <ele>369</ele>
        <time>2020-06-06T12:47:31Z</time>
      </trkpt>
      <trkpt lat="45.67881" lon="6.35662">
        <ele>369</ele>
        <time>2020-06-06T12:47:35Z</time>
      </trkpt>
      <trkpt lat="45.67882" lon="6.35654">
        <ele>369</ele>
        <time>2020-06-06T12:47:39Z</time>
      </trkpt>
      <trkpt lat="45.67884" lon="6.3564">
        <ele>369</ele>
        <time>2020-06-06T12:47:47Z</time>
      </trkpt>
      <trkpt lat="45.67886" lon="6.35624">
        <ele>369</ele>
        <time>2020-06-06T12:47:57Z</time>
      </trkpt>
      <trkpt lat="45.67887" lon="6.35623">
        <ele>369</ele>
        <time>2020-06-06T12:47:59Z</time>
      </trkpt>
      <trkpt lat="45.67888" lon="6.35612">
        <ele>370</ele>
        <time>2020-06-06T12:48:06Z</time>
      </trkpt>
      <trkpt lat="45.67888" lon="6.3561">
        <ele>370</ele>
        <time>2020-06-06T12:48:08Z</time>
      </trkpt>
      <trkpt lat="45.67885" lon="6.35587">
        <ele>374</ele>
        <time>2020-06-06T12:48:22Z</time>
      </trkpt>
      <trkpt lat="45.67885" lon="6.35584">
        <ele>374</ele>
        <time>2020-06-06T12:48:23Z</time>
      </trkpt>
      <trkpt lat="45.67884" lon="6.35583">
        <ele>374</ele>
        <time>2020-06-06T12:48:24Z</time>
      </trkpt>
      <trkpt lat="45.67879" lon="6.3557">
        <ele>376</ele>
        <time>2020-06-06T12:48:30Z</time>
      </trkpt>
      <trkpt lat="45.67878" lon="6.35566">
        <ele>376</ele>
        <time>2020-06-06T12:48:32Z</time>
      </trkpt>
      <trkpt lat="45.67877" lon="6.35565">
        <ele>376</ele>
        <time>2020-06-06T12:48:33Z</time>
      </trkpt>
      <trkpt lat="45.67875" lon="6.35557">
        <ele>377</ele>
        <time>2020-06-06T12:48:37Z</time>
      </trkpt>
      <trkpt lat="45.67871" lon="6.35547">
        <ele>377</ele>
        <time>2020-06-06T12:48:43Z</time>
      </trkpt>
      <trkpt lat="45.6787" lon="6.35542">
        <ele>377</ele>
        <time>2020-06-06T12:48:45Z</time>
      </trkpt>
      <trkpt lat="45.67868" lon="6.35535">
        <ele>376</ele>
        <time>2020-06-06T12:48:48Z</time>
      </trkpt>
      <trkpt lat="45.67865" lon="6.35529">
        <ele>376</ele>
        <time>2020-06-06T12:48:52Z</time>
      </trkpt>
      <trkpt lat="45.67864" lon="6.35526">
        <ele>375</ele>
        <time>2020-06-06T12:48:54Z</time>
      </trkpt>
      <trkpt lat="45.67865" lon="6.35524">
        <ele>375</ele>
        <time>2020-06-06T12:48:55Z</time>
      </trkpt>
      <trkpt lat="45.67865" lon="6.3552">
        <ele>374</ele>
        <time>2020-06-06T12:48:57Z</time>
      </trkpt>
      <trkpt lat="45.67866" lon="6.35509">
        <ele>373</ele>
        <time>2020-06-06T12:49:02Z</time>
      </trkpt>
      <trkpt lat="45.67868" lon="6.35503">
        <ele>373</ele>
        <time>2020-06-06T12:49:05Z</time>
      </trkpt>
      <trkpt lat="45.67869" lon="6.355">
        <ele>373</ele>
        <time>2020-06-06T12:49:07Z</time>
      </trkpt>
      <trkpt lat="45.67874" lon="6.35496">
        <ele>373</ele>
        <time>2020-06-06T12:49:13Z</time>
      </trkpt>
      <trkpt lat="45.67875" lon="6.35493">
        <ele>373</ele>
        <time>2020-06-06T12:49:16Z</time>
      </trkpt>
      <trkpt lat="45.67879" lon="6.35491">
        <ele>374</ele>
        <time>2020-06-06T12:49:20Z</time>
      </trkpt>
      <trkpt lat="45.67884" lon="6.35493">
        <ele>376</ele>
        <time>2020-06-06T12:49:24Z</time>
      </trkpt>
      <trkpt lat="45.67887" lon="6.35494">
        <ele>376</ele>
        <time>2020-06-06T12:49:26Z</time>
      </trkpt>
      <trkpt lat="45.67891" lon="6.35495">
        <ele>377</ele>
        <time>2020-06-06T12:49:29Z</time>
      </trkpt>
      <trkpt lat="45.67893" lon="6.35495">
        <ele>377</ele>
        <time>2020-06-06T12:49:31Z</time>
      </trkpt>
      <trkpt lat="45.67896" lon="6.35495">
        <ele>378</ele>
        <time>2020-06-06T12:49:33Z</time>
      </trkpt>
      <trkpt lat="45.67902" lon="6.35491">
        <ele>378</ele>
        <time>2020-06-06T12:49:40Z</time>
      </trkpt>
      <trkpt lat="45.67904" lon="6.35491">
        <ele>379</ele>
        <time>2020-06-06T12:49:43Z</time>
      </trkpt>
      <trkpt lat="45.67919" lon="6.35487">
        <ele>379</ele>
        <time>2020-06-06T12:49:57Z</time>
      </trkpt>
      <trkpt lat="45.67922" lon="6.35489">
        <ele>380</ele>
        <time>2020-06-06T12:50:01Z</time>
      </trkpt>
      <trkpt lat="45.67924" lon="6.3549">
        <ele>381</ele>
        <time>2020-06-06T12:50:03Z</time>
      </trkpt>
      <trkpt lat="45.67927" lon="6.35489">
        <ele>382</ele>
        <time>2020-06-06T12:50:05Z</time>
      </trkpt>
      <trkpt lat="45.67929" lon="6.35492">
        <ele>384</ele>
        <time>2020-06-06T12:50:08Z</time>
      </trkpt>
      <trkpt lat="45.6793" lon="6.35494">
        <ele>386</ele>
        <time>2020-06-06T12:50:11Z</time>
      </trkpt>
      <trkpt lat="45.67942" lon="6.35495">
        <ele>389</ele>
        <time>2020-06-06T12:50:21Z</time>
      </trkpt>
      <trkpt lat="45.67947" lon="6.35498">
        <ele>389</ele>
        <time>2020-06-06T12:50:25Z</time>
      </trkpt>
      <trkpt lat="45.67958" lon="6.35499">
        <ele>389</ele>
        <time>2020-06-06T12:50:32Z</time>
      </trkpt>
      <trkpt lat="45.67963" lon="6.35501">
        <ele>389</ele>
        <time>2020-06-06T12:50:36Z</time>
      </trkpt>
      <trkpt lat="45.6797" lon="6.35503">
        <ele>389</ele>
        <time>2020-06-06T12:50:42Z</time>
      </trkpt>
      <trkpt lat="45.67974" lon="6.35503">
        <ele>390</ele>
        <time>2020-06-06T12:50:47Z</time>
      </trkpt>
      <trkpt lat="45.67976" lon="6.35503">
        <ele>390</ele>
        <time>2020-06-06T12:50:49Z</time>
      </trkpt>
      <trkpt lat="45.67978" lon="6.35501">
        <ele>390</ele>
        <time>2020-06-06T12:50:51Z</time>
      </trkpt>
      <trkpt lat="45.67979" lon="6.35498">
        <ele>390</ele>
        <time>2020-06-06T12:50:52Z</time>
      </trkpt>
      <trkpt lat="45.67986" lon="6.35496">
        <ele>389</ele>
        <time>2020-06-06T12:50:58Z</time>
      </trkpt>
      <trkpt lat="45.67989" lon="6.35497">
        <ele>388</ele>
        <time>2020-06-06T12:51:00Z</time>
      </trkpt>
      <trkpt lat="45.67991" lon="6.35496">
        <ele>387</ele>
        <time>2020-06-06T12:51:02Z</time>
      </trkpt>
      <trkpt lat="45.68003" lon="6.35495">
        <ele>386</ele>
        <time>2020-06-06T12:51:12Z</time>
      </trkpt>
      <trkpt lat="45.68009" lon="6.3549">
        <ele>385</ele>
        <time>2020-06-06T12:51:18Z</time>
      </trkpt>
      <trkpt lat="45.68011" lon="6.35488">
        <ele>385</ele>
        <time>2020-06-06T12:51:21Z</time>
      </trkpt>
      <trkpt lat="45.68013" lon="6.35487">
        <ele>385</ele>
        <time>2020-06-06T12:51:23Z</time>
      </trkpt>
      <trkpt lat="45.68017" lon="6.35485">
        <ele>386</ele>
        <time>2020-06-06T12:51:27Z</time>
      </trkpt>
      <trkpt lat="45.68023" lon="6.3548">
        <ele>388</ele>
        <time>2020-06-06T12:51:32Z</time>
      </trkpt>
      <trkpt lat="45.68048" lon="6.3547">
        <ele>391</ele>
        <time>2020-06-06T12:51:56Z</time>
      </trkpt>
      <trkpt lat="45.6805" lon="6.3547">
        <ele>392</ele>
        <time>2020-06-06T12:51:59Z</time>
      </trkpt>
      <trkpt lat="45.68052" lon="6.35469">
        <ele>392</ele>
        <time>2020-06-06T12:52:01Z</time>
      </trkpt>
      <trkpt lat="45.68055" lon="6.35472">
        <ele>393</ele>
        <time>2020-06-06T12:52:05Z</time>
      </trkpt>
      <trkpt lat="45.68057" lon="6.35473">
        <ele>393</ele>
        <time>2020-06-06T12:52:07Z</time>
      </trkpt>
      <trkpt lat="45.68059" lon="6.35472">
        <ele>393</ele>
        <time>2020-06-06T12:52:09Z</time>
      </trkpt>
      <trkpt lat="45.68061" lon="6.35472">
        <ele>394</ele>
        <time>2020-06-06T12:52:11Z</time>
      </trkpt>
      <trkpt lat="45.68063" lon="6.35473">
        <ele>394</ele>
        <time>2020-06-06T12:52:13Z</time>
      </trkpt>
      <trkpt lat="45.68065" lon="6.3547">
        <ele>394</ele>
        <time>2020-06-06T12:52:15Z</time>
      </trkpt>
      <trkpt lat="45.68067" lon="6.3547">
        <ele>394</ele>
        <time>2020-06-06T12:52:17Z</time>
      </trkpt>
      <trkpt lat="45.68078" lon="6.35473">
        <ele>394</ele>
        <time>2020-06-06T12:52:29Z</time>
      </trkpt>
      <trkpt lat="45.68079" lon="6.35473">
        <ele>394</ele>
        <time>2020-06-06T12:52:32Z</time>
      </trkpt>
      <trkpt lat="45.68081" lon="6.35474">
        <ele>394</ele>
        <time>2020-06-06T12:52:35Z</time>
      </trkpt>
      <trkpt lat="45.68085" lon="6.35475">
        <ele>395</ele>
        <time>2020-06-06T12:52:39Z</time>
      </trkpt>
      <trkpt lat="45.6809" lon="6.35478">
        <ele>395</ele>
        <time>2020-06-06T12:52:45Z</time>
      </trkpt>
      <trkpt lat="45.68092" lon="6.3548">
        <ele>395</ele>
        <time>2020-06-06T12:52:47Z</time>
      </trkpt>
      <trkpt lat="45.68094" lon="6.3548">
        <ele>396</ele>
        <time>2020-06-06T12:52:50Z</time>
      </trkpt>
      <trkpt lat="45.68096" lon="6.35481">
        <ele>396</ele>
        <time>2020-06-06T12:52:52Z</time>
      </trkpt>
      <trkpt lat="45.68101" lon="6.35482">
        <ele>396</ele>
        <time>2020-06-06T12:52:56Z</time>
      </trkpt>
      <trkpt lat="45.68103" lon="6.35482">
        <ele>397</ele>
        <time>2020-06-06T12:52:58Z</time>
      </trkpt>
      <trkpt lat="45.68105" lon="6.35481">
        <ele>397</ele>
        <time>2020-06-06T12:53:00Z</time>
      </trkpt>
      <trkpt lat="45.68107" lon="6.35482">
        <ele>398</ele>
        <time>2020-06-06T12:53:02Z</time>
      </trkpt>
      <trkpt lat="45.68111" lon="6.35482">
        <ele>398</ele>
        <time>2020-06-06T12:53:06Z</time>
      </trkpt>
      <trkpt lat="45.68118" lon="6.35479">
        <ele>399</ele>
        <time>2020-06-06T12:53:12Z</time>
      </trkpt>
      <trkpt lat="45.6812" lon="6.35478">
        <ele>398</ele>
        <time>2020-06-06T12:53:14Z</time>
      </trkpt>
      <trkpt lat="45.68129" lon="6.35477">
        <ele>399</ele>
        <time>2020-06-06T12:53:23Z</time>
      </trkpt>
      <trkpt lat="45.68131" lon="6.35477">
        <ele>398</ele>
        <time>2020-06-06T12:53:25Z</time>
      </trkpt>
      <trkpt lat="45.68133" lon="6.35477">
        <ele>399</ele>
        <time>2020-06-06T12:53:27Z</time>
      </trkpt>
      <trkpt lat="45.68137" lon="6.35476">
        <ele>398</ele>
        <time>2020-06-06T12:53:30Z</time>
      </trkpt>
      <trkpt lat="45.68139" lon="6.35475">
        <ele>398</ele>
        <time>2020-06-06T12:53:32Z</time>
      </trkpt>
      <trkpt lat="45.68141" lon="6.35474">
        <ele>398</ele>
        <time>2020-06-06T12:53:34Z</time>
      </trkpt>
      <trkpt lat="45.68143" lon="6.35474">
        <ele>398</ele>
        <time>2020-06-06T12:53:36Z</time>
      </trkpt>
      <trkpt lat="45.68149" lon="6.35469">
        <ele>398</ele>
        <time>2020-06-06T12:53:43Z</time>
      </trkpt>
      <trkpt lat="45.68151" lon="6.35467">
        <ele>398</ele>
        <time>2020-06-06T12:53:45Z</time>
      </trkpt>
      <trkpt lat="45.68153" lon="6.35463">
        <ele>397</ele>
        <time>2020-06-06T12:53:49Z</time>
      </trkpt>
      <trkpt lat="45.68155" lon="6.35462">
        <ele>397</ele>
        <time>2020-06-06T12:53:51Z</time>
      </trkpt>
      <trkpt lat="45.68157" lon="6.35461">
        <ele>397</ele>
        <time>2020-06-06T12:53:54Z</time>
      </trkpt>
      <trkpt lat="45.68158" lon="6.35461">
        <ele>397</ele>
        <time>2020-06-06T12:53:56Z</time>
      </trkpt>
      <trkpt lat="45.68163" lon="6.35462">
        <ele>398</ele>
        <time>2020-06-06T12:54:01Z</time>
      </trkpt>
      <trkpt lat="45.68165" lon="6.35461">
        <ele>398</ele>
        <time>2020-06-06T12:54:03Z</time>
      </trkpt>
      <trkpt lat="45.68167" lon="6.35462">
        <ele>399</ele>
        <time>2020-06-06T12:54:04Z</time>
      </trkpt>
      <trkpt lat="45.68168" lon="6.35462">
        <ele>399</ele>
        <time>2020-06-06T12:54:06Z</time>
      </trkpt>
      <trkpt lat="45.68173" lon="6.35462">
        <ele>400</ele>
        <time>2020-06-06T12:54:10Z</time>
      </trkpt>
      <trkpt lat="45.68176" lon="6.35462">
        <ele>401</ele>
        <time>2020-06-06T12:54:12Z</time>
      </trkpt>
      <trkpt lat="45.68181" lon="6.3546">
        <ele>402</ele>
        <time>2020-06-06T12:54:16Z</time>
      </trkpt>
      <trkpt lat="45.68183" lon="6.35459">
        <ele>402</ele>
        <time>2020-06-06T12:54:19Z</time>
      </trkpt>
      <trkpt lat="45.68185" lon="6.35458">
        <ele>403</ele>
        <time>2020-06-06T12:54:23Z</time>
      </trkpt>
      <trkpt lat="45.68187" lon="6.35457">
        <ele>404</ele>
        <time>2020-06-06T12:54:26Z</time>
      </trkpt>
      <trkpt lat="45.68191" lon="6.35454">
        <ele>405</ele>
        <time>2020-06-06T12:54:30Z</time>
      </trkpt>
      <trkpt lat="45.68193" lon="6.3545">
        <ele>405</ele>
        <time>2020-06-06T12:54:32Z</time>
      </trkpt>
      <trkpt lat="45.68195" lon="6.35448">
        <ele>406</ele>
        <time>2020-06-06T12:54:35Z</time>
      </trkpt>
      <trkpt lat="45.68196" lon="6.35448">
        <ele>406</ele>
        <time>2020-06-06T12:54:37Z</time>
      </trkpt>
      <trkpt lat="45.68199" lon="6.35449">
        <ele>409</ele>
        <time>2020-06-06T12:54:41Z</time>
      </trkpt>
      <trkpt lat="45.68203" lon="6.35449">
        <ele>409</ele>
        <time>2020-06-06T12:54:46Z</time>
      </trkpt>
      <trkpt lat="45.68204" lon="6.35448">
        <ele>409</ele>
        <time>2020-06-06T12:54:47Z</time>
      </trkpt>
      <trkpt lat="45.68209" lon="6.35448">
        <ele>410</ele>
        <time>2020-06-06T12:54:51Z</time>
      </trkpt>
      <trkpt lat="45.68212" lon="6.35449">
        <ele>410</ele>
        <time>2020-06-06T12:54:58Z</time>
      </trkpt>
      <trkpt lat="45.68215" lon="6.35453">
        <ele>411</ele>
        <time>2020-06-06T12:55:04Z</time>
      </trkpt>
      <trkpt lat="45.68217" lon="6.35454">
        <ele>411</ele>
        <time>2020-06-06T12:55:07Z</time>
      </trkpt>
      <trkpt lat="45.68219" lon="6.35459">
        <ele>413</ele>
        <time>2020-06-06T12:55:14Z</time>
      </trkpt>
      <trkpt lat="45.68221" lon="6.35461">
        <ele>413</ele>
        <time>2020-06-06T12:55:19Z</time>
      </trkpt>
      <trkpt lat="45.68224" lon="6.35463">
        <ele>412</ele>
        <time>2020-06-06T12:55:22Z</time>
      </trkpt>
      <trkpt lat="45.68226" lon="6.35463">
        <ele>412</ele>
        <time>2020-06-06T12:55:25Z</time>
      </trkpt>
      <trkpt lat="45.68228" lon="6.35464">
        <ele>412</ele>
        <time>2020-06-06T12:55:28Z</time>
      </trkpt>
      <trkpt lat="45.68234" lon="6.35462">
        <ele>411</ele>
        <time>2020-06-06T12:55:36Z</time>
      </trkpt>
      <trkpt lat="45.68239" lon="6.35464">
        <ele>412</ele>
        <time>2020-06-06T12:55:43Z</time>
      </trkpt>
      <trkpt lat="45.68242" lon="6.35466">
        <ele>412</ele>
        <time>2020-06-06T12:55:46Z</time>
      </trkpt>
      <trkpt lat="45.68245" lon="6.35466">
        <ele>412</ele>
        <time>2020-06-06T12:55:48Z</time>
      </trkpt>
      <trkpt lat="45.68247" lon="6.35467">
        <ele>413</ele>
        <time>2020-06-06T12:55:50Z</time>
      </trkpt>
      <trkpt lat="45.68255" lon="6.35465">
        <ele>413</ele>
        <time>2020-06-06T12:55:57Z</time>
      </trkpt>
      <trkpt lat="45.68257" lon="6.35464">
        <ele>413</ele>
        <time>2020-06-06T12:55:59Z</time>
      </trkpt>
      <trkpt lat="45.68258" lon="6.35461">
        <ele>413</ele>
        <time>2020-06-06T12:56:02Z</time>
      </trkpt>
      <trkpt lat="45.68263" lon="6.35459">
        <ele>413</ele>
        <time>2020-06-06T12:56:08Z</time>
      </trkpt>
      <trkpt lat="45.68266" lon="6.35461">
        <ele>413</ele>
        <time>2020-06-06T12:56:12Z</time>
      </trkpt>
      <trkpt lat="45.68268" lon="6.35461">
        <ele>414</ele>
        <time>2020-06-06T12:56:14Z</time>
      </trkpt>
      <trkpt lat="45.6827" lon="6.3546">
        <ele>415</ele>
        <time>2020-06-06T12:56:18Z</time>
      </trkpt>
      <trkpt lat="45.68272" lon="6.35458">
        <ele>415</ele>
        <time>2020-06-06T12:56:24Z</time>
      </trkpt>
      <trkpt lat="45.68274" lon="6.35458">
        <ele>415</ele>
        <time>2020-06-06T12:56:26Z</time>
      </trkpt>
      <trkpt lat="45.68277" lon="6.35459">
        <ele>416</ele>
        <time>2020-06-06T12:56:28Z</time>
      </trkpt>
      <trkpt lat="45.68279" lon="6.35457">
        <ele>418</ele>
        <time>2020-06-06T12:56:34Z</time>
      </trkpt>
      <trkpt lat="45.6828" lon="6.35455">
        <ele>419</ele>
        <time>2020-06-06T12:56:37Z</time>
      </trkpt>
      <trkpt lat="45.68283" lon="6.35449">
        <ele>423</ele>
        <time>2020-06-06T12:56:43Z</time>
      </trkpt>
      <trkpt lat="45.68285" lon="6.35447">
        <ele>424</ele>
        <time>2020-06-06T12:56:49Z</time>
      </trkpt>
      <trkpt lat="45.68286" lon="6.35445">
        <ele>425</ele>
        <time>2020-06-06T12:56:54Z</time>
      </trkpt>
      <trkpt lat="45.68287" lon="6.35443">
        <ele>425</ele>
        <time>2020-06-06T12:56:59Z</time>
      </trkpt>
      <trkpt lat="45.68288" lon="6.35441">
        <ele>425</ele>
        <time>2020-06-06T12:57:03Z</time>
      </trkpt>
      <trkpt lat="45.6829" lon="6.3544">
        <ele>425</ele>
        <time>2020-06-06T12:57:08Z</time>
      </trkpt>
      <trkpt lat="45.68294" lon="6.35429">
        <ele>425</ele>
        <time>2020-06-06T12:57:14Z</time>
      </trkpt>
      <trkpt lat="45.68305" lon="6.35419">
        <ele>425</ele>
        <time>2020-06-06T12:57:28Z</time>
      </trkpt>
      <trkpt lat="45.68308" lon="6.35417">
        <ele>426</ele>
        <time>2020-06-06T12:57:33Z</time>
      </trkpt>
      <trkpt lat="45.68311" lon="6.35413">
        <ele>427</ele>
        <time>2020-06-06T12:57:39Z</time>
      </trkpt>
      <trkpt lat="45.68314" lon="6.3541">
        <ele>428</ele>
        <time>2020-06-06T12:57:50Z</time>
      </trkpt>
      <trkpt lat="45.68319" lon="6.35408">
        <ele>430</ele>
        <time>2020-06-06T12:57:54Z</time>
      </trkpt>
      <trkpt lat="45.68321" lon="6.35406">
        <ele>431</ele>
        <time>2020-06-06T12:57:56Z</time>
      </trkpt>
      <trkpt lat="45.68321" lon="6.35403">
        <ele>431</ele>
        <time>2020-06-06T12:57:58Z</time>
      </trkpt>
      <trkpt lat="45.68322" lon="6.35402">
        <ele>431</ele>
        <time>2020-06-06T12:58:00Z</time>
      </trkpt>
      <trkpt lat="45.68324" lon="6.35401">
        <ele>432</ele>
        <time>2020-06-06T12:58:03Z</time>
      </trkpt>
      <trkpt lat="45.68325" lon="6.35398">
        <ele>433</ele>
        <time>2020-06-06T12:58:06Z</time>
      </trkpt>
      <trkpt lat="45.68327" lon="6.35397">
        <ele>433</ele>
        <time>2020-06-06T12:58:08Z</time>
      </trkpt>
      <trkpt lat="45.68329" lon="6.35397">
        <ele>434</ele>
        <time>2020-06-06T12:58:11Z</time>
      </trkpt>
      <trkpt lat="45.68331" lon="6.35395">
        <ele>435</ele>
        <time>2020-06-06T12:58:16Z</time>
      </trkpt>
      <trkpt lat="45.68332" lon="6.35393">
        <ele>436</ele>
        <time>2020-06-06T12:58:20Z</time>
      </trkpt>
      <trkpt lat="45.68334" lon="6.35387">
        <ele>437</ele>
        <time>2020-06-06T12:58:27Z</time>
      </trkpt>
      <trkpt lat="45.68335" lon="6.35385">
        <ele>438</ele>
        <time>2020-06-06T12:58:29Z</time>
      </trkpt>
      <trkpt lat="45.6834" lon="6.35384">
        <ele>439</ele>
        <time>2020-06-06T12:58:34Z</time>
      </trkpt>
      <trkpt lat="45.6834" lon="6.35381">
        <ele>439</ele>
        <time>2020-06-06T12:58:36Z</time>
      </trkpt>
      <trkpt lat="45.68341" lon="6.35378">
        <ele>440</ele>
        <time>2020-06-06T12:58:40Z</time>
      </trkpt>
      <trkpt lat="45.68342" lon="6.35374">
        <ele>440</ele>
        <time>2020-06-06T12:58:43Z</time>
      </trkpt>
      <trkpt lat="45.68351" lon="6.35367">
        <ele>441</ele>
        <time>2020-06-06T12:58:57Z</time>
      </trkpt>
      <trkpt lat="45.68357" lon="6.35359">
        <ele>443</ele>
        <time>2020-06-06T12:59:14Z</time>
      </trkpt>
      <trkpt lat="45.68361" lon="6.35355">
        <ele>445</ele>
        <time>2020-06-06T12:59:22Z</time>
      </trkpt>
      <trkpt lat="45.68363" lon="6.35353">
        <ele>445</ele>
        <time>2020-06-06T12:59:26Z</time>
      </trkpt>
      <trkpt lat="45.68365" lon="6.35352">
        <ele>446</ele>
        <time>2020-06-06T12:59:29Z</time>
      </trkpt>
      <trkpt lat="45.68367" lon="6.35351">
        <ele>446</ele>
        <time>2020-06-06T12:59:32Z</time>
      </trkpt>
      <trkpt lat="45.68369" lon="6.3535">
        <ele>446</ele>
        <time>2020-06-06T12:59:35Z</time>
      </trkpt>
      <trkpt lat="45.68371" lon="6.35351">
        <ele>447</ele>
        <time>2020-06-06T12:59:39Z</time>
      </trkpt>
      <trkpt lat="45.68373" lon="6.3535">
        <ele>447</ele>
        <time>2020-06-06T12:59:43Z</time>
      </trkpt>
      <trkpt lat="45.68373" lon="6.35347">
        <ele>448</ele>
        <time>2020-06-06T12:59:46Z</time>
      </trkpt>
      <trkpt lat="45.68373" lon="6.35343">
        <ele>449</ele>
        <time>2020-06-06T12:59:49Z</time>
      </trkpt>
      <trkpt lat="45.68378" lon="6.35338">
        <ele>451</ele>
        <time>2020-06-06T12:59:57Z</time>
      </trkpt>
      <trkpt lat="45.6838" lon="6.35337">
        <ele>452</ele>
        <time>2020-06-06T13:00:01Z</time>
      </trkpt>
      <trkpt lat="45.68382" lon="6.35334">
        <ele>452</ele>
        <time>2020-06-06T13:00:06Z</time>
      </trkpt>
      <trkpt lat="45.68383" lon="6.35331">
        <ele>454</ele>
        <time>2020-06-06T13:00:09Z</time>
      </trkpt>
      <trkpt lat="45.68384" lon="6.35328">
        <ele>454</ele>
        <time>2020-06-06T13:00:12Z</time>
      </trkpt>
      <trkpt lat="45.68386" lon="6.35327">
        <ele>455</ele>
        <time>2020-06-06T13:00:16Z</time>
      </trkpt>
      <trkpt lat="45.68389" lon="6.35326">
        <ele>455</ele>
        <time>2020-06-06T13:00:19Z</time>
      </trkpt>
      <trkpt lat="45.6839" lon="6.35323">
        <ele>455</ele>
        <time>2020-06-06T13:00:22Z</time>
      </trkpt>
      <trkpt lat="45.68391" lon="6.35321">
        <ele>456</ele>
        <time>2020-06-06T13:00:25Z</time>
      </trkpt>
      <trkpt lat="45.68391" lon="6.35319">
        <ele>456</ele>
        <time>2020-06-06T13:00:29Z</time>
      </trkpt>
      <trkpt lat="45.68393" lon="6.35317">
        <ele>456</ele>
        <time>2020-06-06T13:00:31Z</time>
      </trkpt>
      <trkpt lat="45.68393" lon="6.35314">
        <ele>458</ele>
        <time>2020-06-06T13:00:33Z</time>
      </trkpt>
      <trkpt lat="45.68394" lon="6.35311">
        <ele>459</ele>
        <time>2020-06-06T13:00:36Z</time>
      </trkpt>
      <trkpt lat="45.68395" lon="6.35305">
        <ele>461</ele>
        <time>2020-06-06T13:00:46Z</time>
      </trkpt>
      <trkpt lat="45.68395" lon="6.35303">
        <ele>461</ele>
        <time>2020-06-06T13:00:48Z</time>
      </trkpt>
      <trkpt lat="45.68396" lon="6.353">
        <ele>462</ele>
        <time>2020-06-06T13:00:52Z</time>
      </trkpt>
      <trkpt lat="45.68397" lon="6.35297">
        <ele>464</ele>
        <time>2020-06-06T13:00:56Z</time>
      </trkpt>
      <trkpt lat="45.68398" lon="6.35294">
        <ele>465</ele>
        <time>2020-06-06T13:00:59Z</time>
      </trkpt>
      <trkpt lat="45.68397" lon="6.35291">
        <ele>466</ele>
        <time>2020-06-06T13:01:01Z</time>
      </trkpt>
      <trkpt lat="45.68397" lon="6.35288">
        <ele>467</ele>
        <time>2020-06-06T13:01:04Z</time>
      </trkpt>
      <trkpt lat="45.68397" lon="6.35284">
        <ele>468</ele>
        <time>2020-06-06T13:01:07Z</time>
      </trkpt>
      <trkpt lat="45.68398" lon="6.35281">
        <ele>469</ele>
        <time>2020-06-06T13:01:08Z</time>
      </trkpt>
      <trkpt lat="45.68398" lon="6.35278">
        <ele>470</ele>
        <time>2020-06-06T13:01:10Z</time>
      </trkpt>
      <trkpt lat="45.68397" lon="6.35276">
        <ele>470</ele>
        <time>2020-06-06T13:01:12Z</time>
      </trkpt>
      <trkpt lat="45.68398" lon="6.35273">
        <ele>471</ele>
        <time>2020-06-06T13:01:14Z</time>
      </trkpt>
      <trkpt lat="45.68398" lon="6.35269">
        <ele>471</ele>
        <time>2020-06-06T13:01:16Z</time>
      </trkpt>
      <trkpt lat="45.68398" lon="6.35266">
        <ele>471</ele>
        <time>2020-06-06T13:01:18Z</time>
      </trkpt>
      <trkpt lat="45.684" lon="6.35263">
        <ele>471</ele>
        <time>2020-06-06T13:01:20Z</time>
      </trkpt>
      <trkpt lat="45.68399" lon="6.35259">
        <ele>471</ele>
        <time>2020-06-06T13:01:21Z</time>
      </trkpt>
      <trkpt lat="45.684" lon="6.35257">
        <ele>471</ele>
        <time>2020-06-06T13:01:22Z</time>
      </trkpt>
      <trkpt lat="45.684" lon="6.35254">
        <ele>471</ele>
        <time>2020-06-06T13:01:23Z</time>
      </trkpt>
      <trkpt lat="45.68399" lon="6.35246">
        <ele>472</ele>
        <time>2020-06-06T13:01:27Z</time>
      </trkpt>
      <trkpt lat="45.68399" lon="6.35241">
        <ele>473</ele>
        <time>2020-06-06T13:01:31Z</time>
      </trkpt>
      <trkpt lat="45.68397" lon="6.35235">
        <ele>475</ele>
        <time>2020-06-06T13:01:36Z</time>
      </trkpt>
      <trkpt lat="45.68398" lon="6.35233">
        <ele>475</ele>
        <time>2020-06-06T13:01:38Z</time>
      </trkpt>
      <trkpt lat="45.68398" lon="6.3523">
        <ele>477</ele>
        <time>2020-06-06T13:01:41Z</time>
      </trkpt>
      <trkpt lat="45.68397" lon="6.35228">
        <ele>477</ele>
        <time>2020-06-06T13:01:44Z</time>
      </trkpt>
      <trkpt lat="45.68398" lon="6.35217">
        <ele>479</ele>
        <time>2020-06-06T13:01:53Z</time>
      </trkpt>
      <trkpt lat="45.68397" lon="6.35213">
        <ele>480</ele>
        <time>2020-06-06T13:01:55Z</time>
      </trkpt>
      <trkpt lat="45.68396" lon="6.35211">
        <ele>481</ele>
        <time>2020-06-06T13:01:58Z</time>
      </trkpt>
      <trkpt lat="45.68397" lon="6.35208">
        <ele>480</ele>
        <time>2020-06-06T13:02:00Z</time>
      </trkpt>
      <trkpt lat="45.68395" lon="6.352">
        <ele>481</ele>
        <time>2020-06-06T13:02:07Z</time>
      </trkpt>
      <trkpt lat="45.68394" lon="6.35196">
        <ele>481</ele>
        <time>2020-06-06T13:02:10Z</time>
      </trkpt>
      <trkpt lat="45.68395" lon="6.35189">
        <ele>482</ele>
        <time>2020-06-06T13:02:19Z</time>
      </trkpt>
      <trkpt lat="45.68395" lon="6.35186">
        <ele>482</ele>
        <time>2020-06-06T13:02:22Z</time>
      </trkpt>
      <trkpt lat="45.68394" lon="6.35183">
        <ele>482</ele>
        <time>2020-06-06T13:02:25Z</time>
      </trkpt>
      <trkpt lat="45.68393" lon="6.35173">
        <ele>482</ele>
        <time>2020-06-06T13:03:19Z</time>
      </trkpt>
      <trkpt lat="45.68392" lon="6.35171">
        <ele>482</ele>
        <time>2020-06-06T13:03:44Z</time>
      </trkpt>
      <trkpt lat="45.68395" lon="6.35166">
        <ele>482</ele>
        <time>2020-06-06T13:04:39Z</time>
      </trkpt>
      <trkpt lat="45.68393" lon="6.35158">
        <ele>482</ele>
        <time>2020-06-06T13:04:49Z</time>
      </trkpt>
      <trkpt lat="45.68391" lon="6.35155">
        <ele>482</ele>
        <time>2020-06-06T13:04:53Z</time>
      </trkpt>
      <trkpt lat="45.68391" lon="6.35152">
        <ele>482</ele>
        <time>2020-06-06T13:04:56Z</time>
      </trkpt>
      <trkpt lat="45.68389" lon="6.3515">
        <ele>482</ele>
        <time>2020-06-06T13:04:59Z</time>
      </trkpt>
      <trkpt lat="45.68386" lon="6.35133">
        <ele>480</ele>
        <time>2020-06-06T13:05:09Z</time>
      </trkpt>
      <trkpt lat="45.68385" lon="6.3513">
        <ele>480</ele>
        <time>2020-06-06T13:05:11Z</time>
      </trkpt>
      <trkpt lat="45.68382" lon="6.35107">
        <ele>477</ele>
        <time>2020-06-06T13:05:26Z</time>
      </trkpt>
      <trkpt lat="45.68382" lon="6.35104">
        <ele>477</ele>
        <time>2020-06-06T13:05:28Z</time>
      </trkpt>
      <trkpt lat="45.68383" lon="6.35098">
        <ele>477</ele>
        <time>2020-06-06T13:05:34Z</time>
      </trkpt>
      <trkpt lat="45.68382" lon="6.35095">
        <ele>477</ele>
        <time>2020-06-06T13:05:36Z</time>
      </trkpt>
      <trkpt lat="45.68381" lon="6.35094">
        <ele>478</ele>
        <time>2020-06-06T13:05:39Z</time>
      </trkpt>
      <trkpt lat="45.6838" lon="6.3509">
        <ele>479</ele>
        <time>2020-06-06T13:05:41Z</time>
      </trkpt>
      <trkpt lat="45.6838" lon="6.35086">
        <ele>479</ele>
        <time>2020-06-06T13:05:43Z</time>
      </trkpt>
      <trkpt lat="45.68381" lon="6.35079">
        <ele>481</ele>
        <time>2020-06-06T13:05:47Z</time>
      </trkpt>
      <trkpt lat="45.68381" lon="6.35076">
        <ele>482</ele>
        <time>2020-06-06T13:05:49Z</time>
      </trkpt>
      <trkpt lat="45.68381" lon="6.35073">
        <ele>482</ele>
        <time>2020-06-06T13:05:51Z</time>
      </trkpt>
      <trkpt lat="45.68381" lon="6.35067">
        <ele>483</ele>
        <time>2020-06-06T13:05:57Z</time>
      </trkpt>
      <trkpt lat="45.68381" lon="6.35057">
        <ele>483</ele>
        <time>2020-06-06T13:06:07Z</time>
      </trkpt>
      <trkpt lat="45.68379" lon="6.35051">
        <ele>483</ele>
        <time>2020-06-06T13:06:14Z</time>
      </trkpt>
      <trkpt lat="45.68378" lon="6.35049">
        <ele>484</ele>
        <time>2020-06-06T13:06:16Z</time>
      </trkpt>
      <trkpt lat="45.68377" lon="6.35047">
        <ele>484</ele>
        <time>2020-06-06T13:06:18Z</time>
      </trkpt>
      <trkpt lat="45.68374" lon="6.3503">
        <ele>485</ele>
        <time>2020-06-06T13:06:30Z</time>
      </trkpt>
      <trkpt lat="45.68373" lon="6.35027">
        <ele>485</ele>
        <time>2020-06-06T13:06:32Z</time>
      </trkpt>
      <trkpt lat="45.68372" lon="6.35022">
        <ele>485</ele>
        <time>2020-06-06T13:06:36Z</time>
      </trkpt>
      <trkpt lat="45.68371" lon="6.35019">
        <ele>486</ele>
        <time>2020-06-06T13:06:39Z</time>
      </trkpt>
      <trkpt lat="45.68369" lon="6.35012">
        <ele>486</ele>
        <time>2020-06-06T13:06:46Z</time>
      </trkpt>
      <trkpt lat="45.68368" lon="6.3501">
        <ele>486</ele>
        <time>2020-06-06T13:06:48Z</time>
      </trkpt>
      <trkpt lat="45.68367" lon="6.35007">
        <ele>486</ele>
        <time>2020-06-06T13:06:50Z</time>
      </trkpt>
      <trkpt lat="45.68366" lon="6.35004">
        <ele>486</ele>
        <time>2020-06-06T13:06:53Z</time>
      </trkpt>
      <trkpt lat="45.68365" lon="6.35002">
        <ele>486</ele>
        <time>2020-06-06T13:06:56Z</time>
      </trkpt>
      <trkpt lat="45.68364" lon="6.35">
        <ele>487</ele>
        <time>2020-06-06T13:06:59Z</time>
      </trkpt>
      <trkpt lat="45.68363" lon="6.34999">
        <ele>488</ele>
        <time>2020-06-06T13:07:01Z</time>
      </trkpt>
      <trkpt lat="45.68362" lon="6.34996">
        <ele>488</ele>
        <time>2020-06-06T13:07:03Z</time>
      </trkpt>
      <trkpt lat="45.6836" lon="6.34995">
        <ele>488</ele>
        <time>2020-06-06T13:07:06Z</time>
      </trkpt>
      <trkpt lat="45.68359" lon="6.34993">
        <ele>488</ele>
        <time>2020-06-06T13:07:08Z</time>
      </trkpt>
      <trkpt lat="45.68355" lon="6.34985">
        <ele>487</ele>
        <time>2020-06-06T13:07:14Z</time>
      </trkpt>
      <trkpt lat="45.68354" lon="6.34982">
        <ele>487</ele>
        <time>2020-06-06T13:07:16Z</time>
      </trkpt>
      <trkpt lat="45.68352" lon="6.34974">
        <ele>486</ele>
        <time>2020-06-06T13:07:22Z</time>
      </trkpt>
      <trkpt lat="45.68348" lon="6.34964">
        <ele>486</ele>
        <time>2020-06-06T13:07:31Z</time>
      </trkpt>
      <trkpt lat="45.68348" lon="6.34961">
        <ele>486</ele>
        <time>2020-06-06T13:07:33Z</time>
      </trkpt>
      <trkpt lat="45.68349" lon="6.34959">
        <ele>486</ele>
        <time>2020-06-06T13:07:36Z</time>
      </trkpt>
      <trkpt lat="45.6835" lon="6.34957">
        <ele>486</ele>
        <time>2020-06-06T13:07:39Z</time>
      </trkpt>
      <trkpt lat="45.68353" lon="6.34954">
        <ele>487</ele>
        <time>2020-06-06T13:07:44Z</time>
      </trkpt>
      <trkpt lat="45.68355" lon="6.34947">
        <ele>490</ele>
        <time>2020-06-06T13:07:58Z</time>
      </trkpt>
      <trkpt lat="45.68355" lon="6.34944">
        <ele>491</ele>
        <time>2020-06-06T13:08:02Z</time>
      </trkpt>
      <trkpt lat="45.68357" lon="6.34942">
        <ele>492</ele>
        <time>2020-06-06T13:08:06Z</time>
      </trkpt>
      <trkpt lat="45.68357" lon="6.34939">
        <ele>493</ele>
        <time>2020-06-06T13:08:10Z</time>
      </trkpt>
      <trkpt lat="45.68359" lon="6.34936">
        <ele>494</ele>
        <time>2020-06-06T13:08:13Z</time>
      </trkpt>
      <trkpt lat="45.68362" lon="6.34935">
        <ele>495</ele>
        <time>2020-06-06T13:08:16Z</time>
      </trkpt>
      <trkpt lat="45.68363" lon="6.34933">
        <ele>495</ele>
        <time>2020-06-06T13:08:18Z</time>
      </trkpt>
      <trkpt lat="45.68364" lon="6.3493">
        <ele>496</ele>
        <time>2020-06-06T13:08:20Z</time>
      </trkpt>
      <trkpt lat="45.68366" lon="6.34931">
        <ele>496</ele>
        <time>2020-06-06T13:08:22Z</time>
      </trkpt>
      <trkpt lat="45.68368" lon="6.34933">
        <ele>496</ele>
        <time>2020-06-06T13:08:25Z</time>
      </trkpt>
      <trkpt lat="45.68369" lon="6.34935">
        <ele>496</ele>
        <time>2020-06-06T13:08:27Z</time>
      </trkpt>
      <trkpt lat="45.68368" lon="6.34937">
        <ele>495</ele>
        <time>2020-06-06T13:08:32Z</time>
      </trkpt>
      <trkpt lat="45.68365" lon="6.34933">
        <ele>496</ele>
        <time>2020-06-06T13:08:41Z</time>
      </trkpt>
      <trkpt lat="45.68366" lon="6.3493">
        <ele>496</ele>
        <time>2020-06-06T13:08:43Z</time>
      </trkpt>
      <trkpt lat="45.68371" lon="6.34917">
        <ele>498</ele>
        <time>2020-06-06T13:08:55Z</time>
      </trkpt>
      <trkpt lat="45.68373" lon="6.34913">
        <ele>500</ele>
        <time>2020-06-06T13:09:00Z</time>
      </trkpt>
      <trkpt lat="45.68374" lon="6.34911">
        <ele>500</ele>
        <time>2020-06-06T13:09:02Z</time>
      </trkpt>
      <trkpt lat="45.68376" lon="6.34909">
        <ele>499</ele>
        <time>2020-06-06T13:09:04Z</time>
      </trkpt>
      <trkpt lat="45.68377" lon="6.34907">
        <ele>499</ele>
        <time>2020-06-06T13:09:06Z</time>
      </trkpt>
      <trkpt lat="45.68377" lon="6.34905">
        <ele>499</ele>
        <time>2020-06-06T13:09:08Z</time>
      </trkpt>
      <trkpt lat="45.68379" lon="6.34898">
        <ele>499</ele>
        <time>2020-06-06T13:09:12Z</time>
      </trkpt>
      <trkpt lat="45.6838" lon="6.34895">
        <ele>498</ele>
        <time>2020-06-06T13:09:14Z</time>
      </trkpt>
      <trkpt lat="45.68379" lon="6.34893">
        <ele>498</ele>
        <time>2020-06-06T13:09:17Z</time>
      </trkpt>
      <trkpt lat="45.68381" lon="6.34887">
        <ele>499</ele>
        <time>2020-06-06T13:09:23Z</time>
      </trkpt>
      <trkpt lat="45.68387" lon="6.34882">
        <ele>500</ele>
        <time>2020-06-06T13:09:34Z</time>
      </trkpt>
      <trkpt lat="45.6839" lon="6.34879">
        <ele>501</ele>
        <time>2020-06-06T13:09:38Z</time>
      </trkpt>
      <trkpt lat="45.68391" lon="6.34876">
        <ele>502</ele>
        <time>2020-06-06T13:09:41Z</time>
      </trkpt>
      <trkpt lat="45.68392" lon="6.34874">
        <ele>502</ele>
        <time>2020-06-06T13:09:44Z</time>
      </trkpt>
      <trkpt lat="45.68395" lon="6.3487">
        <ele>503</ele>
        <time>2020-06-06T13:09:48Z</time>
      </trkpt>
      <trkpt lat="45.68395" lon="6.34868">
        <ele>504</ele>
        <time>2020-06-06T13:09:50Z</time>
      </trkpt>
      <trkpt lat="45.68396" lon="6.34866">
        <ele>504</ele>
        <time>2020-06-06T13:09:52Z</time>
      </trkpt>
      <trkpt lat="45.684" lon="6.3486">
        <ele>506</ele>
        <time>2020-06-06T13:09:58Z</time>
      </trkpt>
      <trkpt lat="45.68402" lon="6.34858">
        <ele>507</ele>
        <time>2020-06-06T13:10:00Z</time>
      </trkpt>
      <trkpt lat="45.68403" lon="6.34856">
        <ele>507</ele>
        <time>2020-06-06T13:10:02Z</time>
      </trkpt>
      <trkpt lat="45.68403" lon="6.34854">
        <ele>508</ele>
        <time>2020-06-06T13:10:05Z</time>
      </trkpt>
      <trkpt lat="45.68403" lon="6.34852">
        <ele>509</ele>
        <time>2020-06-06T13:10:10Z</time>
      </trkpt>
      <trkpt lat="45.68404" lon="6.34843">
        <ele>511</ele>
        <time>2020-06-06T13:10:21Z</time>
      </trkpt>
      <trkpt lat="45.68405" lon="6.34841">
        <ele>511</ele>
        <time>2020-06-06T13:10:24Z</time>
      </trkpt>
      <trkpt lat="45.68406" lon="6.34839">
        <ele>512</ele>
        <time>2020-06-06T13:10:26Z</time>
      </trkpt>
      <trkpt lat="45.68406" lon="6.34837">
        <ele>512</ele>
        <time>2020-06-06T13:10:28Z</time>
      </trkpt>
      <trkpt lat="45.68406" lon="6.34832">
        <ele>511</ele>
        <time>2020-06-06T13:10:34Z</time>
      </trkpt>
      <trkpt lat="45.68407" lon="6.34829">
        <ele>511</ele>
        <time>2020-06-06T13:10:36Z</time>
      </trkpt>
      <trkpt lat="45.68406" lon="6.34827">
        <ele>511</ele>
        <time>2020-06-06T13:10:38Z</time>
      </trkpt>
      <trkpt lat="45.68406" lon="6.34825">
        <ele>511</ele>
        <time>2020-06-06T13:10:42Z</time>
      </trkpt>
      <trkpt lat="45.68409" lon="6.34817">
        <ele>510</ele>
        <time>2020-06-06T13:10:57Z</time>
      </trkpt>
      <trkpt lat="45.68409" lon="6.34815">
        <ele>510</ele>
        <time>2020-06-06T13:11:00Z</time>
      </trkpt>
      <trkpt lat="45.68409" lon="6.34811">
        <ele>512</ele>
        <time>2020-06-06T13:11:08Z</time>
      </trkpt>
      <trkpt lat="45.68408" lon="6.34809">
        <ele>512</ele>
        <time>2020-06-06T13:11:10Z</time>
      </trkpt>
      <trkpt lat="45.68409" lon="6.34799">
        <ele>511</ele>
        <time>2020-06-06T13:11:17Z</time>
      </trkpt>
      <trkpt lat="45.68408" lon="6.34797">
        <ele>511</ele>
        <time>2020-06-06T13:11:23Z</time>
      </trkpt>
      <trkpt lat="45.6841" lon="6.34776">
        <ele>510</ele>
        <time>2020-06-06T13:11:40Z</time>
      </trkpt>
      <trkpt lat="45.68411" lon="6.34773">
        <ele>510</ele>
        <time>2020-06-06T13:11:43Z</time>
      </trkpt>
      <trkpt lat="45.68413" lon="6.34772">
        <ele>512</ele>
        <time>2020-06-06T13:11:51Z</time>
      </trkpt>
      <trkpt lat="45.68416" lon="6.34769">
        <ele>514</ele>
        <time>2020-06-06T13:11:56Z</time>
      </trkpt>
      <trkpt lat="45.68417" lon="6.34766">
        <ele>515</ele>
        <time>2020-06-06T13:12:02Z</time>
      </trkpt>
      <trkpt lat="45.68418" lon="6.34764">
        <ele>516</ele>
        <time>2020-06-06T13:12:11Z</time>
      </trkpt>
      <trkpt lat="45.68419" lon="6.34762">
        <ele>516</ele>
        <time>2020-06-06T13:12:17Z</time>
      </trkpt>
      <trkpt lat="45.68421" lon="6.34757">
        <ele>517</ele>
        <time>2020-06-06T13:12:26Z</time>
      </trkpt>
      <trkpt lat="45.68422" lon="6.34754">
        <ele>517</ele>
        <time>2020-06-06T13:12:28Z</time>
      </trkpt>
      <trkpt lat="45.68423" lon="6.3475">
        <ele>518</ele>
        <time>2020-06-06T13:12:30Z</time>
      </trkpt>
      <trkpt lat="45.68426" lon="6.34748">
        <ele>518</ele>
        <time>2020-06-06T13:12:34Z</time>
      </trkpt>
      <trkpt lat="45.68428" lon="6.34748">
        <ele>518</ele>
        <time>2020-06-06T13:12:38Z</time>
      </trkpt>
      <trkpt lat="45.6843" lon="6.34745">
        <ele>519</ele>
        <time>2020-06-06T13:12:51Z</time>
      </trkpt>
      <trkpt lat="45.68432" lon="6.34744">
        <ele>519</ele>
        <time>2020-06-06T13:12:54Z</time>
      </trkpt>
      <trkpt lat="45.68434" lon="6.34743">
        <ele>520</ele>
        <time>2020-06-06T13:12:59Z</time>
      </trkpt>
      <trkpt lat="45.68438" lon="6.34741">
        <ele>520</ele>
        <time>2020-06-06T13:13:04Z</time>
      </trkpt>
      <trkpt lat="45.68438" lon="6.34738">
        <ele>520</ele>
        <time>2020-06-06T13:13:09Z</time>
      </trkpt>
      <trkpt lat="45.68439" lon="6.34735">
        <ele>520</ele>
        <time>2020-06-06T13:13:11Z</time>
      </trkpt>
      <trkpt lat="45.6844" lon="6.34732">
        <ele>521</ele>
        <time>2020-06-06T13:13:15Z</time>
      </trkpt>
      <trkpt lat="45.68442" lon="6.34729">
        <ele>521</ele>
        <time>2020-06-06T13:13:18Z</time>
      </trkpt>
      <trkpt lat="45.68443" lon="6.34727">
        <ele>522</ele>
        <time>2020-06-06T13:13:21Z</time>
      </trkpt>
      <trkpt lat="45.68443" lon="6.34724">
        <ele>521</ele>
        <time>2020-06-06T13:13:27Z</time>
      </trkpt>
      <trkpt lat="45.68446" lon="6.34722">
        <ele>522</ele>
        <time>2020-06-06T13:13:33Z</time>
      </trkpt>
      <trkpt lat="45.68447" lon="6.34719">
        <ele>523</ele>
        <time>2020-06-06T13:13:36Z</time>
      </trkpt>
      <trkpt lat="45.68449" lon="6.34718">
        <ele>523</ele>
        <time>2020-06-06T13:13:39Z</time>
      </trkpt>
      <trkpt lat="45.6845" lon="6.34716">
        <ele>524</ele>
        <time>2020-06-06T13:13:42Z</time>
      </trkpt>
      <trkpt lat="45.6845" lon="6.34712">
        <ele>524</ele>
        <time>2020-06-06T13:13:47Z</time>
      </trkpt>
      <trkpt lat="45.68452" lon="6.34709">
        <ele>525</ele>
        <time>2020-06-06T13:13:49Z</time>
      </trkpt>
      <trkpt lat="45.68454" lon="6.34704">
        <ele>525</ele>
        <time>2020-06-06T13:13:52Z</time>
      </trkpt>
      <trkpt lat="45.68456" lon="6.34702">
        <ele>525</ele>
        <time>2020-06-06T13:13:54Z</time>
      </trkpt>
      <trkpt lat="45.68457" lon="6.34701">
        <ele>526</ele>
        <time>2020-06-06T13:13:56Z</time>
      </trkpt>
      <trkpt lat="45.68461" lon="6.34698">
        <ele>527</ele>
        <time>2020-06-06T13:14:00Z</time>
      </trkpt>
      <trkpt lat="45.68462" lon="6.34696">
        <ele>528</ele>
        <time>2020-06-06T13:14:04Z</time>
      </trkpt>
      <trkpt lat="45.68465" lon="6.3469">
        <ele>529</ele>
        <time>2020-06-06T13:14:13Z</time>
      </trkpt>
      <trkpt lat="45.68469" lon="6.34686">
        <ele>530</ele>
        <time>2020-06-06T13:14:23Z</time>
      </trkpt>
      <trkpt lat="45.68471" lon="6.34685">
        <ele>530</ele>
        <time>2020-06-06T13:14:25Z</time>
      </trkpt>
      <trkpt lat="45.68473" lon="6.34686">
        <ele>530</ele>
        <time>2020-06-06T13:14:28Z</time>
      </trkpt>
      <trkpt lat="45.68475" lon="6.34687">
        <ele>530</ele>
        <time>2020-06-06T13:14:31Z</time>
      </trkpt>
      <trkpt lat="45.68478" lon="6.34685">
        <ele>531</ele>
        <time>2020-06-06T13:14:35Z</time>
      </trkpt>
      <trkpt lat="45.6848" lon="6.34684">
        <ele>531</ele>
        <time>2020-06-06T13:14:38Z</time>
      </trkpt>
      <trkpt lat="45.68482" lon="6.34684">
        <ele>532</ele>
        <time>2020-06-06T13:14:47Z</time>
      </trkpt>
      <trkpt lat="45.68484" lon="6.34684">
        <ele>533</ele>
        <time>2020-06-06T13:14:49Z</time>
      </trkpt>
      <trkpt lat="45.68486" lon="6.34682">
        <ele>533</ele>
        <time>2020-06-06T13:14:51Z</time>
      </trkpt>
      <trkpt lat="45.68488" lon="6.34681">
        <ele>533</ele>
        <time>2020-06-06T13:14:54Z</time>
      </trkpt>
      <trkpt lat="45.68487" lon="6.34678">
        <ele>533</ele>
        <time>2020-06-06T13:14:57Z</time>
      </trkpt>
      <trkpt lat="45.6849" lon="6.34677">
        <ele>533</ele>
        <time>2020-06-06T13:15:04Z</time>
      </trkpt>
      <trkpt lat="45.68493" lon="6.34676">
        <ele>532</ele>
        <time>2020-06-06T13:15:08Z</time>
      </trkpt>
      <trkpt lat="45.68494" lon="6.34673">
        <ele>534</ele>
        <time>2020-06-06T13:15:15Z</time>
      </trkpt>
      <trkpt lat="45.68498" lon="6.34672">
        <ele>536</ele>
        <time>2020-06-06T13:15:21Z</time>
      </trkpt>
      <trkpt lat="45.68502" lon="6.34671">
        <ele>537</ele>
        <time>2020-06-06T13:15:27Z</time>
      </trkpt>
      <trkpt lat="45.68504" lon="6.34672">
        <ele>537</ele>
        <time>2020-06-06T13:15:29Z</time>
      </trkpt>
      <trkpt lat="45.68506" lon="6.3467">
        <ele>539</ele>
        <time>2020-06-06T13:15:35Z</time>
      </trkpt>
      <trkpt lat="45.68509" lon="6.34672">
        <ele>540</ele>
        <time>2020-06-06T13:15:50Z</time>
      </trkpt>
      <trkpt lat="45.68512" lon="6.34672">
        <ele>541</ele>
        <time>2020-06-06T13:15:53Z</time>
      </trkpt>
      <trkpt lat="45.68514" lon="6.34672">
        <ele>542</ele>
        <time>2020-06-06T13:15:57Z</time>
      </trkpt>
      <trkpt lat="45.68517" lon="6.34676">
        <ele>545</ele>
        <time>2020-06-06T13:16:05Z</time>
      </trkpt>
      <trkpt lat="45.68519" lon="6.34676">
        <ele>545</ele>
        <time>2020-06-06T13:16:08Z</time>
      </trkpt>
      <trkpt lat="45.6853" lon="6.34679">
        <ele>547</ele>
        <time>2020-06-06T13:16:25Z</time>
      </trkpt>
      <trkpt lat="45.68532" lon="6.34677">
        <ele>547</ele>
        <time>2020-06-06T13:16:28Z</time>
      </trkpt>
      <trkpt lat="45.68536" lon="6.34675">
        <ele>547</ele>
        <time>2020-06-06T13:16:32Z</time>
      </trkpt>
      <trkpt lat="45.68538" lon="6.34674">
        <ele>547</ele>
        <time>2020-06-06T13:16:34Z</time>
      </trkpt>
      <trkpt lat="45.68541" lon="6.34674">
        <ele>546</ele>
        <time>2020-06-06T13:16:40Z</time>
      </trkpt>
      <trkpt lat="45.68545" lon="6.3467">
        <ele>546</ele>
        <time>2020-06-06T13:16:44Z</time>
      </trkpt>
      <trkpt lat="45.68547" lon="6.34669">
        <ele>546</ele>
        <time>2020-06-06T13:16:46Z</time>
      </trkpt>
      <trkpt lat="45.68549" lon="6.34669">
        <ele>545</ele>
        <time>2020-06-06T13:16:50Z</time>
      </trkpt>
      <trkpt lat="45.68551" lon="6.34668">
        <ele>545</ele>
        <time>2020-06-06T13:16:55Z</time>
      </trkpt>
      <trkpt lat="45.68554" lon="6.34668">
        <ele>545</ele>
        <time>2020-06-06T13:17:03Z</time>
      </trkpt>
      <trkpt lat="45.68555" lon="6.34664">
        <ele>545</ele>
        <time>2020-06-06T13:17:06Z</time>
      </trkpt>
      <trkpt lat="45.68557" lon="6.34664">
        <ele>546</ele>
        <time>2020-06-06T13:17:12Z</time>
      </trkpt>
      <trkpt lat="45.6856" lon="6.34664">
        <ele>548</ele>
        <time>2020-06-06T13:17:18Z</time>
      </trkpt>
      <trkpt lat="45.6856" lon="6.34661">
        <ele>549</ele>
        <time>2020-06-06T13:17:20Z</time>
      </trkpt>
      <trkpt lat="45.68562" lon="6.3466">
        <ele>549</ele>
        <time>2020-06-06T13:17:24Z</time>
      </trkpt>
      <trkpt lat="45.68564" lon="6.34658">
        <ele>550</ele>
        <time>2020-06-06T13:17:32Z</time>
      </trkpt>
      <trkpt lat="45.68567" lon="6.34659">
        <ele>551</ele>
        <time>2020-06-06T13:17:34Z</time>
      </trkpt>
      <trkpt lat="45.68569" lon="6.34657">
        <ele>552</ele>
        <time>2020-06-06T13:17:37Z</time>
      </trkpt>
      <trkpt lat="45.68571" lon="6.34657">
        <ele>554</ele>
        <time>2020-06-06T13:17:42Z</time>
      </trkpt>
      <trkpt lat="45.68572" lon="6.34655">
        <ele>554</ele>
        <time>2020-06-06T13:17:46Z</time>
      </trkpt>
      <trkpt lat="45.68575" lon="6.34655">
        <ele>557</ele>
        <time>2020-06-06T13:17:54Z</time>
      </trkpt>
      <trkpt lat="45.68576" lon="6.34653">
        <ele>558</ele>
        <time>2020-06-06T13:17:57Z</time>
      </trkpt>
      <trkpt lat="45.68579" lon="6.34651">
        <ele>559</ele>
        <time>2020-06-06T13:18:02Z</time>
      </trkpt>
      <trkpt lat="45.68581" lon="6.34652">
        <ele>560</ele>
        <time>2020-06-06T13:18:08Z</time>
      </trkpt>
      <trkpt lat="45.68583" lon="6.34652">
        <ele>560</ele>
        <time>2020-06-06T13:18:10Z</time>
      </trkpt>
      <trkpt lat="45.68584" lon="6.34654">
        <ele>561</ele>
        <time>2020-06-06T13:18:13Z</time>
      </trkpt>
      <trkpt lat="45.68587" lon="6.34655">
        <ele>562</ele>
        <time>2020-06-06T13:18:16Z</time>
      </trkpt>
      <trkpt lat="45.68589" lon="6.34654">
        <ele>563</ele>
        <time>2020-06-06T13:18:19Z</time>
      </trkpt>
      <trkpt lat="45.68591" lon="6.3465">
        <ele>565</ele>
        <time>2020-06-06T13:18:24Z</time>
      </trkpt>
      <trkpt lat="45.68591" lon="6.34647">
        <ele>566</ele>
        <time>2020-06-06T13:18:27Z</time>
      </trkpt>
      <trkpt lat="45.68593" lon="6.34647">
        <ele>566</ele>
        <time>2020-06-06T13:18:30Z</time>
      </trkpt>
      <trkpt lat="45.68595" lon="6.34648">
        <ele>568</ele>
        <time>2020-06-06T13:18:34Z</time>
      </trkpt>
      <trkpt lat="45.68597" lon="6.34647">
        <ele>570</ele>
        <time>2020-06-06T13:18:42Z</time>
      </trkpt>
      <trkpt lat="45.68597" lon="6.34644">
        <ele>571</ele>
        <time>2020-06-06T13:18:46Z</time>
      </trkpt>
      <trkpt lat="45.686" lon="6.34643">
        <ele>572</ele>
        <time>2020-06-06T13:18:50Z</time>
      </trkpt>
      <trkpt lat="45.68602" lon="6.34644">
        <ele>573</ele>
        <time>2020-06-06T13:18:53Z</time>
      </trkpt>
      <trkpt lat="45.68603" lon="6.34644">
        <ele>574</ele>
        <time>2020-06-06T13:19:05Z</time>
      </trkpt>
      <trkpt lat="45.68606" lon="6.34644">
        <ele>575</ele>
        <time>2020-06-06T13:19:08Z</time>
      </trkpt>
      <trkpt lat="45.68609" lon="6.3464">
        <ele>577</ele>
        <time>2020-06-06T13:19:15Z</time>
      </trkpt>
      <trkpt lat="45.68608" lon="6.34637">
        <ele>577</ele>
        <time>2020-06-06T13:19:20Z</time>
      </trkpt>
      <trkpt lat="45.68608" lon="6.34634">
        <ele>577</ele>
        <time>2020-06-06T13:19:23Z</time>
      </trkpt>
      <trkpt lat="45.68607" lon="6.3463">
        <ele>577</ele>
        <time>2020-06-06T13:19:26Z</time>
      </trkpt>
      <trkpt lat="45.68607" lon="6.34625">
        <ele>577</ele>
        <time>2020-06-06T13:19:28Z</time>
      </trkpt>
      <trkpt lat="45.68607" lon="6.34622">
        <ele>577</ele>
        <time>2020-06-06T13:19:30Z</time>
      </trkpt>
      <trkpt lat="45.68607" lon="6.34619">
        <ele>577</ele>
        <time>2020-06-06T13:19:33Z</time>
      </trkpt>
      <trkpt lat="45.68609" lon="6.3462">
        <ele>578</ele>
        <time>2020-06-06T13:19:36Z</time>
      </trkpt>
      <trkpt lat="45.68609" lon="6.34618">
        <ele>580</ele>
        <time>2020-06-06T13:19:48Z</time>
      </trkpt>
      <trkpt lat="45.68609" lon="6.34616">
        <ele>581</ele>
        <time>2020-06-06T13:19:51Z</time>
      </trkpt>
      <trkpt lat="45.68607" lon="6.34614">
        <ele>585</ele>
        <time>2020-06-06T13:19:55Z</time>
      </trkpt>
      <trkpt lat="45.68607" lon="6.34614">
        <ele>590</ele>
        <time>2020-06-06T13:20:09Z</time>
      </trkpt>
      <trkpt lat="45.68604" lon="6.34619">
        <ele>592</ele>
        <time>2020-06-06T13:20:14Z</time>
      </trkpt>
      <trkpt lat="45.68602" lon="6.34619">
        <ele>593</ele>
        <time>2020-06-06T13:20:19Z</time>
      </trkpt>
      <trkpt lat="45.686" lon="6.34617">
        <ele>593</ele>
        <time>2020-06-06T13:20:22Z</time>
      </trkpt>
      <trkpt lat="45.68596" lon="6.34618">
        <ele>594</ele>
        <time>2020-06-06T13:20:27Z</time>
      </trkpt>
      <trkpt lat="45.68591" lon="6.34618">
        <ele>593</ele>
        <time>2020-06-06T13:20:31Z</time>
      </trkpt>
      <trkpt lat="45.68588" lon="6.34619">
        <ele>593</ele>
        <time>2020-06-06T13:20:34Z</time>
      </trkpt>
      <trkpt lat="45.68585" lon="6.3462">
        <ele>593</ele>
        <time>2020-06-06T13:20:37Z</time>
      </trkpt>
      <trkpt lat="45.68583" lon="6.34616">
        <ele>591</ele>
        <time>2020-06-06T13:20:41Z</time>
      </trkpt>
      <trkpt lat="45.68581" lon="6.34615">
        <ele>591</ele>
        <time>2020-06-06T13:20:42Z</time>
      </trkpt>
      <trkpt lat="45.6858" lon="6.34613">
        <ele>590</ele>
        <time>2020-06-06T13:20:43Z</time>
      </trkpt>
      <trkpt lat="45.68579" lon="6.34611">
        <ele>589</ele>
        <time>2020-06-06T13:20:45Z</time>
      </trkpt>
      <trkpt lat="45.68577" lon="6.3461">
        <ele>588</ele>
        <time>2020-06-06T13:20:47Z</time>
      </trkpt>
      <trkpt lat="45.68575" lon="6.3461">
        <ele>588</ele>
        <time>2020-06-06T13:20:48Z</time>
      </trkpt>
      <trkpt lat="45.68572" lon="6.34608">
        <ele>587</ele>
        <time>2020-06-06T13:20:50Z</time>
      </trkpt>
      <trkpt lat="45.68571" lon="6.34605">
        <ele>586</ele>
        <time>2020-06-06T13:20:53Z</time>
      </trkpt>
      <trkpt lat="45.68569" lon="6.34604">
        <ele>586</ele>
        <time>2020-06-06T13:20:55Z</time>
      </trkpt>
      <trkpt lat="45.68567" lon="6.34602">
        <ele>586</ele>
        <time>2020-06-06T13:20:57Z</time>
      </trkpt>
      <trkpt lat="45.68566" lon="6.34599">
        <ele>586</ele>
        <time>2020-06-06T13:20:59Z</time>
      </trkpt>
      <trkpt lat="45.68565" lon="6.34597">
        <ele>587</ele>
        <time>2020-06-06T13:21:01Z</time>
      </trkpt>
      <trkpt lat="45.68565" lon="6.34594">
        <ele>588</ele>
        <time>2020-06-06T13:21:05Z</time>
      </trkpt>
      <trkpt lat="45.68562" lon="6.34592">
        <ele>589</ele>
        <time>2020-06-06T13:21:14Z</time>
      </trkpt>
      <trkpt lat="45.68562" lon="6.3459">
        <ele>589</ele>
        <time>2020-06-06T13:21:17Z</time>
      </trkpt>
      <trkpt lat="45.6856" lon="6.34588">
        <ele>589</ele>
        <time>2020-06-06T13:21:19Z</time>
      </trkpt>
      <trkpt lat="45.6856" lon="6.34586">
        <ele>589</ele>
        <time>2020-06-06T13:21:22Z</time>
      </trkpt>
      <trkpt lat="45.68559" lon="6.34584">
        <ele>589</ele>
        <time>2020-06-06T13:21:25Z</time>
      </trkpt>
      <trkpt lat="45.68554" lon="6.34581">
        <ele>591</ele>
        <time>2020-06-06T13:21:42Z</time>
      </trkpt>
      <trkpt lat="45.68553" lon="6.34579">
        <ele>591</ele>
        <time>2020-06-06T13:21:44Z</time>
      </trkpt>
      <trkpt lat="45.68551" lon="6.34577">
        <ele>591</ele>
        <time>2020-06-06T13:21:46Z</time>
      </trkpt>
      <trkpt lat="45.68549" lon="6.34575">
        <ele>591</ele>
        <time>2020-06-06T13:21:48Z</time>
      </trkpt>
      <trkpt lat="45.68549" lon="6.34571">
        <ele>592</ele>
        <time>2020-06-06T13:21:50Z</time>
      </trkpt>
      <trkpt lat="45.68548" lon="6.34567">
        <ele>592</ele>
        <time>2020-06-06T13:21:54Z</time>
      </trkpt>
      <trkpt lat="45.68549" lon="6.34564">
        <ele>593</ele>
        <time>2020-06-06T13:21:57Z</time>
      </trkpt>
      <trkpt lat="45.68547" lon="6.34565">
        <ele>593</ele>
        <time>2020-06-06T13:22:00Z</time>
      </trkpt>
      <trkpt lat="45.68548" lon="6.34561">
        <ele>594</ele>
        <time>2020-06-06T13:22:03Z</time>
      </trkpt>
      <trkpt lat="45.68549" lon="6.34564">
        <ele>595</ele>
        <time>2020-06-06T13:22:09Z</time>
      </trkpt>
      <trkpt lat="45.68547" lon="6.34564">
        <ele>597</ele>
        <time>2020-06-06T13:22:29Z</time>
      </trkpt>
      <trkpt lat="45.68544" lon="6.34565">
        <ele>598</ele>
        <time>2020-06-06T13:22:37Z</time>
      </trkpt>
      <trkpt lat="45.68542" lon="6.34564">
        <ele>600</ele>
        <time>2020-06-06T13:22:39Z</time>
      </trkpt>
      <trkpt lat="45.68539" lon="6.34566">
        <ele>600</ele>
        <time>2020-06-06T13:22:41Z</time>
      </trkpt>
      <trkpt lat="45.68537" lon="6.34564">
        <ele>600</ele>
        <time>2020-06-06T13:22:44Z</time>
      </trkpt>
      <trkpt lat="45.68533" lon="6.34563">
        <ele>601</ele>
        <time>2020-06-06T13:22:50Z</time>
      </trkpt>
      <trkpt lat="45.6853" lon="6.34562">
        <ele>601</ele>
        <time>2020-06-06T13:22:52Z</time>
      </trkpt>
      <trkpt lat="45.68527" lon="6.34562">
        <ele>601</ele>
        <time>2020-06-06T13:22:54Z</time>
      </trkpt>
      <trkpt lat="45.68525" lon="6.34561">
        <ele>602</ele>
        <time>2020-06-06T13:22:57Z</time>
      </trkpt>
      <trkpt lat="45.68523" lon="6.34558">
        <ele>602</ele>
        <time>2020-06-06T13:23:01Z</time>
      </trkpt>
      <trkpt lat="45.68517" lon="6.34557">
        <ele>602</ele>
        <time>2020-06-06T13:23:05Z</time>
      </trkpt>
      <trkpt lat="45.68516" lon="6.34555">
        <ele>602</ele>
        <time>2020-06-06T13:23:09Z</time>
      </trkpt>
      <trkpt lat="45.68514" lon="6.34555">
        <ele>602</ele>
        <time>2020-06-06T13:23:10Z</time>
      </trkpt>
      <trkpt lat="45.68513" lon="6.34555">
        <ele>602</ele>
        <time>2020-06-06T13:23:11Z</time>
      </trkpt>
      <trkpt lat="45.68507" lon="6.34556">
        <ele>603</ele>
        <time>2020-06-06T13:23:15Z</time>
      </trkpt>
      <trkpt lat="45.68504" lon="6.34553">
        <ele>603</ele>
        <time>2020-06-06T13:23:17Z</time>
      </trkpt>
      <trkpt lat="45.68505" lon="6.34549">
        <ele>603</ele>
        <time>2020-06-06T13:23:19Z</time>
      </trkpt>
      <trkpt lat="45.68505" lon="6.34546">
        <ele>603</ele>
        <time>2020-06-06T13:23:21Z</time>
      </trkpt>
      <trkpt lat="45.68504" lon="6.34543">
        <ele>603</ele>
        <time>2020-06-06T13:23:24Z</time>
      </trkpt>
      <trkpt lat="45.68502" lon="6.34542">
        <ele>603</ele>
        <time>2020-06-06T13:23:27Z</time>
      </trkpt>
      <trkpt lat="45.685" lon="6.3454">
        <ele>603</ele>
        <time>2020-06-06T13:23:29Z</time>
      </trkpt>
      <trkpt lat="45.68498" lon="6.34541">
        <ele>603</ele>
        <time>2020-06-06T13:23:32Z</time>
      </trkpt>
      <trkpt lat="45.68495" lon="6.34541">
        <ele>603</ele>
        <time>2020-06-06T13:23:34Z</time>
      </trkpt>
      <trkpt lat="45.6849" lon="6.3454">
        <ele>603</ele>
        <time>2020-06-06T13:23:37Z</time>
      </trkpt>
      <trkpt lat="45.68486" lon="6.34538">
        <ele>604</ele>
        <time>2020-06-06T13:23:42Z</time>
      </trkpt>
      <trkpt lat="45.68483" lon="6.34537">
        <ele>604</ele>
        <time>2020-06-06T13:23:45Z</time>
      </trkpt>
      <trkpt lat="45.68479" lon="6.34534">
        <ele>605</ele>
        <time>2020-06-06T13:23:48Z</time>
      </trkpt>
      <trkpt lat="45.68477" lon="6.34532">
        <ele>605</ele>
        <time>2020-06-06T13:23:50Z</time>
      </trkpt>
      <trkpt lat="45.68476" lon="6.34529">
        <ele>606</ele>
        <time>2020-06-06T13:23:53Z</time>
      </trkpt>
      <trkpt lat="45.68474" lon="6.34527">
        <ele>606</ele>
        <time>2020-06-06T13:23:55Z</time>
      </trkpt>
      <trkpt lat="45.68474" lon="6.34524">
        <ele>606</ele>
        <time>2020-06-06T13:23:58Z</time>
      </trkpt>
      <trkpt lat="45.68475" lon="6.34521">
        <ele>606</ele>
        <time>2020-06-06T13:23:59Z</time>
      </trkpt>
      <trkpt lat="45.68474" lon="6.34518">
        <ele>606</ele>
        <time>2020-06-06T13:24:02Z</time>
      </trkpt>
      <trkpt lat="45.68475" lon="6.34515">
        <ele>605</ele>
        <time>2020-06-06T13:24:04Z</time>
      </trkpt>
      <trkpt lat="45.68475" lon="6.34512">
        <ele>604</ele>
        <time>2020-06-06T13:24:06Z</time>
      </trkpt>
      <trkpt lat="45.68476" lon="6.34509">
        <ele>602</ele>
        <time>2020-06-06T13:24:10Z</time>
      </trkpt>
      <trkpt lat="45.68478" lon="6.34503">
        <ele>601</ele>
        <time>2020-06-06T13:24:15Z</time>
      </trkpt>
      <trkpt lat="45.68478" lon="6.34501">
        <ele>601</ele>
        <time>2020-06-06T13:24:27Z</time>
      </trkpt>
      <trkpt lat="45.68477" lon="6.34499">
        <ele>601</ele>
        <time>2020-06-06T13:24:33Z</time>
      </trkpt>
      <trkpt lat="45.68475" lon="6.34496">
        <ele>602</ele>
        <time>2020-06-06T13:24:39Z</time>
      </trkpt>
      <trkpt lat="45.68473" lon="6.34493">
        <ele>602</ele>
        <time>2020-06-06T13:24:41Z</time>
      </trkpt>
      <trkpt lat="45.68471" lon="6.3449">
        <ele>602</ele>
        <time>2020-06-06T13:24:43Z</time>
      </trkpt>
      <trkpt lat="45.68471" lon="6.34484">
        <ele>602</ele>
        <time>2020-06-06T13:24:47Z</time>
      </trkpt>
      <trkpt lat="45.68466" lon="6.34477">
        <ele>600</ele>
        <time>2020-06-06T13:24:55Z</time>
      </trkpt>
      <trkpt lat="45.68465" lon="6.34472">
        <ele>600</ele>
        <time>2020-06-06T13:24:59Z</time>
      </trkpt>
      <trkpt lat="45.6846" lon="6.34459">
        <ele>598</ele>
        <time>2020-06-06T13:25:08Z</time>
      </trkpt>
      <trkpt lat="45.68459" lon="6.34456">
        <ele>597</ele>
        <time>2020-06-06T13:25:10Z</time>
      </trkpt>
      <trkpt lat="45.68458" lon="6.34452">
        <ele>597</ele>
        <time>2020-06-06T13:25:13Z</time>
      </trkpt>
      <trkpt lat="45.68456" lon="6.34449">
        <ele>598</ele>
        <time>2020-06-06T13:25:18Z</time>
      </trkpt>
      <trkpt lat="45.68457" lon="6.34446">
        <ele>599</ele>
        <time>2020-06-06T13:25:20Z</time>
      </trkpt>
      <trkpt lat="45.68455" lon="6.34444">
        <ele>600</ele>
        <time>2020-06-06T13:25:22Z</time>
      </trkpt>
      <trkpt lat="45.68453" lon="6.34443">
        <ele>600</ele>
        <time>2020-06-06T13:25:24Z</time>
      </trkpt>
      <trkpt lat="45.68453" lon="6.34441">
        <ele>600</ele>
        <time>2020-06-06T13:25:27Z</time>
      </trkpt>
      <trkpt lat="45.68449" lon="6.34437">
        <ele>600</ele>
        <time>2020-06-06T13:25:32Z</time>
      </trkpt>
      <trkpt lat="45.68447" lon="6.34435">
        <ele>600</ele>
        <time>2020-06-06T13:25:34Z</time>
      </trkpt>
      <trkpt lat="45.68445" lon="6.34433">
        <ele>599</ele>
        <time>2020-06-06T13:25:36Z</time>
      </trkpt>
      <trkpt lat="45.68442" lon="6.34427">
        <ele>599</ele>
        <time>2020-06-06T13:25:40Z</time>
      </trkpt>
      <trkpt lat="45.68439" lon="6.34423">
        <ele>598</ele>
        <time>2020-06-06T13:25:42Z</time>
      </trkpt>
      <trkpt lat="45.68439" lon="6.3442">
        <ele>598</ele>
        <time>2020-06-06T13:25:45Z</time>
      </trkpt>
      <trkpt lat="45.68438" lon="6.34417">
        <ele>598</ele>
        <time>2020-06-06T13:25:47Z</time>
      </trkpt>
      <trkpt lat="45.68439" lon="6.34413">
        <ele>598</ele>
        <time>2020-06-06T13:25:49Z</time>
      </trkpt>
      <trkpt lat="45.68438" lon="6.34409">
        <ele>598</ele>
        <time>2020-06-06T13:25:51Z</time>
      </trkpt>
      <trkpt lat="45.68436" lon="6.34406">
        <ele>598</ele>
        <time>2020-06-06T13:25:55Z</time>
      </trkpt>
      <trkpt lat="45.68436" lon="6.34403">
        <ele>598</ele>
        <time>2020-06-06T13:25:57Z</time>
      </trkpt>
      <trkpt lat="45.68436" lon="6.344">
        <ele>598</ele>
        <time>2020-06-06T13:25:59Z</time>
      </trkpt>
      <trkpt lat="45.68436" lon="6.34397">
        <ele>598</ele>
        <time>2020-06-06T13:26:01Z</time>
      </trkpt>
      <trkpt lat="45.68434" lon="6.34393">
        <ele>599</ele>
        <time>2020-06-06T13:26:03Z</time>
      </trkpt>
      <trkpt lat="45.68433" lon="6.3439">
        <ele>600</ele>
        <time>2020-06-06T13:26:06Z</time>
      </trkpt>
      <trkpt lat="45.68433" lon="6.34386">
        <ele>601</ele>
        <time>2020-06-06T13:26:08Z</time>
      </trkpt>
      <trkpt lat="45.68432" lon="6.34382">
        <ele>603</ele>
        <time>2020-06-06T13:26:10Z</time>
      </trkpt>
      <trkpt lat="45.68431" lon="6.34374">
        <ele>604</ele>
        <time>2020-06-06T13:26:15Z</time>
      </trkpt>
      <trkpt lat="45.6843" lon="6.34367">
        <ele>605</ele>
        <time>2020-06-06T13:26:19Z</time>
      </trkpt>
      <trkpt lat="45.68428" lon="6.34364">
        <ele>606</ele>
        <time>2020-06-06T13:26:23Z</time>
      </trkpt>
      <trkpt lat="45.68428" lon="6.34362">
        <ele>606</ele>
        <time>2020-06-06T13:26:25Z</time>
      </trkpt>
      <trkpt lat="45.68427" lon="6.34355">
        <ele>607</ele>
        <time>2020-06-06T13:26:32Z</time>
      </trkpt>
      <trkpt lat="45.68426" lon="6.34352">
        <ele>607</ele>
        <time>2020-06-06T13:26:34Z</time>
      </trkpt>
      <trkpt lat="45.68423" lon="6.3435">
        <ele>608</ele>
        <time>2020-06-06T13:26:36Z</time>
      </trkpt>
      <trkpt lat="45.68421" lon="6.34349">
        <ele>608</ele>
        <time>2020-06-06T13:26:38Z</time>
      </trkpt>
      <trkpt lat="45.68421" lon="6.34345">
        <ele>609</ele>
        <time>2020-06-06T13:26:41Z</time>
      </trkpt>
      <trkpt lat="45.6842" lon="6.34342">
        <ele>608</ele>
        <time>2020-06-06T13:26:43Z</time>
      </trkpt>
      <trkpt lat="45.68414" lon="6.34328">
        <ele>608</ele>
        <time>2020-06-06T13:26:58Z</time>
      </trkpt>
      <trkpt lat="45.68413" lon="6.34325">
        <ele>608</ele>
        <time>2020-06-06T13:27:00Z</time>
      </trkpt>
      <trkpt lat="45.68412" lon="6.34321">
        <ele>608</ele>
        <time>2020-06-06T13:27:03Z</time>
      </trkpt>
      <trkpt lat="45.68411" lon="6.34318">
        <ele>608</ele>
        <time>2020-06-06T13:27:05Z</time>
      </trkpt>
      <trkpt lat="45.6841" lon="6.34315">
        <ele>609</ele>
        <time>2020-06-06T13:27:07Z</time>
      </trkpt>
      <trkpt lat="45.68409" lon="6.34314">
        <ele>609</ele>
        <time>2020-06-06T13:27:09Z</time>
      </trkpt>
      <trkpt lat="45.68407" lon="6.34311">
        <ele>608</ele>
        <time>2020-06-06T13:27:12Z</time>
      </trkpt>
      <trkpt lat="45.68406" lon="6.34309">
        <ele>608</ele>
        <time>2020-06-06T13:27:14Z</time>
      </trkpt>
      <trkpt lat="45.68404" lon="6.34307">
        <ele>608</ele>
        <time>2020-06-06T13:27:16Z</time>
      </trkpt>
      <trkpt lat="45.68401" lon="6.34297">
        <ele>610</ele>
        <time>2020-06-06T13:27:22Z</time>
      </trkpt>
      <trkpt lat="45.68399" lon="6.3429">
        <ele>611</ele>
        <time>2020-06-06T13:27:29Z</time>
      </trkpt>
      <trkpt lat="45.68396" lon="6.34286">
        <ele>612</ele>
        <time>2020-06-06T13:27:37Z</time>
      </trkpt>
      <trkpt lat="45.68394" lon="6.34283">
        <ele>612</ele>
        <time>2020-06-06T13:27:39Z</time>
      </trkpt>
      <trkpt lat="45.68387" lon="6.34278">
        <ele>613</ele>
        <time>2020-06-06T13:27:45Z</time>
      </trkpt>
      <trkpt lat="45.68385" lon="6.34275">
        <ele>613</ele>
        <time>2020-06-06T13:27:47Z</time>
      </trkpt>
      <trkpt lat="45.68383" lon="6.34268">
        <ele>613</ele>
        <time>2020-06-06T13:27:51Z</time>
      </trkpt>
      <trkpt lat="45.68382" lon="6.34265">
        <ele>613</ele>
        <time>2020-06-06T13:27:53Z</time>
      </trkpt>
      <trkpt lat="45.68381" lon="6.34261">
        <ele>613</ele>
        <time>2020-06-06T13:27:55Z</time>
      </trkpt>
      <trkpt lat="45.6838" lon="6.34258">
        <ele>614</ele>
        <time>2020-06-06T13:27:58Z</time>
      </trkpt>
      <trkpt lat="45.68379" lon="6.34254">
        <ele>615</ele>
        <time>2020-06-06T13:28:01Z</time>
      </trkpt>
      <trkpt lat="45.68379" lon="6.34252">
        <ele>615</ele>
        <time>2020-06-06T13:28:02Z</time>
      </trkpt>
      <trkpt lat="45.68379" lon="6.34249">
        <ele>615</ele>
        <time>2020-06-06T13:28:04Z</time>
      </trkpt>
      <trkpt lat="45.68379" lon="6.34246">
        <ele>614</ele>
        <time>2020-06-06T13:28:06Z</time>
      </trkpt>
      <trkpt lat="45.6838" lon="6.34243">
        <ele>614</ele>
        <time>2020-06-06T13:28:08Z</time>
      </trkpt>
      <trkpt lat="45.6838" lon="6.34239">
        <ele>614</ele>
        <time>2020-06-06T13:28:10Z</time>
      </trkpt>
      <trkpt lat="45.6838" lon="6.34236">
        <ele>613</ele>
        <time>2020-06-06T13:28:12Z</time>
      </trkpt>
      <trkpt lat="45.68379" lon="6.34233">
        <ele>613</ele>
        <time>2020-06-06T13:28:14Z</time>
      </trkpt>
      <trkpt lat="45.68376" lon="6.34232">
        <ele>611</ele>
        <time>2020-06-06T13:28:18Z</time>
      </trkpt>
      <trkpt lat="45.68375" lon="6.3423">
        <ele>610</ele>
        <time>2020-06-06T13:28:22Z</time>
      </trkpt>
      <trkpt lat="45.68372" lon="6.34226">
        <ele>609</ele>
        <time>2020-06-06T13:28:27Z</time>
      </trkpt>
      <trkpt lat="45.6837" lon="6.34223">
        <ele>609</ele>
        <time>2020-06-06T13:28:29Z</time>
      </trkpt>
      <trkpt lat="45.68366" lon="6.34215">
        <ele>609</ele>
        <time>2020-06-06T13:28:35Z</time>
      </trkpt>
      <trkpt lat="45.68364" lon="6.34213">
        <ele>609</ele>
        <time>2020-06-06T13:28:42Z</time>
      </trkpt>
      <trkpt lat="45.68363" lon="6.3421">
        <ele>609</ele>
        <time>2020-06-06T13:28:44Z</time>
      </trkpt>
      <trkpt lat="45.6836" lon="6.34208">
        <ele>610</ele>
        <time>2020-06-06T13:28:46Z</time>
      </trkpt>
      <trkpt lat="45.6836" lon="6.34205">
        <ele>611</ele>
        <time>2020-06-06T13:28:49Z</time>
      </trkpt>
      <trkpt lat="45.68358" lon="6.34203">
        <ele>611</ele>
        <time>2020-06-06T13:28:52Z</time>
      </trkpt>
      <trkpt lat="45.68355" lon="6.34203">
        <ele>612</ele>
        <time>2020-06-06T13:28:54Z</time>
      </trkpt>
      <trkpt lat="45.68353" lon="6.34202">
        <ele>612</ele>
        <time>2020-06-06T13:28:57Z</time>
      </trkpt>
      <trkpt lat="45.68352" lon="6.34201">
        <ele>612</ele>
        <time>2020-06-06T13:29:03Z</time>
      </trkpt>
      <trkpt lat="45.68349" lon="6.34197">
        <ele>613</ele>
        <time>2020-06-06T13:29:07Z</time>
      </trkpt>
      <trkpt lat="45.68348" lon="6.34195">
        <ele>613</ele>
        <time>2020-06-06T13:29:09Z</time>
      </trkpt>
      <trkpt lat="45.68345" lon="6.34193">
        <ele>613</ele>
        <time>2020-06-06T13:29:11Z</time>
      </trkpt>
      <trkpt lat="45.68342" lon="6.34194">
        <ele>613</ele>
        <time>2020-06-06T13:29:13Z</time>
      </trkpt>
      <trkpt lat="45.6834" lon="6.34193">
        <ele>613</ele>
        <time>2020-06-06T13:29:16Z</time>
      </trkpt>
      <trkpt lat="45.68336" lon="6.34194">
        <ele>614</ele>
        <time>2020-06-06T13:29:20Z</time>
      </trkpt>
      <trkpt lat="45.68334" lon="6.34193">
        <ele>614</ele>
        <time>2020-06-06T13:29:22Z</time>
      </trkpt>
      <trkpt lat="45.68332" lon="6.34191">
        <ele>614</ele>
        <time>2020-06-06T13:29:24Z</time>
      </trkpt>
      <trkpt lat="45.6833" lon="6.34191">
        <ele>614</ele>
        <time>2020-06-06T13:29:26Z</time>
      </trkpt>
      <trkpt lat="45.68328" lon="6.34191">
        <ele>614</ele>
        <time>2020-06-06T13:29:28Z</time>
      </trkpt>
      <trkpt lat="45.68326" lon="6.3419">
        <ele>614</ele>
        <time>2020-06-06T13:29:31Z</time>
      </trkpt>
      <trkpt lat="45.68324" lon="6.3419">
        <ele>613</ele>
        <time>2020-06-06T13:29:34Z</time>
      </trkpt>
      <trkpt lat="45.68322" lon="6.34189">
        <ele>613</ele>
        <time>2020-06-06T13:29:36Z</time>
      </trkpt>
      <trkpt lat="45.68319" lon="6.34188">
        <ele>612</ele>
        <time>2020-06-06T13:29:38Z</time>
      </trkpt>
      <trkpt lat="45.68316" lon="6.34187">
        <ele>612</ele>
        <time>2020-06-06T13:29:40Z</time>
      </trkpt>
      <trkpt lat="45.68315" lon="6.34185">
        <ele>611</ele>
        <time>2020-06-06T13:29:42Z</time>
      </trkpt>
      <trkpt lat="45.68313" lon="6.34184">
        <ele>611</ele>
        <time>2020-06-06T13:29:44Z</time>
      </trkpt>
      <trkpt lat="45.68311" lon="6.34183">
        <ele>610</ele>
        <time>2020-06-06T13:29:48Z</time>
      </trkpt>
      <trkpt lat="45.68309" lon="6.3418">
        <ele>609</ele>
        <time>2020-06-06T13:29:52Z</time>
      </trkpt>
      <trkpt lat="45.68307" lon="6.34179">
        <ele>609</ele>
        <time>2020-06-06T13:29:54Z</time>
      </trkpt>
      <trkpt lat="45.68305" lon="6.34179">
        <ele>609</ele>
        <time>2020-06-06T13:29:56Z</time>
      </trkpt>
      <trkpt lat="45.68303" lon="6.34179">
        <ele>610</ele>
        <time>2020-06-06T13:30:02Z</time>
      </trkpt>
      <trkpt lat="45.683" lon="6.34177">
        <ele>610</ele>
        <time>2020-06-06T13:30:05Z</time>
      </trkpt>
      <trkpt lat="45.68297" lon="6.34177">
        <ele>609</ele>
        <time>2020-06-06T13:30:07Z</time>
      </trkpt>
      <trkpt lat="45.68295" lon="6.34175">
        <ele>609</ele>
        <time>2020-06-06T13:30:10Z</time>
      </trkpt>
      <trkpt lat="45.68292" lon="6.34174">
        <ele>609</ele>
        <time>2020-06-06T13:30:13Z</time>
      </trkpt>
      <trkpt lat="45.6829" lon="6.34174">
        <ele>609</ele>
        <time>2020-06-06T13:30:16Z</time>
      </trkpt>
      <trkpt lat="45.68288" lon="6.34174">
        <ele>609</ele>
        <time>2020-06-06T13:30:19Z</time>
      </trkpt>
      <trkpt lat="45.68286" lon="6.34174">
        <ele>609</ele>
        <time>2020-06-06T13:30:24Z</time>
      </trkpt>
      <trkpt lat="45.68287" lon="6.34173">
        <ele>607</ele>
        <time>2020-06-06T13:30:45Z</time>
      </trkpt>
      <trkpt lat="45.68285" lon="6.34172">
        <ele>601</ele>
        <time>2020-06-06T13:30:48Z</time>
      </trkpt>
      <trkpt lat="45.68282" lon="6.34173">
        <ele>599</ele>
        <time>2020-06-06T13:30:50Z</time>
      </trkpt>
      <trkpt lat="45.6828" lon="6.34172">
        <ele>597</ele>
        <time>2020-06-06T13:30:51Z</time>
      </trkpt>
      <trkpt lat="45.68279" lon="6.34173">
        <ele>595</ele>
        <time>2020-06-06T13:30:53Z</time>
      </trkpt>
      <trkpt lat="45.68276" lon="6.34173">
        <ele>594</ele>
        <time>2020-06-06T13:30:55Z</time>
      </trkpt>
      <trkpt lat="45.68274" lon="6.34173">
        <ele>593</ele>
        <time>2020-06-06T13:30:57Z</time>
      </trkpt>
      <trkpt lat="45.68271" lon="6.34174">
        <ele>592</ele>
        <time>2020-06-06T13:31:00Z</time>
      </trkpt>
      <trkpt lat="45.68268" lon="6.34175">
        <ele>592</ele>
        <time>2020-06-06T13:31:02Z</time>
      </trkpt>
      <trkpt lat="45.68266" lon="6.34174">
        <ele>592</ele>
        <time>2020-06-06T13:31:04Z</time>
      </trkpt>
      <trkpt lat="45.68264" lon="6.34173">
        <ele>591</ele>
        <time>2020-06-06T13:31:07Z</time>
      </trkpt>
      <trkpt lat="45.68262" lon="6.34171">
        <ele>591</ele>
        <time>2020-06-06T13:31:10Z</time>
      </trkpt>
      <trkpt lat="45.68262" lon="6.34169">
        <ele>589</ele>
        <time>2020-06-06T13:31:13Z</time>
      </trkpt>
      <trkpt lat="45.68255" lon="6.34167">
        <ele>585</ele>
        <time>2020-06-06T13:31:20Z</time>
      </trkpt>
      <trkpt lat="45.68254" lon="6.34165">
        <ele>585</ele>
        <time>2020-06-06T13:31:22Z</time>
      </trkpt>
      <trkpt lat="45.68247" lon="6.34156">
        <ele>581</ele>
        <time>2020-06-06T13:31:30Z</time>
      </trkpt>
      <trkpt lat="45.68245" lon="6.34154">
        <ele>580</ele>
        <time>2020-06-06T13:31:32Z</time>
      </trkpt>
      <trkpt lat="45.68243" lon="6.34152">
        <ele>579</ele>
        <time>2020-06-06T13:31:34Z</time>
      </trkpt>
      <trkpt lat="45.6824" lon="6.34149">
        <ele>578</ele>
        <time>2020-06-06T13:31:37Z</time>
      </trkpt>
      <trkpt lat="45.68236" lon="6.34145">
        <ele>578</ele>
        <time>2020-06-06T13:31:42Z</time>
      </trkpt>
      <trkpt lat="45.68235" lon="6.34143">
        <ele>578</ele>
        <time>2020-06-06T13:31:44Z</time>
      </trkpt>
      <trkpt lat="45.68233" lon="6.3414">
        <ele>578</ele>
        <time>2020-06-06T13:31:46Z</time>
      </trkpt>
      <trkpt lat="45.68232" lon="6.34139">
        <ele>577</ele>
        <time>2020-06-06T13:31:50Z</time>
      </trkpt>
      <trkpt lat="45.6823" lon="6.34137">
        <ele>577</ele>
        <time>2020-06-06T13:31:53Z</time>
      </trkpt>
      <trkpt lat="45.68227" lon="6.34133">
        <ele>576</ele>
        <time>2020-06-06T13:31:57Z</time>
      </trkpt>
      <trkpt lat="45.68226" lon="6.34132">
        <ele>576</ele>
        <time>2020-06-06T13:31:59Z</time>
      </trkpt>
      <trkpt lat="45.68219" lon="6.34128">
        <ele>576</ele>
        <time>2020-06-06T13:32:04Z</time>
      </trkpt>
      <trkpt lat="45.68215" lon="6.34124">
        <ele>575</ele>
        <time>2020-06-06T13:32:07Z</time>
      </trkpt>
      <trkpt lat="45.68213" lon="6.34122">
        <ele>574</ele>
        <time>2020-06-06T13:32:09Z</time>
      </trkpt>
      <trkpt lat="45.68213" lon="6.34118">
        <ele>573</ele>
        <time>2020-06-06T13:32:11Z</time>
      </trkpt>
      <trkpt lat="45.68211" lon="6.34117">
        <ele>572</ele>
        <time>2020-06-06T13:32:13Z</time>
      </trkpt>
      <trkpt lat="45.68211" lon="6.34115">
        <ele>571</ele>
        <time>2020-06-06T13:32:15Z</time>
      </trkpt>
      <trkpt lat="45.68209" lon="6.34114">
        <ele>570</ele>
        <time>2020-06-06T13:32:17Z</time>
      </trkpt>
      <trkpt lat="45.68208" lon="6.34112">
        <ele>569</ele>
        <time>2020-06-06T13:32:19Z</time>
      </trkpt>
      <trkpt lat="45.68206" lon="6.34109">
        <ele>569</ele>
        <time>2020-06-06T13:32:21Z</time>
      </trkpt>
      <trkpt lat="45.68204" lon="6.34107">
        <ele>569</ele>
        <time>2020-06-06T13:32:23Z</time>
      </trkpt>
      <trkpt lat="45.68201" lon="6.34103">
        <ele>568</ele>
        <time>2020-06-06T13:32:26Z</time>
      </trkpt>
      <trkpt lat="45.682" lon="6.341">
        <ele>568</ele>
        <time>2020-06-06T13:32:27Z</time>
      </trkpt>
      <trkpt lat="45.68198" lon="6.34098">
        <ele>567</ele>
        <time>2020-06-06T13:32:29Z</time>
      </trkpt>
      <trkpt lat="45.68195" lon="6.34093">
        <ele>568</ele>
        <time>2020-06-06T13:32:33Z</time>
      </trkpt>
      <trkpt lat="45.68194" lon="6.34092">
        <ele>567</ele>
        <time>2020-06-06T13:32:35Z</time>
      </trkpt>
      <trkpt lat="45.68192" lon="6.34092">
        <ele>567</ele>
        <time>2020-06-06T13:32:37Z</time>
      </trkpt>
      <trkpt lat="45.68191" lon="6.3409">
        <ele>568</ele>
        <time>2020-06-06T13:32:39Z</time>
      </trkpt>
      <trkpt lat="45.68189" lon="6.34088">
        <ele>568</ele>
        <time>2020-06-06T13:32:41Z</time>
      </trkpt>
      <trkpt lat="45.68183" lon="6.34078">
        <ele>568</ele>
        <time>2020-06-06T13:32:49Z</time>
      </trkpt>
      <trkpt lat="45.68181" lon="6.34077">
        <ele>567</ele>
        <time>2020-06-06T13:32:51Z</time>
      </trkpt>
      <trkpt lat="45.68179" lon="6.34075">
        <ele>567</ele>
        <time>2020-06-06T13:32:53Z</time>
      </trkpt>
      <trkpt lat="45.68178" lon="6.34074">
        <ele>567</ele>
        <time>2020-06-06T13:32:54Z</time>
      </trkpt>
      <trkpt lat="45.68176" lon="6.34072">
        <ele>567</ele>
        <time>2020-06-06T13:32:56Z</time>
      </trkpt>
      <trkpt lat="45.68175" lon="6.34071">
        <ele>566</ele>
        <time>2020-06-06T13:32:58Z</time>
      </trkpt>
      <trkpt lat="45.68173" lon="6.3407">
        <ele>566</ele>
        <time>2020-06-06T13:33:00Z</time>
      </trkpt>
      <trkpt lat="45.68171" lon="6.3407">
        <ele>565</ele>
        <time>2020-06-06T13:33:02Z</time>
      </trkpt>
      <trkpt lat="45.6817" lon="6.34069">
        <ele>565</ele>
        <time>2020-06-06T13:33:03Z</time>
      </trkpt>
      <trkpt lat="45.68168" lon="6.34068">
        <ele>565</ele>
        <time>2020-06-06T13:33:05Z</time>
      </trkpt>
      <trkpt lat="45.68166" lon="6.34066">
        <ele>565</ele>
        <time>2020-06-06T13:33:07Z</time>
      </trkpt>
      <trkpt lat="45.68165" lon="6.34064">
        <ele>565</ele>
        <time>2020-06-06T13:33:08Z</time>
      </trkpt>
      <trkpt lat="45.68163" lon="6.34063">
        <ele>565</ele>
        <time>2020-06-06T13:33:10Z</time>
      </trkpt>
      <trkpt lat="45.68161" lon="6.34062">
        <ele>565</ele>
        <time>2020-06-06T13:33:12Z</time>
      </trkpt>
      <trkpt lat="45.6816" lon="6.34059">
        <ele>564</ele>
        <time>2020-06-06T13:33:13Z</time>
      </trkpt>
      <trkpt lat="45.68158" lon="6.34056">
        <ele>564</ele>
        <time>2020-06-06T13:33:15Z</time>
      </trkpt>
      <trkpt lat="45.68156" lon="6.34054">
        <ele>563</ele>
        <time>2020-06-06T13:33:17Z</time>
      </trkpt>
      <trkpt lat="45.68154" lon="6.34053">
        <ele>563</ele>
        <time>2020-06-06T13:33:19Z</time>
      </trkpt>
      <trkpt lat="45.68152" lon="6.34052">
        <ele>562</ele>
        <time>2020-06-06T13:33:21Z</time>
      </trkpt>
      <trkpt lat="45.6815" lon="6.34054">
        <ele>562</ele>
        <time>2020-06-06T13:33:23Z</time>
      </trkpt>
      <trkpt lat="45.68148" lon="6.34055">
        <ele>562</ele>
        <time>2020-06-06T13:33:25Z</time>
      </trkpt>
      <trkpt lat="45.68146" lon="6.34053">
        <ele>562</ele>
        <time>2020-06-06T13:33:27Z</time>
      </trkpt>
      <trkpt lat="45.68145" lon="6.34051">
        <ele>562</ele>
        <time>2020-06-06T13:33:29Z</time>
      </trkpt>
      <trkpt lat="45.68144" lon="6.34047">
        <ele>562</ele>
        <time>2020-06-06T13:33:31Z</time>
      </trkpt>
      <trkpt lat="45.68143" lon="6.34045">
        <ele>563</ele>
        <time>2020-06-06T13:33:33Z</time>
      </trkpt>
      <trkpt lat="45.68142" lon="6.34043">
        <ele>563</ele>
        <time>2020-06-06T13:33:35Z</time>
      </trkpt>
      <trkpt lat="45.6814" lon="6.34042">
        <ele>564</ele>
        <time>2020-06-06T13:33:37Z</time>
      </trkpt>
      <trkpt lat="45.68138" lon="6.3404">
        <ele>564</ele>
        <time>2020-06-06T13:33:39Z</time>
      </trkpt>
      <trkpt lat="45.68136" lon="6.34038">
        <ele>565</ele>
        <time>2020-06-06T13:33:41Z</time>
      </trkpt>
      <trkpt lat="45.68134" lon="6.34037">
        <ele>565</ele>
        <time>2020-06-06T13:33:43Z</time>
      </trkpt>
      <trkpt lat="45.68132" lon="6.34035">
        <ele>566</ele>
        <time>2020-06-06T13:33:45Z</time>
      </trkpt>
      <trkpt lat="45.6813" lon="6.34032">
        <ele>566</ele>
        <time>2020-06-06T13:33:47Z</time>
      </trkpt>
      <trkpt lat="45.6813" lon="6.3403">
        <ele>566</ele>
        <time>2020-06-06T13:33:48Z</time>
      </trkpt>
      <trkpt lat="45.68129" lon="6.34028">
        <ele>566</ele>
        <time>2020-06-06T13:33:49Z</time>
      </trkpt>
      <trkpt lat="45.68125" lon="6.34024">
        <ele>566</ele>
        <time>2020-06-06T13:33:53Z</time>
      </trkpt>
      <trkpt lat="45.68124" lon="6.34022">
        <ele>565</ele>
        <time>2020-06-06T13:33:55Z</time>
      </trkpt>
      <trkpt lat="45.6812" lon="6.34024">
        <ele>564</ele>
        <time>2020-06-06T13:33:59Z</time>
      </trkpt>
      <trkpt lat="45.68118" lon="6.34023">
        <ele>564</ele>
        <time>2020-06-06T13:34:01Z</time>
      </trkpt>
      <trkpt lat="45.68117" lon="6.34022">
        <ele>564</ele>
        <time>2020-06-06T13:34:03Z</time>
      </trkpt>
      <trkpt lat="45.68117" lon="6.34015">
        <ele>565</ele>
        <time>2020-06-06T13:34:08Z</time>
      </trkpt>
      <trkpt lat="45.68114" lon="6.3401">
        <ele>565</ele>
        <time>2020-06-06T13:34:12Z</time>
      </trkpt>
      <trkpt lat="45.68112" lon="6.34008">
        <ele>565</ele>
        <time>2020-06-06T13:34:14Z</time>
      </trkpt>
      <trkpt lat="45.68107" lon="6.34002">
        <ele>566</ele>
        <time>2020-06-06T13:34:20Z</time>
      </trkpt>
      <trkpt lat="45.68105" lon="6.34">
        <ele>566</ele>
        <time>2020-06-06T13:34:22Z</time>
      </trkpt>
      <trkpt lat="45.68104" lon="6.33998">
        <ele>566</ele>
        <time>2020-06-06T13:34:24Z</time>
      </trkpt>
      <trkpt lat="45.68097" lon="6.33968">
        <ele>560</ele>
        <time>2020-06-06T13:34:39Z</time>
      </trkpt>
      <trkpt lat="45.68091" lon="6.33948">
        <ele>552</ele>
        <time>2020-06-06T13:34:52Z</time>
      </trkpt>
      <trkpt lat="45.68089" lon="6.33938">
        <ele>550</ele>
        <time>2020-06-06T13:34:58Z</time>
      </trkpt>
      <trkpt lat="45.68088" lon="6.33931">
        <ele>550</ele>
        <time>2020-06-06T13:35:02Z</time>
      </trkpt>
      <trkpt lat="45.68087" lon="6.33929">
        <ele>550</ele>
        <time>2020-06-06T13:35:04Z</time>
      </trkpt>
      <trkpt lat="45.68085" lon="6.33926">
        <ele>552</ele>
        <time>2020-06-06T13:35:07Z</time>
      </trkpt>
      <trkpt lat="45.68084" lon="6.33922">
        <ele>553</ele>
        <time>2020-06-06T13:35:09Z</time>
      </trkpt>
      <trkpt lat="45.68083" lon="6.33921">
        <ele>553</ele>
        <time>2020-06-06T13:35:11Z</time>
      </trkpt>
      <trkpt lat="45.68077" lon="6.33896">
        <ele>552</ele>
        <time>2020-06-06T13:35:32Z</time>
      </trkpt>
      <trkpt lat="45.68077" lon="6.33894">
        <ele>551</ele>
        <time>2020-06-06T13:35:34Z</time>
      </trkpt>
      <trkpt lat="45.68074" lon="6.33888">
        <ele>550</ele>
        <time>2020-06-06T13:35:39Z</time>
      </trkpt>
      <trkpt lat="45.68073" lon="6.33886">
        <ele>550</ele>
        <time>2020-06-06T13:35:41Z</time>
      </trkpt>
      <trkpt lat="45.68062" lon="6.3386">
        <ele>553</ele>
        <time>2020-06-06T13:36:05Z</time>
      </trkpt>
      <trkpt lat="45.68061" lon="6.33859">
        <ele>553</ele>
        <time>2020-06-06T13:36:07Z</time>
      </trkpt>
      <trkpt lat="45.6806" lon="6.33858">
        <ele>554</ele>
        <time>2020-06-06T13:36:09Z</time>
      </trkpt>
      <trkpt lat="45.68059" lon="6.33854">
        <ele>555</ele>
        <time>2020-06-06T13:36:11Z</time>
      </trkpt>
      <trkpt lat="45.6806" lon="6.33853">
        <ele>556</ele>
        <time>2020-06-06T13:36:16Z</time>
      </trkpt>
      <trkpt lat="45.68058" lon="6.33847">
        <ele>559</ele>
        <time>2020-06-06T13:36:37Z</time>
      </trkpt>
      <trkpt lat="45.68057" lon="6.33845">
        <ele>560</ele>
        <time>2020-06-06T13:36:39Z</time>
      </trkpt>
      <trkpt lat="45.68056" lon="6.33844">
        <ele>560</ele>
        <time>2020-06-06T13:36:41Z</time>
      </trkpt>
      <trkpt lat="45.68053" lon="6.33839">
        <ele>562</ele>
        <time>2020-06-06T13:36:47Z</time>
      </trkpt>
      <trkpt lat="45.68051" lon="6.33836">
        <ele>562</ele>
        <time>2020-06-06T13:36:51Z</time>
      </trkpt>
      <trkpt lat="45.6805" lon="6.33834">
        <ele>562</ele>
        <time>2020-06-06T13:36:53Z</time>
      </trkpt>
      <trkpt lat="45.68049" lon="6.33833">
        <ele>563</ele>
        <time>2020-06-06T13:36:55Z</time>
      </trkpt>
      <trkpt lat="45.68048" lon="6.3383">
        <ele>563</ele>
        <time>2020-06-06T13:36:57Z</time>
      </trkpt>
      <trkpt lat="45.68047" lon="6.33829">
        <ele>563</ele>
        <time>2020-06-06T13:36:59Z</time>
      </trkpt>
      <trkpt lat="45.68047" lon="6.33826">
        <ele>563</ele>
        <time>2020-06-06T13:37:01Z</time>
      </trkpt>
      <trkpt lat="45.68044" lon="6.33822">
        <ele>564</ele>
        <time>2020-06-06T13:37:05Z</time>
      </trkpt>
      <trkpt lat="45.68037" lon="6.33807">
        <ele>565</ele>
        <time>2020-06-06T13:37:19Z</time>
      </trkpt>
      <trkpt lat="45.68036" lon="6.33805">
        <ele>565</ele>
        <time>2020-06-06T13:37:21Z</time>
      </trkpt>
      <trkpt lat="45.68035" lon="6.33803">
        <ele>566</ele>
        <time>2020-06-06T13:37:25Z</time>
      </trkpt>
      <trkpt lat="45.68034" lon="6.33801">
        <ele>567</ele>
        <time>2020-06-06T13:37:29Z</time>
      </trkpt>
      <trkpt lat="45.68034" lon="6.33799">
        <ele>567</ele>
        <time>2020-06-06T13:37:31Z</time>
      </trkpt>
      <trkpt lat="45.68033" lon="6.33795">
        <ele>567</ele>
        <time>2020-06-06T13:37:36Z</time>
      </trkpt>
      <trkpt lat="45.68032" lon="6.33792">
        <ele>567</ele>
        <time>2020-06-06T13:37:38Z</time>
      </trkpt>
      <trkpt lat="45.68031" lon="6.3379">
        <ele>567</ele>
        <time>2020-06-06T13:37:40Z</time>
      </trkpt>
      <trkpt lat="45.6803" lon="6.33789">
        <ele>567</ele>
        <time>2020-06-06T13:37:42Z</time>
      </trkpt>
      <trkpt lat="45.68029" lon="6.3379">
        <ele>568</ele>
        <time>2020-06-06T13:37:45Z</time>
      </trkpt>
      <trkpt lat="45.68028" lon="6.33789">
        <ele>569</ele>
        <time>2020-06-06T13:37:49Z</time>
      </trkpt>
      <trkpt lat="45.68026" lon="6.33786">
        <ele>574</ele>
        <time>2020-06-06T13:38:07Z</time>
      </trkpt>
      <trkpt lat="45.68026" lon="6.33785">
        <ele>575</ele>
        <time>2020-06-06T13:38:09Z</time>
      </trkpt>
      <trkpt lat="45.68025" lon="6.33782">
        <ele>576</ele>
        <time>2020-06-06T13:38:12Z</time>
      </trkpt>
      <trkpt lat="45.68024" lon="6.3378">
        <ele>576</ele>
        <time>2020-06-06T13:38:14Z</time>
      </trkpt>
      <trkpt lat="45.68023" lon="6.33778">
        <ele>575</ele>
        <time>2020-06-06T13:38:16Z</time>
      </trkpt>
      <trkpt lat="45.68023" lon="6.33776">
        <ele>575</ele>
        <time>2020-06-06T13:38:17Z</time>
      </trkpt>
      <trkpt lat="45.68022" lon="6.33774">
        <ele>575</ele>
        <time>2020-06-06T13:38:18Z</time>
      </trkpt>
      <trkpt lat="45.68021" lon="6.33773">
        <ele>575</ele>
        <time>2020-06-06T13:38:20Z</time>
      </trkpt>
      <trkpt lat="45.6802" lon="6.33771">
        <ele>574</ele>
        <time>2020-06-06T13:38:22Z</time>
      </trkpt>
      <trkpt lat="45.68018" lon="6.33766">
        <ele>574</ele>
        <time>2020-06-06T13:38:28Z</time>
      </trkpt>
      <trkpt lat="45.68016" lon="6.33762">
        <ele>573</ele>
        <time>2020-06-06T13:38:32Z</time>
      </trkpt>
      <trkpt lat="45.68015" lon="6.3376">
        <ele>573</ele>
        <time>2020-06-06T13:38:34Z</time>
      </trkpt>
      <trkpt lat="45.68012" lon="6.33752">
        <ele>572</ele>
        <time>2020-06-06T13:38:42Z</time>
      </trkpt>
      <trkpt lat="45.68011" lon="6.33749">
        <ele>571</ele>
        <time>2020-06-06T13:38:44Z</time>
      </trkpt>
      <trkpt lat="45.6801" lon="6.33747">
        <ele>571</ele>
        <time>2020-06-06T13:38:46Z</time>
      </trkpt>
      <trkpt lat="45.68008" lon="6.33742">
        <ele>572</ele>
        <time>2020-06-06T13:38:51Z</time>
      </trkpt>
      <trkpt lat="45.68007" lon="6.33739">
        <ele>572</ele>
        <time>2020-06-06T13:38:53Z</time>
      </trkpt>
      <trkpt lat="45.68005" lon="6.33735">
        <ele>573</ele>
        <time>2020-06-06T13:38:59Z</time>
      </trkpt>
      <trkpt lat="45.68001" lon="6.33717">
        <ele>575</ele>
        <time>2020-06-06T13:39:15Z</time>
      </trkpt>
      <trkpt lat="45.68" lon="6.33714">
        <ele>575</ele>
        <time>2020-06-06T13:39:17Z</time>
      </trkpt>
      <trkpt lat="45.67998" lon="6.33711">
        <ele>576</ele>
        <time>2020-06-06T13:39:21Z</time>
      </trkpt>
      <trkpt lat="45.67998" lon="6.33709">
        <ele>576</ele>
        <time>2020-06-06T13:39:23Z</time>
      </trkpt>
      <trkpt lat="45.67996" lon="6.33706">
        <ele>577</ele>
        <time>2020-06-06T13:39:26Z</time>
      </trkpt>
      <trkpt lat="45.67995" lon="6.33705">
        <ele>577</ele>
        <time>2020-06-06T13:39:29Z</time>
      </trkpt>
      <trkpt lat="45.67994" lon="6.33702">
        <ele>578</ele>
        <time>2020-06-06T13:39:31Z</time>
      </trkpt>
      <trkpt lat="45.67993" lon="6.337">
        <ele>578</ele>
        <time>2020-06-06T13:39:33Z</time>
      </trkpt>
      <trkpt lat="45.67992" lon="6.33697">
        <ele>578</ele>
        <time>2020-06-06T13:39:35Z</time>
      </trkpt>
      <trkpt lat="45.6799" lon="6.33693">
        <ele>578</ele>
        <time>2020-06-06T13:39:39Z</time>
      </trkpt>
      <trkpt lat="45.6798" lon="6.3367">
        <ele>581</ele>
        <time>2020-06-06T13:39:57Z</time>
      </trkpt>
      <trkpt lat="45.67978" lon="6.33668">
        <ele>581</ele>
        <time>2020-06-06T13:39:59Z</time>
      </trkpt>
      <trkpt lat="45.67977" lon="6.33665">
        <ele>581</ele>
        <time>2020-06-06T13:40:01Z</time>
      </trkpt>
      <trkpt lat="45.67975" lon="6.33663">
        <ele>582</ele>
        <time>2020-06-06T13:40:03Z</time>
      </trkpt>
      <trkpt lat="45.67974" lon="6.33661">
        <ele>582</ele>
        <time>2020-06-06T13:40:05Z</time>
      </trkpt>
      <trkpt lat="45.67973" lon="6.33659">
        <ele>581</ele>
        <time>2020-06-06T13:40:07Z</time>
      </trkpt>
      <trkpt lat="45.67972" lon="6.33656">
        <ele>582</ele>
        <time>2020-06-06T13:40:09Z</time>
      </trkpt>
      <trkpt lat="45.67971" lon="6.33653">
        <ele>582</ele>
        <time>2020-06-06T13:40:11Z</time>
      </trkpt>
      <trkpt lat="45.6797" lon="6.3365">
        <ele>583</ele>
        <time>2020-06-06T13:40:13Z</time>
      </trkpt>
      <trkpt lat="45.67969" lon="6.33648">
        <ele>583</ele>
        <time>2020-06-06T13:40:14Z</time>
      </trkpt>
      <trkpt lat="45.67968" lon="6.33646">
        <ele>582</ele>
        <time>2020-06-06T13:40:16Z</time>
      </trkpt>
      <trkpt lat="45.67967" lon="6.33644">
        <ele>582</ele>
        <time>2020-06-06T13:40:18Z</time>
      </trkpt>
      <trkpt lat="45.6796" lon="6.33632">
        <ele>578</ele>
        <time>2020-06-06T13:40:28Z</time>
      </trkpt>
      <trkpt lat="45.67958" lon="6.3363">
        <ele>578</ele>
        <time>2020-06-06T13:40:30Z</time>
      </trkpt>
      <trkpt lat="45.67947" lon="6.33614">
        <ele>576</ele>
        <time>2020-06-06T13:40:46Z</time>
      </trkpt>
      <trkpt lat="45.67946" lon="6.33613">
        <ele>576</ele>
        <time>2020-06-06T13:40:48Z</time>
      </trkpt>
      <trkpt lat="45.67942" lon="6.33611">
        <ele>576</ele>
        <time>2020-06-06T13:40:52Z</time>
      </trkpt>
      <trkpt lat="45.67941" lon="6.33608">
        <ele>576</ele>
        <time>2020-06-06T13:40:54Z</time>
      </trkpt>
      <trkpt lat="45.6794" lon="6.33606">
        <ele>576</ele>
        <time>2020-06-06T13:40:56Z</time>
      </trkpt>
      <trkpt lat="45.67939" lon="6.33604">
        <ele>576</ele>
        <time>2020-06-06T13:40:58Z</time>
      </trkpt>
      <trkpt lat="45.67937" lon="6.33598">
        <ele>576</ele>
        <time>2020-06-06T13:41:02Z</time>
      </trkpt>
      <trkpt lat="45.67935" lon="6.33595">
        <ele>575</ele>
        <time>2020-06-06T13:41:04Z</time>
      </trkpt>
      <trkpt lat="45.67928" lon="6.33583">
        <ele>575</ele>
        <time>2020-06-06T13:41:14Z</time>
      </trkpt>
      <trkpt lat="45.67927" lon="6.33582">
        <ele>575</ele>
        <time>2020-06-06T13:41:16Z</time>
      </trkpt>
      <trkpt lat="45.67926" lon="6.33579">
        <ele>575</ele>
        <time>2020-06-06T13:41:18Z</time>
      </trkpt>
      <trkpt lat="45.67925" lon="6.33577">
        <ele>575</ele>
        <time>2020-06-06T13:41:20Z</time>
      </trkpt>
      <trkpt lat="45.67922" lon="6.33568">
        <ele>576</ele>
        <time>2020-06-06T13:41:26Z</time>
      </trkpt>
      <trkpt lat="45.67921" lon="6.33566">
        <ele>576</ele>
        <time>2020-06-06T13:41:28Z</time>
      </trkpt>
      <trkpt lat="45.67921" lon="6.33563">
        <ele>576</ele>
        <time>2020-06-06T13:41:30Z</time>
      </trkpt>
      <trkpt lat="45.67919" lon="6.33558">
        <ele>576</ele>
        <time>2020-06-06T13:41:34Z</time>
      </trkpt>
      <trkpt lat="45.67918" lon="6.33555">
        <ele>576</ele>
        <time>2020-06-06T13:41:36Z</time>
      </trkpt>
      <trkpt lat="45.67917" lon="6.33553">
        <ele>576</ele>
        <time>2020-06-06T13:41:38Z</time>
      </trkpt>
      <trkpt lat="45.67916" lon="6.33549">
        <ele>576</ele>
        <time>2020-06-06T13:41:40Z</time>
      </trkpt>
      <trkpt lat="45.67916" lon="6.33547">
        <ele>575</ele>
        <time>2020-06-06T13:41:41Z</time>
      </trkpt>
      <trkpt lat="45.67915" lon="6.33545">
        <ele>575</ele>
        <time>2020-06-06T13:41:43Z</time>
      </trkpt>
      <trkpt lat="45.67915" lon="6.33539">
        <ele>573</ele>
        <time>2020-06-06T13:41:47Z</time>
      </trkpt>
      <trkpt lat="45.67914" lon="6.33533">
        <ele>571</ele>
        <time>2020-06-06T13:41:51Z</time>
      </trkpt>
      <trkpt lat="45.67914" lon="6.33525">
        <ele>569</ele>
        <time>2020-06-06T13:41:55Z</time>
      </trkpt>
      <trkpt lat="45.67914" lon="6.33522">
        <ele>568</ele>
        <time>2020-06-06T13:41:57Z</time>
      </trkpt>
      <trkpt lat="45.67914" lon="6.33518">
        <ele>566</ele>
        <time>2020-06-06T13:41:59Z</time>
      </trkpt>
      <trkpt lat="45.67914" lon="6.33515">
        <ele>565</ele>
        <time>2020-06-06T13:42:01Z</time>
      </trkpt>
      <trkpt lat="45.67914" lon="6.33511">
        <ele>565</ele>
        <time>2020-06-06T13:42:03Z</time>
      </trkpt>
      <trkpt lat="45.67914" lon="6.33509">
        <ele>564</ele>
        <time>2020-06-06T13:42:07Z</time>
      </trkpt>
      <trkpt lat="45.67915" lon="6.33506">
        <ele>565</ele>
        <time>2020-06-06T13:42:11Z</time>
      </trkpt>
      <trkpt lat="45.67917" lon="6.33503">
        <ele>565</ele>
        <time>2020-06-06T13:42:13Z</time>
      </trkpt>
      <trkpt lat="45.67917" lon="6.33502">
        <ele>565</ele>
        <time>2020-06-06T13:42:20Z</time>
      </trkpt>
      <trkpt lat="45.67916" lon="6.33502">
        <ele>564</ele>
        <time>2020-06-06T13:43:03Z</time>
      </trkpt>
      <trkpt lat="45.67916" lon="6.33508">
        <ele>565</ele>
        <time>2020-06-06T13:44:11Z</time>
      </trkpt>
      <trkpt lat="45.67916" lon="6.33508">
        <ele>569</ele>
        <time>2020-06-06T13:51:36Z</time>
      </trkpt>
      <trkpt lat="45.67918" lon="6.33509">
        <ele>570</ele>
        <time>2020-06-06T13:52:36Z</time>
      </trkpt>
      <trkpt lat="45.67919" lon="6.33508">
        <ele>577</ele>
        <time>2020-06-06T13:53:16Z</time>
      </trkpt>
      <trkpt lat="45.67919" lon="6.33505">
        <ele>577</ele>
        <time>2020-06-06T13:54:19Z</time>
      </trkpt>
      <trkpt lat="45.67919" lon="6.33504">
        <ele>577</ele>
        <time>2020-06-06T13:55:16Z</time>
      </trkpt>
      <trkpt lat="45.67919" lon="6.33503">
        <ele>576</ele>
        <time>2020-06-06T13:56:11Z</time>
      </trkpt>
      <trkpt lat="45.67918" lon="6.33508">
        <ele>577</ele>
        <time>2020-06-06T13:57:09Z</time>
      </trkpt>
      <trkpt lat="45.67918" lon="6.33508">
        <ele>576</ele>
        <time>2020-06-06T13:57:55Z</time>
      </trkpt>
      <trkpt lat="45.67917" lon="6.33512">
        <ele>577</ele>
        <time>2020-06-06T13:58:01Z</time>
      </trkpt>
      <trkpt lat="45.67916" lon="6.3351">
        <ele>577</ele>
        <time>2020-06-06T13:58:30Z</time>
      </trkpt>
      <trkpt lat="45.67918" lon="6.33508">
        <ele>575</ele>
        <time>2020-06-06T13:59:06Z</time>
      </trkpt>
      <trkpt lat="45.67917" lon="6.33506">
        <ele>576</ele>
        <time>2020-06-06T13:59:15Z</time>
      </trkpt>
      <trkpt lat="45.67917" lon="6.33505">
        <ele>576</ele>
        <time>2020-06-06T13:59:26Z</time>
      </trkpt>
      <trkpt lat="45.67913" lon="6.33506">
        <ele>576</ele>
        <time>2020-06-06T13:59:36Z</time>
      </trkpt>
      <trkpt lat="45.67913" lon="6.33504">
        <ele>575</ele>
        <time>2020-06-06T13:59:39Z</time>
      </trkpt>
      <trkpt lat="45.67914" lon="6.33503">
        <ele>576</ele>
        <time>2020-06-06T13:59:57Z</time>
      </trkpt>
      <trkpt lat="45.67914" lon="6.33499">
        <ele>576</ele>
        <time>2020-06-06T14:00:26Z</time>
      </trkpt>
      <trkpt lat="45.67908" lon="6.33499">
        <ele>579</ele>
        <time>2020-06-06T14:00:44Z</time>
      </trkpt>
      <trkpt lat="45.67906" lon="6.33499">
        <ele>580</ele>
        <time>2020-06-06T14:00:46Z</time>
      </trkpt>
      <trkpt lat="45.67903" lon="6.33502">
        <ele>579</ele>
        <time>2020-06-06T14:00:50Z</time>
      </trkpt>
      <trkpt lat="45.67901" lon="6.33503">
        <ele>579</ele>
        <time>2020-06-06T14:00:53Z</time>
      </trkpt>
      <trkpt lat="45.67899" lon="6.33502">
        <ele>578</ele>
        <time>2020-06-06T14:00:55Z</time>
      </trkpt>
      <trkpt lat="45.67896" lon="6.33502">
        <ele>578</ele>
        <time>2020-06-06T14:00:58Z</time>
      </trkpt>
      <trkpt lat="45.67894" lon="6.33502">
        <ele>578</ele>
        <time>2020-06-06T14:01:00Z</time>
      </trkpt>
      <trkpt lat="45.6789" lon="6.33502">
        <ele>577</ele>
        <time>2020-06-06T14:01:07Z</time>
      </trkpt>
      <trkpt lat="45.67885" lon="6.33499">
        <ele>576</ele>
        <time>2020-06-06T14:01:11Z</time>
      </trkpt>
      <trkpt lat="45.67875" lon="6.335">
        <ele>575</ele>
        <time>2020-06-06T14:01:15Z</time>
      </trkpt>
      <trkpt lat="45.67873" lon="6.335">
        <ele>574</ele>
        <time>2020-06-06T14:01:16Z</time>
      </trkpt>
      <trkpt lat="45.67867" lon="6.33502">
        <ele>572</ele>
        <time>2020-06-06T14:01:20Z</time>
      </trkpt>
      <trkpt lat="45.67862" lon="6.33504">
        <ele>571</ele>
        <time>2020-06-06T14:01:24Z</time>
      </trkpt>
      <trkpt lat="45.6786" lon="6.33505">
        <ele>570</ele>
        <time>2020-06-06T14:01:26Z</time>
      </trkpt>
      <trkpt lat="45.67853" lon="6.33506">
        <ele>568</ele>
        <time>2020-06-06T14:01:32Z</time>
      </trkpt>
      <trkpt lat="45.67851" lon="6.33505">
        <ele>566</ele>
        <time>2020-06-06T14:01:34Z</time>
      </trkpt>
      <trkpt lat="45.6785" lon="6.33503">
        <ele>566</ele>
        <time>2020-06-06T14:01:36Z</time>
      </trkpt>
      <trkpt lat="45.67848" lon="6.33502">
        <ele>564</ele>
        <time>2020-06-06T14:01:38Z</time>
      </trkpt>
      <trkpt lat="45.67843" lon="6.33504">
        <ele>562</ele>
        <time>2020-06-06T14:01:45Z</time>
      </trkpt>
      <trkpt lat="45.67841" lon="6.33505">
        <ele>562</ele>
        <time>2020-06-06T14:01:49Z</time>
      </trkpt>
      <trkpt lat="45.67839" lon="6.33507">
        <ele>561</ele>
        <time>2020-06-06T14:01:52Z</time>
      </trkpt>
      <trkpt lat="45.67836" lon="6.33508">
        <ele>561</ele>
        <time>2020-06-06T14:01:54Z</time>
      </trkpt>
      <trkpt lat="45.67827" lon="6.33509">
        <ele>558</ele>
        <time>2020-06-06T14:02:02Z</time>
      </trkpt>
      <trkpt lat="45.67824" lon="6.33508">
        <ele>557</ele>
        <time>2020-06-06T14:02:04Z</time>
      </trkpt>
      <trkpt lat="45.6782" lon="6.33506">
        <ele>556</ele>
        <time>2020-06-06T14:02:08Z</time>
      </trkpt>
      <trkpt lat="45.67819" lon="6.33505">
        <ele>555</ele>
        <time>2020-06-06T14:02:10Z</time>
      </trkpt>
      <trkpt lat="45.67817" lon="6.33504">
        <ele>555</ele>
        <time>2020-06-06T14:02:12Z</time>
      </trkpt>
      <trkpt lat="45.67812" lon="6.33506">
        <ele>554</ele>
        <time>2020-06-06T14:02:16Z</time>
      </trkpt>
      <trkpt lat="45.6781" lon="6.33506">
        <ele>554</ele>
        <time>2020-06-06T14:02:18Z</time>
      </trkpt>
      <trkpt lat="45.67808" lon="6.33505">
        <ele>553</ele>
        <time>2020-06-06T14:02:20Z</time>
      </trkpt>
      <trkpt lat="45.67806" lon="6.33505">
        <ele>553</ele>
        <time>2020-06-06T14:02:22Z</time>
      </trkpt>
      <trkpt lat="45.67805" lon="6.33505">
        <ele>552</ele>
        <time>2020-06-06T14:02:24Z</time>
      </trkpt>
      <trkpt lat="45.67803" lon="6.33505">
        <ele>552</ele>
        <time>2020-06-06T14:02:26Z</time>
      </trkpt>
      <trkpt lat="45.67801" lon="6.33504">
        <ele>551</ele>
        <time>2020-06-06T14:02:28Z</time>
      </trkpt>
      <trkpt lat="45.67799" lon="6.33505">
        <ele>551</ele>
        <time>2020-06-06T14:02:30Z</time>
      </trkpt>
      <trkpt lat="45.67792" lon="6.33508">
        <ele>551</ele>
        <time>2020-06-06T14:02:36Z</time>
      </trkpt>
      <trkpt lat="45.6779" lon="6.33509">
        <ele>551</ele>
        <time>2020-06-06T14:02:38Z</time>
      </trkpt>
      <trkpt lat="45.67787" lon="6.33508">
        <ele>550</ele>
        <time>2020-06-06T14:02:40Z</time>
      </trkpt>
      <trkpt lat="45.67782" lon="6.33511">
        <ele>549</ele>
        <time>2020-06-06T14:02:44Z</time>
      </trkpt>
      <trkpt lat="45.67778" lon="6.33513">
        <ele>549</ele>
        <time>2020-06-06T14:02:47Z</time>
      </trkpt>
      <trkpt lat="45.67776" lon="6.33515">
        <ele>549</ele>
        <time>2020-06-06T14:02:49Z</time>
      </trkpt>
      <trkpt lat="45.67774" lon="6.33517">
        <ele>549</ele>
        <time>2020-06-06T14:02:51Z</time>
      </trkpt>
      <trkpt lat="45.67769" lon="6.33521">
        <ele>549</ele>
        <time>2020-06-06T14:02:55Z</time>
      </trkpt>
      <trkpt lat="45.67768" lon="6.33523">
        <ele>549</ele>
        <time>2020-06-06T14:02:57Z</time>
      </trkpt>
      <trkpt lat="45.67765" lon="6.33526">
        <ele>549</ele>
        <time>2020-06-06T14:02:59Z</time>
      </trkpt>
      <trkpt lat="45.67763" lon="6.33526">
        <ele>550</ele>
        <time>2020-06-06T14:03:02Z</time>
      </trkpt>
      <trkpt lat="45.67761" lon="6.33524">
        <ele>551</ele>
        <time>2020-06-06T14:03:05Z</time>
      </trkpt>
      <trkpt lat="45.67759" lon="6.33523">
        <ele>552</ele>
        <time>2020-06-06T14:03:07Z</time>
      </trkpt>
      <trkpt lat="45.67757" lon="6.33523">
        <ele>552</ele>
        <time>2020-06-06T14:03:09Z</time>
      </trkpt>
      <trkpt lat="45.67755" lon="6.33524">
        <ele>553</ele>
        <time>2020-06-06T14:03:10Z</time>
      </trkpt>
      <trkpt lat="45.67753" lon="6.33523">
        <ele>553</ele>
        <time>2020-06-06T14:03:12Z</time>
      </trkpt>
      <trkpt lat="45.67752" lon="6.33522">
        <ele>553</ele>
        <time>2020-06-06T14:03:13Z</time>
      </trkpt>
      <trkpt lat="45.6775" lon="6.33521">
        <ele>553</ele>
        <time>2020-06-06T14:03:14Z</time>
      </trkpt>
      <trkpt lat="45.67749" lon="6.33521">
        <ele>553</ele>
        <time>2020-06-06T14:03:15Z</time>
      </trkpt>
      <trkpt lat="45.67747" lon="6.33521">
        <ele>553</ele>
        <time>2020-06-06T14:03:16Z</time>
      </trkpt>
      <trkpt lat="45.67739" lon="6.33516">
        <ele>552</ele>
        <time>2020-06-06T14:03:21Z</time>
      </trkpt>
      <trkpt lat="45.67737" lon="6.33516">
        <ele>551</ele>
        <time>2020-06-06T14:03:23Z</time>
      </trkpt>
      <trkpt lat="45.67734" lon="6.33518">
        <ele>549</ele>
        <time>2020-06-06T14:03:25Z</time>
      </trkpt>
      <trkpt lat="45.67733" lon="6.33518">
        <ele>549</ele>
        <time>2020-06-06T14:03:27Z</time>
      </trkpt>
      <trkpt lat="45.67729" lon="6.33519">
        <ele>546</ele>
        <time>2020-06-06T14:03:32Z</time>
      </trkpt>
      <trkpt lat="45.67727" lon="6.3352">
        <ele>546</ele>
        <time>2020-06-06T14:03:33Z</time>
      </trkpt>
      <trkpt lat="45.67725" lon="6.33521">
        <ele>545</ele>
        <time>2020-06-06T14:03:35Z</time>
      </trkpt>
      <trkpt lat="45.67719" lon="6.33525">
        <ele>543</ele>
        <time>2020-06-06T14:03:41Z</time>
      </trkpt>
      <trkpt lat="45.67717" lon="6.33526">
        <ele>543</ele>
        <time>2020-06-06T14:03:43Z</time>
      </trkpt>
      <trkpt lat="45.67713" lon="6.33527">
        <ele>542</ele>
        <time>2020-06-06T14:03:46Z</time>
      </trkpt>
      <trkpt lat="45.67711" lon="6.33527">
        <ele>541</ele>
        <time>2020-06-06T14:03:47Z</time>
      </trkpt>
      <trkpt lat="45.67705" lon="6.33532">
        <ele>540</ele>
        <time>2020-06-06T14:03:53Z</time>
      </trkpt>
      <trkpt lat="45.67703" lon="6.33533">
        <ele>539</ele>
        <time>2020-06-06T14:03:55Z</time>
      </trkpt>
      <trkpt lat="45.67701" lon="6.33534">
        <ele>538</ele>
        <time>2020-06-06T14:03:56Z</time>
      </trkpt>
      <trkpt lat="45.67699" lon="6.33536">
        <ele>537</ele>
        <time>2020-06-06T14:03:58Z</time>
      </trkpt>
      <trkpt lat="45.67698" lon="6.33537">
        <ele>536</ele>
        <time>2020-06-06T14:04:00Z</time>
      </trkpt>
      <trkpt lat="45.67695" lon="6.33537">
        <ele>535</ele>
        <time>2020-06-06T14:04:02Z</time>
      </trkpt>
      <trkpt lat="45.67693" lon="6.33539">
        <ele>534</ele>
        <time>2020-06-06T14:04:04Z</time>
      </trkpt>
      <trkpt lat="45.67692" lon="6.33541">
        <ele>533</ele>
        <time>2020-06-06T14:04:06Z</time>
      </trkpt>
      <trkpt lat="45.67683" lon="6.33559">
        <ele>530</ele>
        <time>2020-06-06T14:04:21Z</time>
      </trkpt>
      <trkpt lat="45.67682" lon="6.33561">
        <ele>530</ele>
        <time>2020-06-06T14:04:23Z</time>
      </trkpt>
      <trkpt lat="45.6768" lon="6.33565">
        <ele>530</ele>
        <time>2020-06-06T14:04:25Z</time>
      </trkpt>
      <trkpt lat="45.67681" lon="6.33568">
        <ele>530</ele>
        <time>2020-06-06T14:04:27Z</time>
      </trkpt>
      <trkpt lat="45.6768" lon="6.33571">
        <ele>531</ele>
        <time>2020-06-06T14:04:29Z</time>
      </trkpt>
      <trkpt lat="45.67679" lon="6.33572">
        <ele>531</ele>
        <time>2020-06-06T14:04:32Z</time>
      </trkpt>
      <trkpt lat="45.67675" lon="6.33576">
        <ele>535</ele>
        <time>2020-06-06T14:04:35Z</time>
      </trkpt>
      <trkpt lat="45.67674" lon="6.33578">
        <ele>535</ele>
        <time>2020-06-06T14:04:36Z</time>
      </trkpt>
      <trkpt lat="45.67674" lon="6.33581">
        <ele>534</ele>
        <time>2020-06-06T14:04:38Z</time>
      </trkpt>
      <trkpt lat="45.67673" lon="6.33583">
        <ele>534</ele>
        <time>2020-06-06T14:04:40Z</time>
      </trkpt>
      <trkpt lat="45.67672" lon="6.33586">
        <ele>534</ele>
        <time>2020-06-06T14:04:42Z</time>
      </trkpt>
      <trkpt lat="45.6767" lon="6.33588">
        <ele>533</ele>
        <time>2020-06-06T14:04:44Z</time>
      </trkpt>
      <trkpt lat="45.67668" lon="6.3359">
        <ele>532</ele>
        <time>2020-06-06T14:04:46Z</time>
      </trkpt>
      <trkpt lat="45.67665" lon="6.33593">
        <ele>530</ele>
        <time>2020-06-06T14:04:50Z</time>
      </trkpt>
      <trkpt lat="45.67661" lon="6.33595">
        <ele>529</ele>
        <time>2020-06-06T14:04:53Z</time>
      </trkpt>
      <trkpt lat="45.67657" lon="6.33596">
        <ele>529</ele>
        <time>2020-06-06T14:04:56Z</time>
      </trkpt>
      <trkpt lat="45.67654" lon="6.33598">
        <ele>529</ele>
        <time>2020-06-06T14:04:58Z</time>
      </trkpt>
      <trkpt lat="45.67652" lon="6.33598">
        <ele>529</ele>
        <time>2020-06-06T14:05:00Z</time>
      </trkpt>
      <trkpt lat="45.67646" lon="6.33602">
        <ele>528</ele>
        <time>2020-06-06T14:05:07Z</time>
      </trkpt>
      <trkpt lat="45.67645" lon="6.33604">
        <ele>528</ele>
        <time>2020-06-06T14:05:09Z</time>
      </trkpt>
      <trkpt lat="45.67643" lon="6.33605">
        <ele>528</ele>
        <time>2020-06-06T14:05:10Z</time>
      </trkpt>
      <trkpt lat="45.67637" lon="6.33609">
        <ele>529</ele>
        <time>2020-06-06T14:05:16Z</time>
      </trkpt>
      <trkpt lat="45.67634" lon="6.33611">
        <ele>528</ele>
        <time>2020-06-06T14:05:18Z</time>
      </trkpt>
      <trkpt lat="45.67632" lon="6.33612">
        <ele>527</ele>
        <time>2020-06-06T14:05:20Z</time>
      </trkpt>
      <trkpt lat="45.67629" lon="6.33611">
        <ele>527</ele>
        <time>2020-06-06T14:05:22Z</time>
      </trkpt>
      <trkpt lat="45.67627" lon="6.33611">
        <ele>526</ele>
        <time>2020-06-06T14:05:24Z</time>
      </trkpt>
      <trkpt lat="45.67616" lon="6.33613">
        <ele>520</ele>
        <time>2020-06-06T14:05:33Z</time>
      </trkpt>
      <trkpt lat="45.67614" lon="6.33615">
        <ele>519</ele>
        <time>2020-06-06T14:05:35Z</time>
      </trkpt>
      <trkpt lat="45.67613" lon="6.33617">
        <ele>518</ele>
        <time>2020-06-06T14:05:37Z</time>
      </trkpt>
      <trkpt lat="45.67601" lon="6.33625">
        <ele>515</ele>
        <time>2020-06-06T14:05:49Z</time>
      </trkpt>
      <trkpt lat="45.67599" lon="6.33626">
        <ele>515</ele>
        <time>2020-06-06T14:05:51Z</time>
      </trkpt>
      <trkpt lat="45.67598" lon="6.33629">
        <ele>515</ele>
        <time>2020-06-06T14:05:53Z</time>
      </trkpt>
      <trkpt lat="45.67597" lon="6.33631">
        <ele>515</ele>
        <time>2020-06-06T14:05:55Z</time>
      </trkpt>
      <trkpt lat="45.67595" lon="6.33633">
        <ele>515</ele>
        <time>2020-06-06T14:05:57Z</time>
      </trkpt>
      <trkpt lat="45.67594" lon="6.33636">
        <ele>515</ele>
        <time>2020-06-06T14:05:59Z</time>
      </trkpt>
      <trkpt lat="45.67588" lon="6.33638">
        <ele>515</ele>
        <time>2020-06-06T14:06:03Z</time>
      </trkpt>
      <trkpt lat="45.67586" lon="6.3364">
        <ele>515</ele>
        <time>2020-06-06T14:06:05Z</time>
      </trkpt>
      <trkpt lat="45.67584" lon="6.33641">
        <ele>515</ele>
        <time>2020-06-06T14:06:07Z</time>
      </trkpt>
      <trkpt lat="45.67577" lon="6.33643">
        <ele>514</ele>
        <time>2020-06-06T14:06:11Z</time>
      </trkpt>
      <trkpt lat="45.67574" lon="6.33644">
        <ele>514</ele>
        <time>2020-06-06T14:06:13Z</time>
      </trkpt>
      <trkpt lat="45.67572" lon="6.33647">
        <ele>514</ele>
        <time>2020-06-06T14:06:16Z</time>
      </trkpt>
      <trkpt lat="45.67572" lon="6.33651">
        <ele>514</ele>
        <time>2020-06-06T14:06:19Z</time>
      </trkpt>
      <trkpt lat="45.67571" lon="6.33653">
        <ele>514</ele>
        <time>2020-06-06T14:06:21Z</time>
      </trkpt>
      <trkpt lat="45.67569" lon="6.33654">
        <ele>513</ele>
        <time>2020-06-06T14:06:23Z</time>
      </trkpt>
      <trkpt lat="45.67566" lon="6.33654">
        <ele>513</ele>
        <time>2020-06-06T14:06:25Z</time>
      </trkpt>
      <trkpt lat="45.67565" lon="6.33653">
        <ele>512</ele>
        <time>2020-06-06T14:06:26Z</time>
      </trkpt>
      <trkpt lat="45.6756" lon="6.33652">
        <ele>510</ele>
        <time>2020-06-06T14:06:31Z</time>
      </trkpt>
      <trkpt lat="45.67558" lon="6.33653">
        <ele>510</ele>
        <time>2020-06-06T14:06:33Z</time>
      </trkpt>
      <trkpt lat="45.67556" lon="6.33653">
        <ele>510</ele>
        <time>2020-06-06T14:06:34Z</time>
      </trkpt>
      <trkpt lat="45.67554" lon="6.33654">
        <ele>510</ele>
        <time>2020-06-06T14:06:36Z</time>
      </trkpt>
      <trkpt lat="45.67551" lon="6.33655">
        <ele>510</ele>
        <time>2020-06-06T14:06:38Z</time>
      </trkpt>
      <trkpt lat="45.67549" lon="6.33657">
        <ele>510</ele>
        <time>2020-06-06T14:06:40Z</time>
      </trkpt>
      <trkpt lat="45.67547" lon="6.33656">
        <ele>509</ele>
        <time>2020-06-06T14:06:43Z</time>
      </trkpt>
      <trkpt lat="45.67541" lon="6.33658">
        <ele>511</ele>
        <time>2020-06-06T14:06:51Z</time>
      </trkpt>
      <trkpt lat="45.67538" lon="6.33659">
        <ele>510</ele>
        <time>2020-06-06T14:06:56Z</time>
      </trkpt>
      <trkpt lat="45.67528" lon="6.33659">
        <ele>510</ele>
        <time>2020-06-06T14:07:03Z</time>
      </trkpt>
      <trkpt lat="45.67526" lon="6.33659">
        <ele>510</ele>
        <time>2020-06-06T14:07:05Z</time>
      </trkpt>
      <trkpt lat="45.67521" lon="6.33658">
        <ele>510</ele>
        <time>2020-06-06T14:07:08Z</time>
      </trkpt>
      <trkpt lat="45.67518" lon="6.33658">
        <ele>510</ele>
        <time>2020-06-06T14:07:10Z</time>
      </trkpt>
      <trkpt lat="45.67517" lon="6.33657">
        <ele>510</ele>
        <time>2020-06-06T14:07:11Z</time>
      </trkpt>
      <trkpt lat="45.67515" lon="6.33658">
        <ele>510</ele>
        <time>2020-06-06T14:07:13Z</time>
      </trkpt>
      <trkpt lat="45.67513" lon="6.33657">
        <ele>511</ele>
        <time>2020-06-06T14:07:15Z</time>
      </trkpt>
      <trkpt lat="45.67509" lon="6.33656">
        <ele>511</ele>
        <time>2020-06-06T14:07:18Z</time>
      </trkpt>
      <trkpt lat="45.67504" lon="6.33657">
        <ele>512</ele>
        <time>2020-06-06T14:07:22Z</time>
      </trkpt>
      <trkpt lat="45.67498" lon="6.33656">
        <ele>512</ele>
        <time>2020-06-06T14:07:28Z</time>
      </trkpt>
      <trkpt lat="45.67496" lon="6.33655">
        <ele>512</ele>
        <time>2020-06-06T14:07:29Z</time>
      </trkpt>
      <trkpt lat="45.67494" lon="6.33655">
        <ele>511</ele>
        <time>2020-06-06T14:07:31Z</time>
      </trkpt>
      <trkpt lat="45.67491" lon="6.33659">
        <ele>511</ele>
        <time>2020-06-06T14:07:36Z</time>
      </trkpt>
      <trkpt lat="45.67486" lon="6.33661">
        <ele>512</ele>
        <time>2020-06-06T14:07:43Z</time>
      </trkpt>
      <trkpt lat="45.67483" lon="6.33662">
        <ele>513</ele>
        <time>2020-06-06T14:07:45Z</time>
      </trkpt>
      <trkpt lat="45.67482" lon="6.33664">
        <ele>514</ele>
        <time>2020-06-06T14:07:47Z</time>
      </trkpt>
      <trkpt lat="45.67479" lon="6.33666">
        <ele>516</ele>
        <time>2020-06-06T14:07:49Z</time>
      </trkpt>
      <trkpt lat="45.67478" lon="6.33668">
        <ele>516</ele>
        <time>2020-06-06T14:07:50Z</time>
      </trkpt>
      <trkpt lat="45.67477" lon="6.33671">
        <ele>517</ele>
        <time>2020-06-06T14:07:52Z</time>
      </trkpt>
      <trkpt lat="45.67477" lon="6.33674">
        <ele>518</ele>
        <time>2020-06-06T14:07:53Z</time>
      </trkpt>
      <trkpt lat="45.67474" lon="6.33681">
        <ele>521</ele>
        <time>2020-06-06T14:07:56Z</time>
      </trkpt>
      <trkpt lat="45.6747" lon="6.33683">
        <ele>523</ele>
        <time>2020-06-06T14:07:59Z</time>
      </trkpt>
      <trkpt lat="45.67468" lon="6.33685">
        <ele>523</ele>
        <time>2020-06-06T14:08:00Z</time>
      </trkpt>
      <trkpt lat="45.67467" lon="6.33687">
        <ele>524</ele>
        <time>2020-06-06T14:08:01Z</time>
      </trkpt>
      <trkpt lat="45.67466" lon="6.33691">
        <ele>524</ele>
        <time>2020-06-06T14:08:03Z</time>
      </trkpt>
      <trkpt lat="45.67463" lon="6.33697">
        <ele>523</ele>
        <time>2020-06-06T14:08:08Z</time>
      </trkpt>
      <trkpt lat="45.67459" lon="6.33696">
        <ele>521</ele>
        <time>2020-06-06T14:08:10Z</time>
      </trkpt>
      <trkpt lat="45.67453" lon="6.33693">
        <ele>519</ele>
        <time>2020-06-06T14:08:15Z</time>
      </trkpt>
      <trkpt lat="45.67452" lon="6.33691">
        <ele>518</ele>
        <time>2020-06-06T14:08:17Z</time>
      </trkpt>
      <trkpt lat="45.67451" lon="6.33685">
        <ele>517</ele>
        <time>2020-06-06T14:08:21Z</time>
      </trkpt>
      <trkpt lat="45.67449" lon="6.33681">
        <ele>516</ele>
        <time>2020-06-06T14:08:25Z</time>
      </trkpt>
      <trkpt lat="45.67447" lon="6.33679">
        <ele>515</ele>
        <time>2020-06-06T14:08:27Z</time>
      </trkpt>
      <trkpt lat="45.67445" lon="6.33676">
        <ele>515</ele>
        <time>2020-06-06T14:08:30Z</time>
      </trkpt>
      <trkpt lat="45.67444" lon="6.33674">
        <ele>514</ele>
        <time>2020-06-06T14:08:32Z</time>
      </trkpt>
      <trkpt lat="45.67443" lon="6.3367">
        <ele>514</ele>
        <time>2020-06-06T14:08:34Z</time>
      </trkpt>
      <trkpt lat="45.67441" lon="6.33669">
        <ele>514</ele>
        <time>2020-06-06T14:08:36Z</time>
      </trkpt>
      <trkpt lat="45.67441" lon="6.33666">
        <ele>514</ele>
        <time>2020-06-06T14:08:37Z</time>
      </trkpt>
      <trkpt lat="45.6744" lon="6.33663">
        <ele>513</ele>
        <time>2020-06-06T14:08:39Z</time>
      </trkpt>
      <trkpt lat="45.67439" lon="6.33661">
        <ele>513</ele>
        <time>2020-06-06T14:08:41Z</time>
      </trkpt>
      <trkpt lat="45.67438" lon="6.33658">
        <ele>512</ele>
        <time>2020-06-06T14:08:43Z</time>
      </trkpt>
      <trkpt lat="45.67437" lon="6.33651">
        <ele>511</ele>
        <time>2020-06-06T14:08:46Z</time>
      </trkpt>
      <trkpt lat="45.67436" lon="6.33649">
        <ele>510</ele>
        <time>2020-06-06T14:08:48Z</time>
      </trkpt>
      <trkpt lat="45.67431" lon="6.33638">
        <ele>508</ele>
        <time>2020-06-06T14:08:56Z</time>
      </trkpt>
      <trkpt lat="45.67431" lon="6.33635">
        <ele>508</ele>
        <time>2020-06-06T14:08:57Z</time>
      </trkpt>
      <trkpt lat="45.6743" lon="6.33633">
        <ele>508</ele>
        <time>2020-06-06T14:08:59Z</time>
      </trkpt>
      <trkpt lat="45.67425" lon="6.33623">
        <ele>508</ele>
        <time>2020-06-06T14:09:07Z</time>
      </trkpt>
      <trkpt lat="45.67425" lon="6.33619">
        <ele>508</ele>
        <time>2020-06-06T14:09:09Z</time>
      </trkpt>
      <trkpt lat="45.67423" lon="6.33616">
        <ele>508</ele>
        <time>2020-06-06T14:09:11Z</time>
      </trkpt>
      <trkpt lat="45.67423" lon="6.33614">
        <ele>507</ele>
        <time>2020-06-06T14:09:12Z</time>
      </trkpt>
      <trkpt lat="45.67421" lon="6.33611">
        <ele>507</ele>
        <time>2020-06-06T14:09:16Z</time>
      </trkpt>
      <trkpt lat="45.67419" lon="6.33611">
        <ele>508</ele>
        <time>2020-06-06T14:09:18Z</time>
      </trkpt>
      <trkpt lat="45.67418" lon="6.33609">
        <ele>508</ele>
        <time>2020-06-06T14:09:20Z</time>
      </trkpt>
      <trkpt lat="45.67417" lon="6.33607">
        <ele>509</ele>
        <time>2020-06-06T14:09:22Z</time>
      </trkpt>
      <trkpt lat="45.67416" lon="6.33605">
        <ele>510</ele>
        <time>2020-06-06T14:09:24Z</time>
      </trkpt>
      <trkpt lat="45.67415" lon="6.33602">
        <ele>510</ele>
        <time>2020-06-06T14:09:26Z</time>
      </trkpt>
      <trkpt lat="45.67413" lon="6.336">
        <ele>510</ele>
        <time>2020-06-06T14:09:28Z</time>
      </trkpt>
      <trkpt lat="45.67412" lon="6.33597">
        <ele>510</ele>
        <time>2020-06-06T14:09:30Z</time>
      </trkpt>
      <trkpt lat="45.6741" lon="6.33595">
        <ele>510</ele>
        <time>2020-06-06T14:09:32Z</time>
      </trkpt>
      <trkpt lat="45.67406" lon="6.33587">
        <ele>509</ele>
        <time>2020-06-06T14:09:38Z</time>
      </trkpt>
      <trkpt lat="45.67405" lon="6.33585">
        <ele>509</ele>
        <time>2020-06-06T14:09:40Z</time>
      </trkpt>
      <trkpt lat="45.67403" lon="6.33582">
        <ele>509</ele>
        <time>2020-06-06T14:09:42Z</time>
      </trkpt>
      <trkpt lat="45.67401" lon="6.33575">
        <ele>508</ele>
        <time>2020-06-06T14:09:46Z</time>
      </trkpt>
      <trkpt lat="45.67399" lon="6.33565">
        <ele>507</ele>
        <time>2020-06-06T14:09:51Z</time>
      </trkpt>
      <trkpt lat="45.67398" lon="6.33562">
        <ele>506</ele>
        <time>2020-06-06T14:09:53Z</time>
      </trkpt>
      <trkpt lat="45.67396" lon="6.3356">
        <ele>506</ele>
        <time>2020-06-06T14:09:55Z</time>
      </trkpt>
      <trkpt lat="45.67395" lon="6.33556">
        <ele>506</ele>
        <time>2020-06-06T14:09:57Z</time>
      </trkpt>
      <trkpt lat="45.67395" lon="6.33553">
        <ele>506</ele>
        <time>2020-06-06T14:09:59Z</time>
      </trkpt>
      <trkpt lat="45.67394" lon="6.33551">
        <ele>506</ele>
        <time>2020-06-06T14:10:00Z</time>
      </trkpt>
      <trkpt lat="45.67392" lon="6.33547">
        <ele>506</ele>
        <time>2020-06-06T14:10:03Z</time>
      </trkpt>
      <trkpt lat="45.6739" lon="6.33539">
        <ele>505</ele>
        <time>2020-06-06T14:10:08Z</time>
      </trkpt>
      <trkpt lat="45.67389" lon="6.33537">
        <ele>505</ele>
        <time>2020-06-06T14:10:09Z</time>
      </trkpt>
      <trkpt lat="45.67386" lon="6.33535">
        <ele>504</ele>
        <time>2020-06-06T14:10:13Z</time>
      </trkpt>
      <trkpt lat="45.67382" lon="6.33527">
        <ele>503</ele>
        <time>2020-06-06T14:10:19Z</time>
      </trkpt>
      <trkpt lat="45.6738" lon="6.33524">
        <ele>502</ele>
        <time>2020-06-06T14:10:21Z</time>
      </trkpt>
      <trkpt lat="45.67379" lon="6.33521">
        <ele>502</ele>
        <time>2020-06-06T14:10:23Z</time>
      </trkpt>
      <trkpt lat="45.67378" lon="6.33517">
        <ele>502</ele>
        <time>2020-06-06T14:10:25Z</time>
      </trkpt>
      <trkpt lat="45.67377" lon="6.33514">
        <ele>501</ele>
        <time>2020-06-06T14:10:27Z</time>
      </trkpt>
      <trkpt lat="45.67376" lon="6.33509">
        <ele>501</ele>
        <time>2020-06-06T14:10:30Z</time>
      </trkpt>
      <trkpt lat="45.67374" lon="6.33502">
        <ele>501</ele>
        <time>2020-06-06T14:10:34Z</time>
      </trkpt>
      <trkpt lat="45.67374" lon="6.335">
        <ele>501</ele>
        <time>2020-06-06T14:10:37Z</time>
      </trkpt>
      <trkpt lat="45.6737" lon="6.33497">
        <ele>502</ele>
        <time>2020-06-06T14:10:41Z</time>
      </trkpt>
      <trkpt lat="45.67368" lon="6.33497">
        <ele>502</ele>
        <time>2020-06-06T14:10:43Z</time>
      </trkpt>
      <trkpt lat="45.67366" lon="6.33496">
        <ele>503</ele>
        <time>2020-06-06T14:10:45Z</time>
      </trkpt>
      <trkpt lat="45.67365" lon="6.33495">
        <ele>504</ele>
        <time>2020-06-06T14:10:46Z</time>
      </trkpt>
      <trkpt lat="45.67364" lon="6.33493">
        <ele>504</ele>
        <time>2020-06-06T14:10:47Z</time>
      </trkpt>
      <trkpt lat="45.67362" lon="6.33493">
        <ele>504</ele>
        <time>2020-06-06T14:10:48Z</time>
      </trkpt>
      <trkpt lat="45.6736" lon="6.33493">
        <ele>504</ele>
        <time>2020-06-06T14:10:50Z</time>
      </trkpt>
      <trkpt lat="45.67359" lon="6.33493">
        <ele>504</ele>
        <time>2020-06-06T14:10:52Z</time>
      </trkpt>
      <trkpt lat="45.67357" lon="6.33492">
        <ele>503</ele>
        <time>2020-06-06T14:10:54Z</time>
      </trkpt>
      <trkpt lat="45.67355" lon="6.33493">
        <ele>503</ele>
        <time>2020-06-06T14:10:56Z</time>
      </trkpt>
      <trkpt lat="45.67353" lon="6.33493">
        <ele>502</ele>
        <time>2020-06-06T14:10:58Z</time>
      </trkpt>
      <trkpt lat="45.67348" lon="6.33493">
        <ele>502</ele>
        <time>2020-06-06T14:11:02Z</time>
      </trkpt>
      <trkpt lat="45.67346" lon="6.33494">
        <ele>501</ele>
        <time>2020-06-06T14:11:04Z</time>
      </trkpt>
      <trkpt lat="45.67345" lon="6.33494">
        <ele>501</ele>
        <time>2020-06-06T14:11:05Z</time>
      </trkpt>
      <trkpt lat="45.67343" lon="6.33494">
        <ele>501</ele>
        <time>2020-06-06T14:11:07Z</time>
      </trkpt>
      <trkpt lat="45.67341" lon="6.33495">
        <ele>501</ele>
        <time>2020-06-06T14:11:09Z</time>
      </trkpt>
      <trkpt lat="45.67339" lon="6.33495">
        <ele>501</ele>
        <time>2020-06-06T14:11:10Z</time>
      </trkpt>
      <trkpt lat="45.67338" lon="6.33495">
        <ele>501</ele>
        <time>2020-06-06T14:11:11Z</time>
      </trkpt>
      <trkpt lat="45.67335" lon="6.33496">
        <ele>501</ele>
        <time>2020-06-06T14:11:13Z</time>
      </trkpt>
      <trkpt lat="45.67333" lon="6.33496">
        <ele>501</ele>
        <time>2020-06-06T14:11:15Z</time>
      </trkpt>
      <trkpt lat="45.67332" lon="6.33498">
        <ele>502</ele>
        <time>2020-06-06T14:11:17Z</time>
      </trkpt>
      <trkpt lat="45.6733" lon="6.33498">
        <ele>502</ele>
        <time>2020-06-06T14:11:19Z</time>
      </trkpt>
      <trkpt lat="45.67328" lon="6.33497">
        <ele>502</ele>
        <time>2020-06-06T14:11:21Z</time>
      </trkpt>
      <trkpt lat="45.67323" lon="6.33497">
        <ele>501</ele>
        <time>2020-06-06T14:11:24Z</time>
      </trkpt>
      <trkpt lat="45.67321" lon="6.33498">
        <ele>501</ele>
        <time>2020-06-06T14:11:26Z</time>
      </trkpt>
      <trkpt lat="45.67317" lon="6.335">
        <ele>501</ele>
        <time>2020-06-06T14:11:30Z</time>
      </trkpt>
      <trkpt lat="45.67315" lon="6.33501">
        <ele>500</ele>
        <time>2020-06-06T14:11:32Z</time>
      </trkpt>
      <trkpt lat="45.67306" lon="6.33504">
        <ele>500</ele>
        <time>2020-06-06T14:11:40Z</time>
      </trkpt>
      <trkpt lat="45.67304" lon="6.33504">
        <ele>500</ele>
        <time>2020-06-06T14:11:41Z</time>
      </trkpt>
      <trkpt lat="45.673" lon="6.33505">
        <ele>500</ele>
        <time>2020-06-06T14:11:45Z</time>
      </trkpt>
      <trkpt lat="45.67297" lon="6.33506">
        <ele>499</ele>
        <time>2020-06-06T14:11:49Z</time>
      </trkpt>
      <trkpt lat="45.6729" lon="6.33508">
        <ele>497</ele>
        <time>2020-06-06T14:11:55Z</time>
      </trkpt>
      <trkpt lat="45.67287" lon="6.33508">
        <ele>496</ele>
        <time>2020-06-06T14:11:58Z</time>
      </trkpt>
      <trkpt lat="45.67281" lon="6.33508">
        <ele>496</ele>
        <time>2020-06-06T14:12:02Z</time>
      </trkpt>
      <trkpt lat="45.6728" lon="6.33508">
        <ele>496</ele>
        <time>2020-06-06T14:12:03Z</time>
      </trkpt>
      <trkpt lat="45.67278" lon="6.33509">
        <ele>496</ele>
        <time>2020-06-06T14:12:05Z</time>
      </trkpt>
      <trkpt lat="45.67272" lon="6.33509">
        <ele>496</ele>
        <time>2020-06-06T14:12:11Z</time>
      </trkpt>
      <trkpt lat="45.6727" lon="6.33508">
        <ele>495</ele>
        <time>2020-06-06T14:12:13Z</time>
      </trkpt>
      <trkpt lat="45.67264" lon="6.33508">
        <ele>495</ele>
        <time>2020-06-06T14:12:17Z</time>
      </trkpt>
      <trkpt lat="45.67263" lon="6.33508">
        <ele>495</ele>
        <time>2020-06-06T14:12:18Z</time>
      </trkpt>
      <trkpt lat="45.67261" lon="6.33508">
        <ele>495</ele>
        <time>2020-06-06T14:12:19Z</time>
      </trkpt>
      <trkpt lat="45.67253" lon="6.3351">
        <ele>495</ele>
        <time>2020-06-06T14:12:25Z</time>
      </trkpt>
      <trkpt lat="45.67245" lon="6.33513">
        <ele>496</ele>
        <time>2020-06-06T14:12:33Z</time>
      </trkpt>
      <trkpt lat="45.67244" lon="6.33514">
        <ele>497</ele>
        <time>2020-06-06T14:12:35Z</time>
      </trkpt>
      <trkpt lat="45.67243" lon="6.33516">
        <ele>497</ele>
        <time>2020-06-06T14:12:38Z</time>
      </trkpt>
      <trkpt lat="45.67241" lon="6.33518">
        <ele>498</ele>
        <time>2020-06-06T14:12:40Z</time>
      </trkpt>
      <trkpt lat="45.6724" lon="6.33519">
        <ele>498</ele>
        <time>2020-06-06T14:12:43Z</time>
      </trkpt>
      <trkpt lat="45.67238" lon="6.3352">
        <ele>497</ele>
        <time>2020-06-06T14:12:45Z</time>
      </trkpt>
      <trkpt lat="45.67235" lon="6.33519">
        <ele>496</ele>
        <time>2020-06-06T14:12:48Z</time>
      </trkpt>
      <trkpt lat="45.67233" lon="6.3352">
        <ele>496</ele>
        <time>2020-06-06T14:12:49Z</time>
      </trkpt>
      <trkpt lat="45.67229" lon="6.33519">
        <ele>495</ele>
        <time>2020-06-06T14:12:53Z</time>
      </trkpt>
      <trkpt lat="45.67227" lon="6.33519">
        <ele>495</ele>
        <time>2020-06-06T14:12:56Z</time>
      </trkpt>
      <trkpt lat="45.67225" lon="6.3352">
        <ele>495</ele>
        <time>2020-06-06T14:12:59Z</time>
      </trkpt>
      <trkpt lat="45.67224" lon="6.33522">
        <ele>495</ele>
        <time>2020-06-06T14:13:03Z</time>
      </trkpt>
      <trkpt lat="45.67222" lon="6.33524">
        <ele>495</ele>
        <time>2020-06-06T14:13:06Z</time>
      </trkpt>
      <trkpt lat="45.67219" lon="6.33527">
        <ele>494</ele>
        <time>2020-06-06T14:13:12Z</time>
      </trkpt>
      <trkpt lat="45.67216" lon="6.33527">
        <ele>494</ele>
        <time>2020-06-06T14:13:15Z</time>
      </trkpt>
      <trkpt lat="45.67215" lon="6.33529">
        <ele>494</ele>
        <time>2020-06-06T14:13:17Z</time>
      </trkpt>
      <trkpt lat="45.67213" lon="6.33531">
        <ele>494</ele>
        <time>2020-06-06T14:13:19Z</time>
      </trkpt>
      <trkpt lat="45.67211" lon="6.33532">
        <ele>494</ele>
        <time>2020-06-06T14:13:21Z</time>
      </trkpt>
      <trkpt lat="45.67209" lon="6.33533">
        <ele>493</ele>
        <time>2020-06-06T14:13:23Z</time>
      </trkpt>
      <trkpt lat="45.67207" lon="6.33535">
        <ele>493</ele>
        <time>2020-06-06T14:13:26Z</time>
      </trkpt>
      <trkpt lat="45.67202" lon="6.33538">
        <ele>492</ele>
        <time>2020-06-06T14:13:30Z</time>
      </trkpt>
      <trkpt lat="45.672" lon="6.3354">
        <ele>492</ele>
        <time>2020-06-06T14:13:32Z</time>
      </trkpt>
      <trkpt lat="45.67197" lon="6.3354">
        <ele>492</ele>
        <time>2020-06-06T14:13:34Z</time>
      </trkpt>
      <trkpt lat="45.67195" lon="6.33541">
        <ele>491</ele>
        <time>2020-06-06T14:13:36Z</time>
      </trkpt>
      <trkpt lat="45.67194" lon="6.33542">
        <ele>491</ele>
        <time>2020-06-06T14:13:38Z</time>
      </trkpt>
      <trkpt lat="45.67192" lon="6.33544">
        <ele>490</ele>
        <time>2020-06-06T14:13:40Z</time>
      </trkpt>
      <trkpt lat="45.67192" lon="6.33546">
        <ele>489</ele>
        <time>2020-06-06T14:13:44Z</time>
      </trkpt>
      <trkpt lat="45.67191" lon="6.33548">
        <ele>488</ele>
        <time>2020-06-06T14:13:48Z</time>
      </trkpt>
      <trkpt lat="45.67191" lon="6.33552">
        <ele>488</ele>
        <time>2020-06-06T14:13:50Z</time>
      </trkpt>
      <trkpt lat="45.67191" lon="6.33554">
        <ele>487</ele>
        <time>2020-06-06T14:13:52Z</time>
      </trkpt>
      <trkpt lat="45.67191" lon="6.33558">
        <ele>487</ele>
        <time>2020-06-06T14:13:55Z</time>
      </trkpt>
      <trkpt lat="45.6719" lon="6.33561">
        <ele>487</ele>
        <time>2020-06-06T14:13:57Z</time>
      </trkpt>
      <trkpt lat="45.6719" lon="6.33566">
        <ele>486</ele>
        <time>2020-06-06T14:13:59Z</time>
      </trkpt>
      <trkpt lat="45.67189" lon="6.33567">
        <ele>485</ele>
        <time>2020-06-06T14:14:00Z</time>
      </trkpt>
      <trkpt lat="45.67188" lon="6.3357">
        <ele>485</ele>
        <time>2020-06-06T14:14:01Z</time>
      </trkpt>
      <trkpt lat="45.67186" lon="6.33573">
        <ele>484</ele>
        <time>2020-06-06T14:14:03Z</time>
      </trkpt>
      <trkpt lat="45.67185" lon="6.33574">
        <ele>484</ele>
        <time>2020-06-06T14:14:04Z</time>
      </trkpt>
      <trkpt lat="45.67174" lon="6.33587">
        <ele>476</ele>
        <time>2020-06-06T14:14:16Z</time>
      </trkpt>
      <trkpt lat="45.67172" lon="6.33588">
        <ele>475</ele>
        <time>2020-06-06T14:14:17Z</time>
      </trkpt>
      <trkpt lat="45.67171" lon="6.3359">
        <ele>474</ele>
        <time>2020-06-06T14:14:19Z</time>
      </trkpt>
      <trkpt lat="45.6716" lon="6.33601">
        <ele>471</ele>
        <time>2020-06-06T14:14:31Z</time>
      </trkpt>
      <trkpt lat="45.67159" lon="6.33603">
        <ele>471</ele>
        <time>2020-06-06T14:14:34Z</time>
      </trkpt>
      <trkpt lat="45.67158" lon="6.33606">
        <ele>469</ele>
        <time>2020-06-06T14:14:38Z</time>
      </trkpt>
      <trkpt lat="45.67157" lon="6.33608">
        <ele>469</ele>
        <time>2020-06-06T14:14:40Z</time>
      </trkpt>
      <trkpt lat="45.67157" lon="6.3361">
        <ele>468</ele>
        <time>2020-06-06T14:14:42Z</time>
      </trkpt>
      <trkpt lat="45.67157" lon="6.33613">
        <ele>468</ele>
        <time>2020-06-06T14:14:44Z</time>
      </trkpt>
      <trkpt lat="45.67157" lon="6.33616">
        <ele>468</ele>
        <time>2020-06-06T14:14:46Z</time>
      </trkpt>
      <trkpt lat="45.67157" lon="6.33619">
        <ele>468</ele>
        <time>2020-06-06T14:14:48Z</time>
      </trkpt>
      <trkpt lat="45.67156" lon="6.33625">
        <ele>467</ele>
        <time>2020-06-06T14:14:52Z</time>
      </trkpt>
      <trkpt lat="45.67156" lon="6.33631">
        <ele>465</ele>
        <time>2020-06-06T14:14:56Z</time>
      </trkpt>
      <trkpt lat="45.67156" lon="6.33635">
        <ele>463</ele>
        <time>2020-06-06T14:15:00Z</time>
      </trkpt>
      <trkpt lat="45.67156" lon="6.33639">
        <ele>461</ele>
        <time>2020-06-06T14:15:02Z</time>
      </trkpt>
      <trkpt lat="45.67155" lon="6.33644">
        <ele>459</ele>
        <time>2020-06-06T14:15:06Z</time>
      </trkpt>
      <trkpt lat="45.67155" lon="6.33647">
        <ele>458</ele>
        <time>2020-06-06T14:15:08Z</time>
      </trkpt>
      <trkpt lat="45.67155" lon="6.33653">
        <ele>457</ele>
        <time>2020-06-06T14:15:12Z</time>
      </trkpt>
      <trkpt lat="45.67156" lon="6.33656">
        <ele>457</ele>
        <time>2020-06-06T14:15:14Z</time>
      </trkpt>
      <trkpt lat="45.67156" lon="6.33659">
        <ele>457</ele>
        <time>2020-06-06T14:15:16Z</time>
      </trkpt>
      <trkpt lat="45.67156" lon="6.33662">
        <ele>457</ele>
        <time>2020-06-06T14:15:20Z</time>
      </trkpt>
      <trkpt lat="45.67155" lon="6.33665">
        <ele>459</ele>
        <time>2020-06-06T14:15:22Z</time>
      </trkpt>
      <trkpt lat="45.67153" lon="6.33668">
        <ele>460</ele>
        <time>2020-06-06T14:15:24Z</time>
      </trkpt>
      <trkpt lat="45.67152" lon="6.3367">
        <ele>462</ele>
        <time>2020-06-06T14:15:26Z</time>
      </trkpt>
      <trkpt lat="45.67152" lon="6.33674">
        <ele>464</ele>
        <time>2020-06-06T14:15:30Z</time>
      </trkpt>
      <trkpt lat="45.67154" lon="6.33684">
        <ele>467</ele>
        <time>2020-06-06T14:15:38Z</time>
      </trkpt>
      <trkpt lat="45.67155" lon="6.33687">
        <ele>468</ele>
        <time>2020-06-06T14:15:40Z</time>
      </trkpt>
      <trkpt lat="45.67155" lon="6.33692">
        <ele>468</ele>
        <time>2020-06-06T14:15:42Z</time>
      </trkpt>
      <trkpt lat="45.67155" lon="6.33694">
        <ele>468</ele>
        <time>2020-06-06T14:15:43Z</time>
      </trkpt>
      <trkpt lat="45.67153" lon="6.33709">
        <ele>467</ele>
        <time>2020-06-06T14:15:50Z</time>
      </trkpt>
      <trkpt lat="45.67151" lon="6.33724">
        <ele>462</ele>
        <time>2020-06-06T14:15:57Z</time>
      </trkpt>
      <trkpt lat="45.67149" lon="6.33737">
        <ele>457</ele>
        <time>2020-06-06T14:16:04Z</time>
      </trkpt>
      <trkpt lat="45.67149" lon="6.3374">
        <ele>456</ele>
        <time>2020-06-06T14:16:06Z</time>
      </trkpt>
      <trkpt lat="45.67148" lon="6.33743">
        <ele>455</ele>
        <time>2020-06-06T14:16:08Z</time>
      </trkpt>
      <trkpt lat="45.67149" lon="6.33749">
        <ele>453</ele>
        <time>2020-06-06T14:16:12Z</time>
      </trkpt>
      <trkpt lat="45.67154" lon="6.33759">
        <ele>451</ele>
        <time>2020-06-06T14:16:20Z</time>
      </trkpt>
      <trkpt lat="45.67156" lon="6.33767">
        <ele>450</ele>
        <time>2020-06-06T14:16:27Z</time>
      </trkpt>
      <trkpt lat="45.67156" lon="6.33778">
        <ele>450</ele>
        <time>2020-06-06T14:16:33Z</time>
      </trkpt>
      <trkpt lat="45.67155" lon="6.33781">
        <ele>450</ele>
        <time>2020-06-06T14:16:35Z</time>
      </trkpt>
      <trkpt lat="45.67156" lon="6.3379">
        <ele>451</ele>
        <time>2020-06-06T14:16:39Z</time>
      </trkpt>
      <trkpt lat="45.67157" lon="6.33793">
        <ele>451</ele>
        <time>2020-06-06T14:16:41Z</time>
      </trkpt>
      <trkpt lat="45.67158" lon="6.33795">
        <ele>452</ele>
        <time>2020-06-06T14:16:42Z</time>
      </trkpt>
      <trkpt lat="45.67158" lon="6.338">
        <ele>453</ele>
        <time>2020-06-06T14:16:44Z</time>
      </trkpt>
      <trkpt lat="45.67156" lon="6.33803">
        <ele>453</ele>
        <time>2020-06-06T14:16:45Z</time>
      </trkpt>
      <trkpt lat="45.67156" lon="6.33807">
        <ele>453</ele>
        <time>2020-06-06T14:16:47Z</time>
      </trkpt>
      <trkpt lat="45.67156" lon="6.3381">
        <ele>453</ele>
        <time>2020-06-06T14:16:49Z</time>
      </trkpt>
      <trkpt lat="45.67152" lon="6.33826">
        <ele>450</ele>
        <time>2020-06-06T14:17:04Z</time>
      </trkpt>
      <trkpt lat="45.67152" lon="6.33829">
        <ele>450</ele>
        <time>2020-06-06T14:17:06Z</time>
      </trkpt>
      <trkpt lat="45.6715" lon="6.33835">
        <ele>449</ele>
        <time>2020-06-06T14:17:12Z</time>
      </trkpt>
      <trkpt lat="45.67152" lon="6.33847">
        <ele>451</ele>
        <time>2020-06-06T14:17:21Z</time>
      </trkpt>
      <trkpt lat="45.67152" lon="6.3385">
        <ele>451</ele>
        <time>2020-06-06T14:17:23Z</time>
      </trkpt>
      <trkpt lat="45.67152" lon="6.33853">
        <ele>451</ele>
        <time>2020-06-06T14:17:25Z</time>
      </trkpt>
      <trkpt lat="45.67153" lon="6.33855">
        <ele>451</ele>
        <time>2020-06-06T14:17:26Z</time>
      </trkpt>
      <trkpt lat="45.67155" lon="6.33859">
        <ele>451</ele>
        <time>2020-06-06T14:17:28Z</time>
      </trkpt>
      <trkpt lat="45.67157" lon="6.33866">
        <ele>451</ele>
        <time>2020-06-06T14:17:32Z</time>
      </trkpt>
      <trkpt lat="45.67157" lon="6.33868">
        <ele>452</ele>
        <time>2020-06-06T14:17:33Z</time>
      </trkpt>
      <trkpt lat="45.67158" lon="6.33872">
        <ele>452</ele>
        <time>2020-06-06T14:17:35Z</time>
      </trkpt>
      <trkpt lat="45.6716" lon="6.33883">
        <ele>453</ele>
        <time>2020-06-06T14:17:39Z</time>
      </trkpt>
      <trkpt lat="45.6716" lon="6.33886">
        <ele>453</ele>
        <time>2020-06-06T14:17:40Z</time>
      </trkpt>
      <trkpt lat="45.67161" lon="6.33888">
        <ele>453</ele>
        <time>2020-06-06T14:17:41Z</time>
      </trkpt>
      <trkpt lat="45.67161" lon="6.3389">
        <ele>453</ele>
        <time>2020-06-06T14:17:42Z</time>
      </trkpt>
      <trkpt lat="45.67162" lon="6.33893">
        <ele>453</ele>
        <time>2020-06-06T14:17:45Z</time>
      </trkpt>
      <trkpt lat="45.67163" lon="6.33897">
        <ele>453</ele>
        <time>2020-06-06T14:17:47Z</time>
      </trkpt>
      <trkpt lat="45.67162" lon="6.3391">
        <ele>451</ele>
        <time>2020-06-06T14:17:55Z</time>
      </trkpt>
      <trkpt lat="45.67162" lon="6.33913">
        <ele>450</ele>
        <time>2020-06-06T14:17:57Z</time>
      </trkpt>
      <trkpt lat="45.67162" lon="6.33922">
        <ele>449</ele>
        <time>2020-06-06T14:18:03Z</time>
      </trkpt>
      <trkpt lat="45.67164" lon="6.3393">
        <ele>450</ele>
        <time>2020-06-06T14:18:10Z</time>
      </trkpt>
      <trkpt lat="45.67165" lon="6.33936">
        <ele>451</ele>
        <time>2020-06-06T14:18:16Z</time>
      </trkpt>
      <trkpt lat="45.67173" lon="6.33954">
        <ele>454</ele>
        <time>2020-06-06T14:18:32Z</time>
      </trkpt>
      <trkpt lat="45.67175" lon="6.33956">
        <ele>455</ele>
        <time>2020-06-06T14:18:34Z</time>
      </trkpt>
      <trkpt lat="45.67179" lon="6.33962">
        <ele>455</ele>
        <time>2020-06-06T14:18:40Z</time>
      </trkpt>
      <trkpt lat="45.6718" lon="6.33964">
        <ele>455</ele>
        <time>2020-06-06T14:18:42Z</time>
      </trkpt>
      <trkpt lat="45.67182" lon="6.33967">
        <ele>456</ele>
        <time>2020-06-06T14:18:44Z</time>
      </trkpt>
      <trkpt lat="45.67183" lon="6.33969">
        <ele>456</ele>
        <time>2020-06-06T14:18:46Z</time>
      </trkpt>
      <trkpt lat="45.67189" lon="6.33978">
        <ele>456</ele>
        <time>2020-06-06T14:18:54Z</time>
      </trkpt>
      <trkpt lat="45.67194" lon="6.33987">
        <ele>457</ele>
        <time>2020-06-06T14:19:01Z</time>
      </trkpt>
      <trkpt lat="45.67195" lon="6.33989">
        <ele>457</ele>
        <time>2020-06-06T14:19:03Z</time>
      </trkpt>
      <trkpt lat="45.67197" lon="6.33991">
        <ele>457</ele>
        <time>2020-06-06T14:19:05Z</time>
      </trkpt>
      <trkpt lat="45.672" lon="6.33996">
        <ele>456</ele>
        <time>2020-06-06T14:19:09Z</time>
      </trkpt>
      <trkpt lat="45.67202" lon="6.34001">
        <ele>456</ele>
        <time>2020-06-06T14:19:13Z</time>
      </trkpt>
      <trkpt lat="45.67204" lon="6.34003">
        <ele>457</ele>
        <time>2020-06-06T14:19:15Z</time>
      </trkpt>
      <trkpt lat="45.67216" lon="6.34022">
        <ele>459</ele>
        <time>2020-06-06T14:19:34Z</time>
      </trkpt>
      <trkpt lat="45.67221" lon="6.34028">
        <ele>460</ele>
        <time>2020-06-06T14:19:42Z</time>
      </trkpt>
      <trkpt lat="45.67223" lon="6.34029">
        <ele>460</ele>
        <time>2020-06-06T14:19:44Z</time>
      </trkpt>
      <trkpt lat="45.67231" lon="6.34039">
        <ele>462</ele>
        <time>2020-06-06T14:19:54Z</time>
      </trkpt>
      <trkpt lat="45.67233" lon="6.34044">
        <ele>463</ele>
        <time>2020-06-06T14:19:59Z</time>
      </trkpt>
      <trkpt lat="45.67234" lon="6.34046">
        <ele>463</ele>
        <time>2020-06-06T14:20:01Z</time>
      </trkpt>
      <trkpt lat="45.67235" lon="6.34048">
        <ele>464</ele>
        <time>2020-06-06T14:20:04Z</time>
      </trkpt>
      <trkpt lat="45.67237" lon="6.34049">
        <ele>466</ele>
        <time>2020-06-06T14:20:07Z</time>
      </trkpt>
      <trkpt lat="45.67239" lon="6.34052">
        <ele>466</ele>
        <time>2020-06-06T14:20:09Z</time>
      </trkpt>
      <trkpt lat="45.67241" lon="6.34054">
        <ele>467</ele>
        <time>2020-06-06T14:20:11Z</time>
      </trkpt>
      <trkpt lat="45.67243" lon="6.34056">
        <ele>467</ele>
        <time>2020-06-06T14:20:13Z</time>
      </trkpt>
      <trkpt lat="45.67245" lon="6.3406">
        <ele>467</ele>
        <time>2020-06-06T14:20:16Z</time>
      </trkpt>
      <trkpt lat="45.67246" lon="6.34063">
        <ele>468</ele>
        <time>2020-06-06T14:20:18Z</time>
      </trkpt>
      <trkpt lat="45.67249" lon="6.34068">
        <ele>467</ele>
        <time>2020-06-06T14:20:21Z</time>
      </trkpt>
      <trkpt lat="45.67252" lon="6.34074">
        <ele>466</ele>
        <time>2020-06-06T14:20:24Z</time>
      </trkpt>
      <trkpt lat="45.67256" lon="6.3408">
        <ele>466</ele>
        <time>2020-06-06T14:20:29Z</time>
      </trkpt>
      <trkpt lat="45.67261" lon="6.34091">
        <ele>465</ele>
        <time>2020-06-06T14:20:39Z</time>
      </trkpt>
      <trkpt lat="45.67263" lon="6.34096">
        <ele>465</ele>
        <time>2020-06-06T14:20:44Z</time>
      </trkpt>
      <trkpt lat="45.67265" lon="6.34098">
        <ele>464</ele>
        <time>2020-06-06T14:20:46Z</time>
      </trkpt>
      <trkpt lat="45.67268" lon="6.34104">
        <ele>463</ele>
        <time>2020-06-06T14:20:50Z</time>
      </trkpt>
      <trkpt lat="45.67269" lon="6.34105">
        <ele>463</ele>
        <time>2020-06-06T14:20:51Z</time>
      </trkpt>
      <trkpt lat="45.67279" lon="6.3412">
        <ele>461</ele>
        <time>2020-06-06T14:21:00Z</time>
      </trkpt>
      <trkpt lat="45.67283" lon="6.34123">
        <ele>459</ele>
        <time>2020-06-06T14:21:03Z</time>
      </trkpt>
      <trkpt lat="45.67297" lon="6.34142">
        <ele>453</ele>
        <time>2020-06-06T14:21:16Z</time>
      </trkpt>
      <trkpt lat="45.67299" lon="6.34145">
        <ele>452</ele>
        <time>2020-06-06T14:21:18Z</time>
      </trkpt>
      <trkpt lat="45.67304" lon="6.34152">
        <ele>451</ele>
        <time>2020-06-06T14:21:23Z</time>
      </trkpt>
      <trkpt lat="45.67305" lon="6.34154">
        <ele>451</ele>
        <time>2020-06-06T14:21:25Z</time>
      </trkpt>
      <trkpt lat="45.67307" lon="6.34157">
        <ele>451</ele>
        <time>2020-06-06T14:21:27Z</time>
      </trkpt>
      <trkpt lat="45.67309" lon="6.34159">
        <ele>451</ele>
        <time>2020-06-06T14:21:29Z</time>
      </trkpt>
      <trkpt lat="45.67312" lon="6.34164">
        <ele>453</ele>
        <time>2020-06-06T14:21:33Z</time>
      </trkpt>
      <trkpt lat="45.67313" lon="6.34165">
        <ele>453</ele>
        <time>2020-06-06T14:21:34Z</time>
      </trkpt>
      <trkpt lat="45.67333" lon="6.34196">
        <ele>448</ele>
        <time>2020-06-06T14:21:58Z</time>
      </trkpt>
      <trkpt lat="45.67335" lon="6.34198">
        <ele>448</ele>
        <time>2020-06-06T14:22:00Z</time>
      </trkpt>
      <trkpt lat="45.6734" lon="6.34208">
        <ele>447</ele>
        <time>2020-06-06T14:22:07Z</time>
      </trkpt>
      <trkpt lat="45.67341" lon="6.3421">
        <ele>447</ele>
        <time>2020-06-06T14:22:09Z</time>
      </trkpt>
      <trkpt lat="45.67343" lon="6.34214">
        <ele>448</ele>
        <time>2020-06-06T14:22:12Z</time>
      </trkpt>
      <trkpt lat="45.67349" lon="6.34225">
        <ele>447</ele>
        <time>2020-06-06T14:22:20Z</time>
      </trkpt>
      <trkpt lat="45.67351" lon="6.34228">
        <ele>447</ele>
        <time>2020-06-06T14:22:23Z</time>
      </trkpt>
      <trkpt lat="45.67353" lon="6.3423">
        <ele>446</ele>
        <time>2020-06-06T14:22:25Z</time>
      </trkpt>
      <trkpt lat="45.67355" lon="6.34234">
        <ele>446</ele>
        <time>2020-06-06T14:22:28Z</time>
      </trkpt>
      <trkpt lat="45.67358" lon="6.34239">
        <ele>446</ele>
        <time>2020-06-06T14:22:32Z</time>
      </trkpt>
      <trkpt lat="45.67359" lon="6.34242">
        <ele>446</ele>
        <time>2020-06-06T14:22:34Z</time>
      </trkpt>
      <trkpt lat="45.6736" lon="6.34245">
        <ele>446</ele>
        <time>2020-06-06T14:22:36Z</time>
      </trkpt>
      <trkpt lat="45.67362" lon="6.34247">
        <ele>447</ele>
        <time>2020-06-06T14:22:38Z</time>
      </trkpt>
      <trkpt lat="45.67362" lon="6.34251">
        <ele>447</ele>
        <time>2020-06-06T14:22:40Z</time>
      </trkpt>
      <trkpt lat="45.67367" lon="6.34266">
        <ele>448</ele>
        <time>2020-06-06T14:22:51Z</time>
      </trkpt>
      <trkpt lat="45.67368" lon="6.34269">
        <ele>448</ele>
        <time>2020-06-06T14:22:53Z</time>
      </trkpt>
      <trkpt lat="45.67369" lon="6.34272">
        <ele>447</ele>
        <time>2020-06-06T14:22:55Z</time>
      </trkpt>
      <trkpt lat="45.6737" lon="6.34277">
        <ele>447</ele>
        <time>2020-06-06T14:23:00Z</time>
      </trkpt>
      <trkpt lat="45.67373" lon="6.34283">
        <ele>446</ele>
        <time>2020-06-06T14:23:04Z</time>
      </trkpt>
      <trkpt lat="45.67374" lon="6.34286">
        <ele>446</ele>
        <time>2020-06-06T14:23:06Z</time>
      </trkpt>
      <trkpt lat="45.67375" lon="6.34288">
        <ele>446</ele>
        <time>2020-06-06T14:23:08Z</time>
      </trkpt>
      <trkpt lat="45.67377" lon="6.34292">
        <ele>446</ele>
        <time>2020-06-06T14:23:10Z</time>
      </trkpt>
      <trkpt lat="45.67379" lon="6.34294">
        <ele>445</ele>
        <time>2020-06-06T14:23:12Z</time>
      </trkpt>
      <trkpt lat="45.67383" lon="6.34302">
        <ele>445</ele>
        <time>2020-06-06T14:23:17Z</time>
      </trkpt>
      <trkpt lat="45.67386" lon="6.34306">
        <ele>444</ele>
        <time>2020-06-06T14:23:20Z</time>
      </trkpt>
      <trkpt lat="45.67389" lon="6.34313">
        <ele>443</ele>
        <time>2020-06-06T14:23:25Z</time>
      </trkpt>
      <trkpt lat="45.67391" lon="6.34316">
        <ele>442</ele>
        <time>2020-06-06T14:23:27Z</time>
      </trkpt>
      <trkpt lat="45.674" lon="6.34332">
        <ele>441</ele>
        <time>2020-06-06T14:23:39Z</time>
      </trkpt>
      <trkpt lat="45.67401" lon="6.34334">
        <ele>441</ele>
        <time>2020-06-06T14:23:41Z</time>
      </trkpt>
      <trkpt lat="45.67416" lon="6.34357">
        <ele>439</ele>
        <time>2020-06-06T14:24:00Z</time>
      </trkpt>
      <trkpt lat="45.67417" lon="6.3436">
        <ele>438</ele>
        <time>2020-06-06T14:24:02Z</time>
      </trkpt>
      <trkpt lat="45.67423" lon="6.34369">
        <ele>439</ele>
        <time>2020-06-06T14:24:10Z</time>
      </trkpt>
      <trkpt lat="45.67424" lon="6.34371">
        <ele>439</ele>
        <time>2020-06-06T14:24:12Z</time>
      </trkpt>
      <trkpt lat="45.67428" lon="6.34373">
        <ele>440</ele>
        <time>2020-06-06T14:24:16Z</time>
      </trkpt>
      <trkpt lat="45.67429" lon="6.34376">
        <ele>440</ele>
        <time>2020-06-06T14:24:18Z</time>
      </trkpt>
      <trkpt lat="45.67437" lon="6.34413">
        <ele>439</ele>
        <time>2020-06-06T14:24:42Z</time>
      </trkpt>
      <trkpt lat="45.67438" lon="6.34416">
        <ele>438</ele>
        <time>2020-06-06T14:24:44Z</time>
      </trkpt>
      <trkpt lat="45.67441" lon="6.34431">
        <ele>436</ele>
        <time>2020-06-06T14:24:55Z</time>
      </trkpt>
      <trkpt lat="45.67443" lon="6.34434">
        <ele>436</ele>
        <time>2020-06-06T14:24:57Z</time>
      </trkpt>
      <trkpt lat="45.67443" lon="6.34436">
        <ele>435</ele>
        <time>2020-06-06T14:24:59Z</time>
      </trkpt>
      <trkpt lat="45.67445" lon="6.34442">
        <ele>434</ele>
        <time>2020-06-06T14:25:03Z</time>
      </trkpt>
      <trkpt lat="45.67448" lon="6.34451">
        <ele>432</ele>
        <time>2020-06-06T14:25:09Z</time>
      </trkpt>
      <trkpt lat="45.67449" lon="6.34454">
        <ele>431</ele>
        <time>2020-06-06T14:25:11Z</time>
      </trkpt>
      <trkpt lat="45.67451" lon="6.34457">
        <ele>431</ele>
        <time>2020-06-06T14:25:13Z</time>
      </trkpt>
      <trkpt lat="45.67452" lon="6.34465">
        <ele>430</ele>
        <time>2020-06-06T14:25:18Z</time>
      </trkpt>
      <trkpt lat="45.67453" lon="6.34469">
        <ele>431</ele>
        <time>2020-06-06T14:25:21Z</time>
      </trkpt>
      <trkpt lat="45.67454" lon="6.34472">
        <ele>431</ele>
        <time>2020-06-06T14:25:23Z</time>
      </trkpt>
      <trkpt lat="45.67458" lon="6.3448">
        <ele>430</ele>
        <time>2020-06-06T14:25:29Z</time>
      </trkpt>
      <trkpt lat="45.6746" lon="6.34485">
        <ele>430</ele>
        <time>2020-06-06T14:25:33Z</time>
      </trkpt>
      <trkpt lat="45.67464" lon="6.34493">
        <ele>432</ele>
        <time>2020-06-06T14:25:38Z</time>
      </trkpt>
      <trkpt lat="45.67464" lon="6.34495">
        <ele>432</ele>
        <time>2020-06-06T14:25:39Z</time>
      </trkpt>
      <trkpt lat="45.67478" lon="6.34511">
        <ele>428</ele>
        <time>2020-06-06T14:25:53Z</time>
      </trkpt>
      <trkpt lat="45.67483" lon="6.34516">
        <ele>428</ele>
        <time>2020-06-06T14:25:58Z</time>
      </trkpt>
      <trkpt lat="45.67486" lon="6.34519">
        <ele>427</ele>
        <time>2020-06-06T14:26:01Z</time>
      </trkpt>
      <trkpt lat="45.6749" lon="6.34521">
        <ele>426</ele>
        <time>2020-06-06T14:26:05Z</time>
      </trkpt>
      <trkpt lat="45.67495" lon="6.34523">
        <ele>427</ele>
        <time>2020-06-06T14:26:11Z</time>
      </trkpt>
      <trkpt lat="45.67498" lon="6.34526">
        <ele>429</ele>
        <time>2020-06-06T14:26:16Z</time>
      </trkpt>
      <trkpt lat="45.675" lon="6.34527">
        <ele>430</ele>
        <time>2020-06-06T14:26:18Z</time>
      </trkpt>
      <trkpt lat="45.67503" lon="6.34529">
        <ele>431</ele>
        <time>2020-06-06T14:26:22Z</time>
      </trkpt>
      <trkpt lat="45.67508" lon="6.34531">
        <ele>433</ele>
        <time>2020-06-06T14:26:26Z</time>
      </trkpt>
      <trkpt lat="45.67508" lon="6.3453">
        <ele>433</ele>
        <time>2020-06-06T14:26:44Z</time>
      </trkpt>
      <trkpt lat="45.67507" lon="6.3453">
        <ele>433</ele>
        <time>2020-06-06T14:26:51Z</time>
      </trkpt>
      <trkpt lat="45.67505" lon="6.34528">
        <ele>433</ele>
        <time>2020-06-06T14:27:13Z</time>
      </trkpt>
      <trkpt lat="45.67508" lon="6.34535">
        <ele>434</ele>
        <time>2020-06-06T14:27:19Z</time>
      </trkpt>
      <trkpt lat="45.67512" lon="6.34539">
        <ele>433</ele>
        <time>2020-06-06T14:27:23Z</time>
      </trkpt>
      <trkpt lat="45.67513" lon="6.34539">
        <ele>431</ele>
        <time>2020-06-06T14:27:32Z</time>
      </trkpt>
      <trkpt lat="45.67514" lon="6.34541">
        <ele>431</ele>
        <time>2020-06-06T14:27:36Z</time>
      </trkpt>
      <trkpt lat="45.67517" lon="6.34542">
        <ele>430</ele>
        <time>2020-06-06T14:27:38Z</time>
      </trkpt>
      <trkpt lat="45.67521" lon="6.34546">
        <ele>430</ele>
        <time>2020-06-06T14:27:42Z</time>
      </trkpt>
      <trkpt lat="45.67522" lon="6.34548">
        <ele>430</ele>
        <time>2020-06-06T14:27:44Z</time>
      </trkpt>
      <trkpt lat="45.67525" lon="6.34552">
        <ele>430</ele>
        <time>2020-06-06T14:27:48Z</time>
      </trkpt>
      <trkpt lat="45.67531" lon="6.34564">
        <ele>429</ele>
        <time>2020-06-06T14:27:56Z</time>
      </trkpt>
      <trkpt lat="45.67534" lon="6.34568">
        <ele>429</ele>
        <time>2020-06-06T14:27:59Z</time>
      </trkpt>
      <trkpt lat="45.6754" lon="6.34581">
        <ele>426</ele>
        <time>2020-06-06T14:28:09Z</time>
      </trkpt>
      <trkpt lat="45.67543" lon="6.3459">
        <ele>425</ele>
        <time>2020-06-06T14:28:15Z</time>
      </trkpt>
      <trkpt lat="45.67544" lon="6.34599">
        <ele>423</ele>
        <time>2020-06-06T14:28:20Z</time>
      </trkpt>
      <trkpt lat="45.67544" lon="6.34607">
        <ele>423</ele>
        <time>2020-06-06T14:28:24Z</time>
      </trkpt>
      <trkpt lat="45.67543" lon="6.34611">
        <ele>422</ele>
        <time>2020-06-06T14:28:26Z</time>
      </trkpt>
      <trkpt lat="45.67542" lon="6.34614">
        <ele>422</ele>
        <time>2020-06-06T14:28:28Z</time>
      </trkpt>
      <trkpt lat="45.6754" lon="6.3462">
        <ele>421</ele>
        <time>2020-06-06T14:28:32Z</time>
      </trkpt>
      <trkpt lat="45.67538" lon="6.34622">
        <ele>420</ele>
        <time>2020-06-06T14:28:34Z</time>
      </trkpt>
      <trkpt lat="45.67533" lon="6.34627">
        <ele>419</ele>
        <time>2020-06-06T14:28:39Z</time>
      </trkpt>
      <trkpt lat="45.67529" lon="6.34628">
        <ele>417</ele>
        <time>2020-06-06T14:28:43Z</time>
      </trkpt>
      <trkpt lat="45.67528" lon="6.3463">
        <ele>417</ele>
        <time>2020-06-06T14:28:44Z</time>
      </trkpt>
      <trkpt lat="45.67525" lon="6.34633">
        <ele>416</ele>
        <time>2020-06-06T14:28:48Z</time>
      </trkpt>
      <trkpt lat="45.67522" lon="6.34634">
        <ele>415</ele>
        <time>2020-06-06T14:28:50Z</time>
      </trkpt>
      <trkpt lat="45.67517" lon="6.34639">
        <ele>414</ele>
        <time>2020-06-06T14:28:56Z</time>
      </trkpt>
      <trkpt lat="45.67513" lon="6.34641">
        <ele>413</ele>
        <time>2020-06-06T14:28:59Z</time>
      </trkpt>
      <trkpt lat="45.67498" lon="6.34652">
        <ele>408</ele>
        <time>2020-06-06T14:29:12Z</time>
      </trkpt>
      <trkpt lat="45.67496" lon="6.34653">
        <ele>407</ele>
        <time>2020-06-06T14:29:15Z</time>
      </trkpt>
      <trkpt lat="45.6749" lon="6.34658">
        <ele>407</ele>
        <time>2020-06-06T14:29:21Z</time>
      </trkpt>
      <trkpt lat="45.67488" lon="6.34658">
        <ele>408</ele>
        <time>2020-06-06T14:29:23Z</time>
      </trkpt>
      <trkpt lat="45.67486" lon="6.3466">
        <ele>408</ele>
        <time>2020-06-06T14:29:25Z</time>
      </trkpt>
      <trkpt lat="45.67481" lon="6.34663">
        <ele>410</ele>
        <time>2020-06-06T14:29:32Z</time>
      </trkpt>
      <trkpt lat="45.67469" lon="6.34665">
        <ele>411</ele>
        <time>2020-06-06T14:29:41Z</time>
      </trkpt>
      <trkpt lat="45.67467" lon="6.34665">
        <ele>411</ele>
        <time>2020-06-06T14:29:43Z</time>
      </trkpt>
      <trkpt lat="45.67462" lon="6.34664">
        <ele>410</ele>
        <time>2020-06-06T14:29:48Z</time>
      </trkpt>
      <trkpt lat="45.6746" lon="6.34663">
        <ele>410</ele>
        <time>2020-06-06T14:29:50Z</time>
      </trkpt>
      <trkpt lat="45.67456" lon="6.34662">
        <ele>410</ele>
        <time>2020-06-06T14:29:52Z</time>
      </trkpt>
      <trkpt lat="45.67455" lon="6.34661">
        <ele>410</ele>
        <time>2020-06-06T14:29:53Z</time>
      </trkpt>
      <trkpt lat="45.67452" lon="6.3466">
        <ele>410</ele>
        <time>2020-06-06T14:29:55Z</time>
      </trkpt>
      <trkpt lat="45.6745" lon="6.34658">
        <ele>410</ele>
        <time>2020-06-06T14:29:57Z</time>
      </trkpt>
      <trkpt lat="45.67446" lon="6.34656">
        <ele>410</ele>
        <time>2020-06-06T14:30:00Z</time>
      </trkpt>
      <trkpt lat="45.67444" lon="6.34654">
        <ele>410</ele>
        <time>2020-06-06T14:30:02Z</time>
      </trkpt>
      <trkpt lat="45.67442" lon="6.34653">
        <ele>409</ele>
        <time>2020-06-06T14:30:04Z</time>
      </trkpt>
      <trkpt lat="45.6744" lon="6.34652">
        <ele>409</ele>
        <time>2020-06-06T14:30:06Z</time>
      </trkpt>
      <trkpt lat="45.67439" lon="6.34651">
        <ele>408</ele>
        <time>2020-06-06T14:30:07Z</time>
      </trkpt>
      <trkpt lat="45.67438" lon="6.3465">
        <ele>408</ele>
        <time>2020-06-06T14:30:08Z</time>
      </trkpt>
      <trkpt lat="45.67433" lon="6.34648">
        <ele>407</ele>
        <time>2020-06-06T14:30:12Z</time>
      </trkpt>
      <trkpt lat="45.67431" lon="6.34647">
        <ele>407</ele>
        <time>2020-06-06T14:30:13Z</time>
      </trkpt>
      <trkpt lat="45.6743" lon="6.34646">
        <ele>406</ele>
        <time>2020-06-06T14:30:15Z</time>
      </trkpt>
      <trkpt lat="45.67428" lon="6.34646">
        <ele>406</ele>
        <time>2020-06-06T14:30:16Z</time>
      </trkpt>
      <trkpt lat="45.67427" lon="6.34644">
        <ele>405</ele>
        <time>2020-06-06T14:30:18Z</time>
      </trkpt>
      <trkpt lat="45.67425" lon="6.34643">
        <ele>405</ele>
        <time>2020-06-06T14:30:20Z</time>
      </trkpt>
      <trkpt lat="45.67423" lon="6.34643">
        <ele>405</ele>
        <time>2020-06-06T14:30:22Z</time>
      </trkpt>
      <trkpt lat="45.67421" lon="6.34642">
        <ele>405</ele>
        <time>2020-06-06T14:30:24Z</time>
      </trkpt>
      <trkpt lat="45.67419" lon="6.34642">
        <ele>405</ele>
        <time>2020-06-06T14:30:25Z</time>
      </trkpt>
      <trkpt lat="45.67412" lon="6.34641">
        <ele>404</ele>
        <time>2020-06-06T14:30:30Z</time>
      </trkpt>
      <trkpt lat="45.67408" lon="6.34639">
        <ele>404</ele>
        <time>2020-06-06T14:30:34Z</time>
      </trkpt>
      <trkpt lat="45.67403" lon="6.34637">
        <ele>404</ele>
        <time>2020-06-06T14:30:38Z</time>
      </trkpt>
      <trkpt lat="45.674" lon="6.34637">
        <ele>404</ele>
        <time>2020-06-06T14:30:40Z</time>
      </trkpt>
      <trkpt lat="45.67398" lon="6.34637">
        <ele>404</ele>
        <time>2020-06-06T14:30:42Z</time>
      </trkpt>
      <trkpt lat="45.67395" lon="6.34638">
        <ele>404</ele>
        <time>2020-06-06T14:30:44Z</time>
      </trkpt>
      <trkpt lat="45.67393" lon="6.34639">
        <ele>405</ele>
        <time>2020-06-06T14:30:46Z</time>
      </trkpt>
      <trkpt lat="45.67391" lon="6.34639">
        <ele>405</ele>
        <time>2020-06-06T14:30:48Z</time>
      </trkpt>
      <trkpt lat="45.67374" lon="6.34641">
        <ele>401</ele>
        <time>2020-06-06T14:31:02Z</time>
      </trkpt>
      <trkpt lat="45.67373" lon="6.34641">
        <ele>401</ele>
        <time>2020-06-06T14:31:03Z</time>
      </trkpt>
      <trkpt lat="45.6737" lon="6.34643">
        <ele>400</ele>
        <time>2020-06-06T14:31:06Z</time>
      </trkpt>
      <trkpt lat="45.67368" lon="6.34643">
        <ele>400</ele>
        <time>2020-06-06T14:31:07Z</time>
      </trkpt>
      <trkpt lat="45.67358" lon="6.34644">
        <ele>399</ele>
        <time>2020-06-06T14:31:15Z</time>
      </trkpt>
      <trkpt lat="45.67356" lon="6.34644">
        <ele>399</ele>
        <time>2020-06-06T14:31:16Z</time>
      </trkpt>
      <trkpt lat="45.67353" lon="6.34643">
        <ele>399</ele>
        <time>2020-06-06T14:31:19Z</time>
      </trkpt>
      <trkpt lat="45.6735" lon="6.34643">
        <ele>399</ele>
        <time>2020-06-06T14:31:21Z</time>
      </trkpt>
      <trkpt lat="45.67349" lon="6.34644">
        <ele>399</ele>
        <time>2020-06-06T14:31:22Z</time>
      </trkpt>
      <trkpt lat="45.67348" lon="6.34644">
        <ele>399</ele>
        <time>2020-06-06T14:31:23Z</time>
      </trkpt>
      <trkpt lat="45.67346" lon="6.34645">
        <ele>399</ele>
        <time>2020-06-06T14:31:25Z</time>
      </trkpt>
      <trkpt lat="45.67342" lon="6.34648">
        <ele>399</ele>
        <time>2020-06-06T14:31:29Z</time>
      </trkpt>
      <trkpt lat="45.67339" lon="6.34652">
        <ele>399</ele>
        <time>2020-06-06T14:31:33Z</time>
      </trkpt>
      <trkpt lat="45.67337" lon="6.34654">
        <ele>398</ele>
        <time>2020-06-06T14:31:35Z</time>
      </trkpt>
      <trkpt lat="45.67335" lon="6.34655">
        <ele>398</ele>
        <time>2020-06-06T14:31:37Z</time>
      </trkpt>
      <trkpt lat="45.67335" lon="6.34657">
        <ele>398</ele>
        <time>2020-06-06T14:31:39Z</time>
      </trkpt>
      <trkpt lat="45.67331" lon="6.34663">
        <ele>397</ele>
        <time>2020-06-06T14:31:45Z</time>
      </trkpt>
      <trkpt lat="45.67326" lon="6.34676">
        <ele>397</ele>
        <time>2020-06-06T14:31:55Z</time>
      </trkpt>
      <trkpt lat="45.6732" lon="6.34682">
        <ele>398</ele>
        <time>2020-06-06T14:31:59Z</time>
      </trkpt>
      <trkpt lat="45.67318" lon="6.34684">
        <ele>400</ele>
        <time>2020-06-06T14:32:01Z</time>
      </trkpt>
      <trkpt lat="45.67315" lon="6.34685">
        <ele>401</ele>
        <time>2020-06-06T14:32:03Z</time>
      </trkpt>
      <trkpt lat="45.67314" lon="6.34687">
        <ele>402</ele>
        <time>2020-06-06T14:32:05Z</time>
      </trkpt>
      <trkpt lat="45.67312" lon="6.3469">
        <ele>404</ele>
        <time>2020-06-06T14:32:07Z</time>
      </trkpt>
      <trkpt lat="45.67309" lon="6.34691">
        <ele>404</ele>
        <time>2020-06-06T14:32:09Z</time>
      </trkpt>
      <trkpt lat="45.67304" lon="6.34703">
        <ele>402</ele>
        <time>2020-06-06T14:32:16Z</time>
      </trkpt>
      <trkpt lat="45.67301" lon="6.34711">
        <ele>400</ele>
        <time>2020-06-06T14:32:21Z</time>
      </trkpt>
      <trkpt lat="45.67299" lon="6.34714">
        <ele>398</ele>
        <time>2020-06-06T14:32:24Z</time>
      </trkpt>
      <trkpt lat="45.67296" lon="6.34726">
        <ele>397</ele>
        <time>2020-06-06T14:32:34Z</time>
      </trkpt>
      <trkpt lat="45.67295" lon="6.34728">
        <ele>396</ele>
        <time>2020-06-06T14:32:37Z</time>
      </trkpt>
      <trkpt lat="45.67294" lon="6.34731">
        <ele>396</ele>
        <time>2020-06-06T14:32:41Z</time>
      </trkpt>
      <trkpt lat="45.67293" lon="6.34734">
        <ele>397</ele>
        <time>2020-06-06T14:32:43Z</time>
      </trkpt>
      <trkpt lat="45.67292" lon="6.34737">
        <ele>397</ele>
        <time>2020-06-06T14:32:45Z</time>
      </trkpt>
      <trkpt lat="45.67291" lon="6.34741">
        <ele>397</ele>
        <time>2020-06-06T14:32:47Z</time>
      </trkpt>
      <trkpt lat="45.67284" lon="6.34751">
        <ele>396</ele>
        <time>2020-06-06T14:32:54Z</time>
      </trkpt>
      <trkpt lat="45.6728" lon="6.34754">
        <ele>395</ele>
        <time>2020-06-06T14:32:59Z</time>
      </trkpt>
      <trkpt lat="45.67279" lon="6.34756">
        <ele>395</ele>
        <time>2020-06-06T14:33:01Z</time>
      </trkpt>
      <trkpt lat="45.67269" lon="6.34774">
        <ele>391</ele>
        <time>2020-06-06T14:33:14Z</time>
      </trkpt>
      <trkpt lat="45.67264" lon="6.34782">
        <ele>391</ele>
        <time>2020-06-06T14:33:20Z</time>
      </trkpt>
      <trkpt lat="45.67261" lon="6.34787">
        <ele>391</ele>
        <time>2020-06-06T14:33:22Z</time>
      </trkpt>
      <trkpt lat="45.6726" lon="6.34789">
        <ele>391</ele>
        <time>2020-06-06T14:33:24Z</time>
      </trkpt>
      <trkpt lat="45.67257" lon="6.34792">
        <ele>392</ele>
        <time>2020-06-06T14:33:27Z</time>
      </trkpt>
      <trkpt lat="45.67254" lon="6.34795">
        <ele>392</ele>
        <time>2020-06-06T14:33:29Z</time>
      </trkpt>
      <trkpt lat="45.67252" lon="6.34798">
        <ele>393</ele>
        <time>2020-06-06T14:33:31Z</time>
      </trkpt>
      <trkpt lat="45.67244" lon="6.34801">
        <ele>395</ele>
        <time>2020-06-06T14:33:37Z</time>
      </trkpt>
      <trkpt lat="45.67242" lon="6.34801">
        <ele>395</ele>
        <time>2020-06-06T14:33:39Z</time>
      </trkpt>
      <trkpt lat="45.6724" lon="6.348">
        <ele>396</ele>
        <time>2020-06-06T14:33:41Z</time>
      </trkpt>
      <trkpt lat="45.67239" lon="6.348">
        <ele>396</ele>
        <time>2020-06-06T14:33:43Z</time>
      </trkpt>
      <trkpt lat="45.67237" lon="6.34799">
        <ele>395</ele>
        <time>2020-06-06T14:33:45Z</time>
      </trkpt>
      <trkpt lat="45.67235" lon="6.34798">
        <ele>395</ele>
        <time>2020-06-06T14:33:46Z</time>
      </trkpt>
      <trkpt lat="45.67233" lon="6.34797">
        <ele>394</ele>
        <time>2020-06-06T14:33:48Z</time>
      </trkpt>
      <trkpt lat="45.6723" lon="6.34796">
        <ele>394</ele>
        <time>2020-06-06T14:33:50Z</time>
      </trkpt>
      <trkpt lat="45.67226" lon="6.34795">
        <ele>394</ele>
        <time>2020-06-06T14:33:54Z</time>
      </trkpt>
      <trkpt lat="45.67224" lon="6.34794">
        <ele>393</ele>
        <time>2020-06-06T14:33:56Z</time>
      </trkpt>
      <trkpt lat="45.67216" lon="6.3479">
        <ele>393</ele>
        <time>2020-06-06T14:34:03Z</time>
      </trkpt>
      <trkpt lat="45.6721" lon="6.34789">
        <ele>393</ele>
        <time>2020-06-06T14:34:09Z</time>
      </trkpt>
      <trkpt lat="45.67201" lon="6.34791">
        <ele>391</ele>
        <time>2020-06-06T14:34:16Z</time>
      </trkpt>
      <trkpt lat="45.67199" lon="6.34792">
        <ele>391</ele>
        <time>2020-06-06T14:34:18Z</time>
      </trkpt>
      <trkpt lat="45.67197" lon="6.34793">
        <ele>391</ele>
        <time>2020-06-06T14:34:20Z</time>
      </trkpt>
      <trkpt lat="45.67195" lon="6.34795">
        <ele>390</ele>
        <time>2020-06-06T14:34:22Z</time>
      </trkpt>
      <trkpt lat="45.67186" lon="6.34808">
        <ele>390</ele>
        <time>2020-06-06T14:34:34Z</time>
      </trkpt>
      <trkpt lat="45.67182" lon="6.34821">
        <ele>391</ele>
        <time>2020-06-06T14:34:42Z</time>
      </trkpt>
      <trkpt lat="45.67182" lon="6.34827">
        <ele>392</ele>
        <time>2020-06-06T14:34:46Z</time>
      </trkpt>
      <trkpt lat="45.67183" lon="6.34831">
        <ele>393</ele>
        <time>2020-06-06T14:34:48Z</time>
      </trkpt>
      <trkpt lat="45.67183" lon="6.34837">
        <ele>393</ele>
        <time>2020-06-06T14:34:51Z</time>
      </trkpt>
      <trkpt lat="45.67185" lon="6.34844">
        <ele>393</ele>
        <time>2020-06-06T14:34:55Z</time>
      </trkpt>
      <trkpt lat="45.67186" lon="6.34852">
        <ele>393</ele>
        <time>2020-06-06T14:35:00Z</time>
      </trkpt>
      <trkpt lat="45.67187" lon="6.34855">
        <ele>393</ele>
        <time>2020-06-06T14:35:02Z</time>
      </trkpt>
      <trkpt lat="45.67187" lon="6.34858">
        <ele>393</ele>
        <time>2020-06-06T14:35:04Z</time>
      </trkpt>
      <trkpt lat="45.67188" lon="6.34861">
        <ele>394</ele>
        <time>2020-06-06T14:35:06Z</time>
      </trkpt>
      <trkpt lat="45.67188" lon="6.34864">
        <ele>394</ele>
        <time>2020-06-06T14:35:08Z</time>
      </trkpt>
      <trkpt lat="45.67189" lon="6.34867">
        <ele>395</ele>
        <time>2020-06-06T14:35:10Z</time>
      </trkpt>
      <trkpt lat="45.67189" lon="6.34877">
        <ele>395</ele>
        <time>2020-06-06T14:35:15Z</time>
      </trkpt>
      <trkpt lat="45.67192" lon="6.34888">
        <ele>395</ele>
        <time>2020-06-06T14:35:22Z</time>
      </trkpt>
      <trkpt lat="45.67194" lon="6.34905">
        <ele>394</ele>
        <time>2020-06-06T14:35:32Z</time>
      </trkpt>
      <trkpt lat="45.67195" lon="6.34908">
        <ele>393</ele>
        <time>2020-06-06T14:35:34Z</time>
      </trkpt>
      <trkpt lat="45.67198" lon="6.34922">
        <ele>389</ele>
        <time>2020-06-06T14:35:44Z</time>
      </trkpt>
      <trkpt lat="45.672" lon="6.3493">
        <ele>387</ele>
        <time>2020-06-06T14:35:48Z</time>
      </trkpt>
      <trkpt lat="45.67202" lon="6.34934">
        <ele>387</ele>
        <time>2020-06-06T14:35:52Z</time>
      </trkpt>
      <trkpt lat="45.67201" lon="6.34937">
        <ele>387</ele>
        <time>2020-06-06T14:35:54Z</time>
      </trkpt>
      <trkpt lat="45.67201" lon="6.3494">
        <ele>387</ele>
        <time>2020-06-06T14:35:55Z</time>
      </trkpt>
      <trkpt lat="45.67203" lon="6.34946">
        <ele>388</ele>
        <time>2020-06-06T14:35:59Z</time>
      </trkpt>
      <trkpt lat="45.67203" lon="6.34949">
        <ele>388</ele>
        <time>2020-06-06T14:36:01Z</time>
      </trkpt>
      <trkpt lat="45.67204" lon="6.34952">
        <ele>388</ele>
        <time>2020-06-06T14:36:03Z</time>
      </trkpt>
      <trkpt lat="45.67203" lon="6.34956">
        <ele>389</ele>
        <time>2020-06-06T14:36:05Z</time>
      </trkpt>
      <trkpt lat="45.67204" lon="6.34958">
        <ele>391</ele>
        <time>2020-06-06T14:36:07Z</time>
      </trkpt>
      <trkpt lat="45.67204" lon="6.3496">
        <ele>392</ele>
        <time>2020-06-06T14:36:09Z</time>
      </trkpt>
      <trkpt lat="45.67212" lon="6.34984">
        <ele>395</ele>
        <time>2020-06-06T14:36:29Z</time>
      </trkpt>
      <trkpt lat="45.67213" lon="6.34989">
        <ele>394</ele>
        <time>2020-06-06T14:36:31Z</time>
      </trkpt>
      <trkpt lat="45.67213" lon="6.34991">
        <ele>393</ele>
        <time>2020-06-06T14:36:33Z</time>
      </trkpt>
      <trkpt lat="45.67214" lon="6.34993">
        <ele>392</ele>
        <time>2020-06-06T14:36:36Z</time>
      </trkpt>
      <trkpt lat="45.67215" lon="6.34994">
        <ele>391</ele>
        <time>2020-06-06T14:36:38Z</time>
      </trkpt>
      <trkpt lat="45.67217" lon="6.34995">
        <ele>390</ele>
        <time>2020-06-06T14:36:40Z</time>
      </trkpt>
      <trkpt lat="45.67222" lon="6.34997">
        <ele>388</ele>
        <time>2020-06-06T14:36:44Z</time>
      </trkpt>
      <trkpt lat="45.67227" lon="6.35002">
        <ele>387</ele>
        <time>2020-06-06T14:36:51Z</time>
      </trkpt>
      <trkpt lat="45.67228" lon="6.35003">
        <ele>387</ele>
        <time>2020-06-06T14:36:54Z</time>
      </trkpt>
      <trkpt lat="45.67231" lon="6.35006">
        <ele>388</ele>
        <time>2020-06-06T14:37:00Z</time>
      </trkpt>
      <trkpt lat="45.67234" lon="6.35006">
        <ele>389</ele>
        <time>2020-06-06T14:37:04Z</time>
      </trkpt>
      <trkpt lat="45.67237" lon="6.35007">
        <ele>390</ele>
        <time>2020-06-06T14:37:06Z</time>
      </trkpt>
      <trkpt lat="45.67239" lon="6.35007">
        <ele>390</ele>
        <time>2020-06-06T14:37:08Z</time>
      </trkpt>
      <trkpt lat="45.67242" lon="6.35007">
        <ele>391</ele>
        <time>2020-06-06T14:37:10Z</time>
      </trkpt>
      <trkpt lat="45.67243" lon="6.35009">
        <ele>391</ele>
        <time>2020-06-06T14:37:12Z</time>
      </trkpt>
      <trkpt lat="45.67245" lon="6.3501">
        <ele>391</ele>
        <time>2020-06-06T14:37:13Z</time>
      </trkpt>
      <trkpt lat="45.67247" lon="6.35011">
        <ele>391</ele>
        <time>2020-06-06T14:37:15Z</time>
      </trkpt>
      <trkpt lat="45.67253" lon="6.35012">
        <ele>390</ele>
        <time>2020-06-06T14:37:20Z</time>
      </trkpt>
      <trkpt lat="45.67255" lon="6.35014">
        <ele>389</ele>
        <time>2020-06-06T14:37:22Z</time>
      </trkpt>
      <trkpt lat="45.67257" lon="6.35014">
        <ele>389</ele>
        <time>2020-06-06T14:37:24Z</time>
      </trkpt>
      <trkpt lat="45.67264" lon="6.35019">
        <ele>386</ele>
        <time>2020-06-06T14:37:31Z</time>
      </trkpt>
      <trkpt lat="45.67268" lon="6.35024">
        <ele>384</ele>
        <time>2020-06-06T14:37:35Z</time>
      </trkpt>
      <trkpt lat="45.67273" lon="6.35032">
        <ele>382</ele>
        <time>2020-06-06T14:37:40Z</time>
      </trkpt>
      <trkpt lat="45.67279" lon="6.35048">
        <ele>376</ele>
        <time>2020-06-06T14:37:47Z</time>
      </trkpt>
      <trkpt lat="45.67278" lon="6.35064">
        <ele>372</ele>
        <time>2020-06-06T14:37:56Z</time>
      </trkpt>
      <trkpt lat="45.67279" lon="6.3507">
        <ele>371</ele>
        <time>2020-06-06T14:38:00Z</time>
      </trkpt>
      <trkpt lat="45.6728" lon="6.35073">
        <ele>371</ele>
        <time>2020-06-06T14:38:02Z</time>
      </trkpt>
      <trkpt lat="45.67281" lon="6.35075">
        <ele>370</ele>
        <time>2020-06-06T14:38:03Z</time>
      </trkpt>
      <trkpt lat="45.67285" lon="6.35084">
        <ele>369</ele>
        <time>2020-06-06T14:38:09Z</time>
      </trkpt>
      <trkpt lat="45.67287" lon="6.35086">
        <ele>368</ele>
        <time>2020-06-06T14:38:11Z</time>
      </trkpt>
      <trkpt lat="45.67292" lon="6.35093">
        <ele>367</ele>
        <time>2020-06-06T14:38:17Z</time>
      </trkpt>
      <trkpt lat="45.67294" lon="6.35095">
        <ele>366</ele>
        <time>2020-06-06T14:38:19Z</time>
      </trkpt>
      <trkpt lat="45.67295" lon="6.35098">
        <ele>366</ele>
        <time>2020-06-06T14:38:21Z</time>
      </trkpt>
      <trkpt lat="45.67296" lon="6.35104">
        <ele>366</ele>
        <time>2020-06-06T14:38:25Z</time>
      </trkpt>
      <trkpt lat="45.67299" lon="6.35112">
        <ele>366</ele>
        <time>2020-06-06T14:38:29Z</time>
      </trkpt>
      <trkpt lat="45.67299" lon="6.35114">
        <ele>367</ele>
        <time>2020-06-06T14:38:30Z</time>
      </trkpt>
      <trkpt lat="45.673" lon="6.35118">
        <ele>368</ele>
        <time>2020-06-06T14:38:32Z</time>
      </trkpt>
      <trkpt lat="45.67299" lon="6.3512">
        <ele>368</ele>
        <time>2020-06-06T14:38:34Z</time>
      </trkpt>
      <trkpt lat="45.67298" lon="6.35124">
        <ele>368</ele>
        <time>2020-06-06T14:38:36Z</time>
      </trkpt>
      <trkpt lat="45.67297" lon="6.35127">
        <ele>367</ele>
        <time>2020-06-06T14:38:38Z</time>
      </trkpt>
      <trkpt lat="45.67295" lon="6.35136">
        <ele>365</ele>
        <time>2020-06-06T14:38:43Z</time>
      </trkpt>
      <trkpt lat="45.67293" lon="6.35145">
        <ele>363</ele>
        <time>2020-06-06T14:38:49Z</time>
      </trkpt>
      <trkpt lat="45.67293" lon="6.35152">
        <ele>362</ele>
        <time>2020-06-06T14:38:53Z</time>
      </trkpt>
      <trkpt lat="45.67292" lon="6.35163">
        <ele>361</ele>
        <time>2020-06-06T14:39:00Z</time>
      </trkpt>
      <trkpt lat="45.67293" lon="6.35169">
        <ele>362</ele>
        <time>2020-06-06T14:39:04Z</time>
      </trkpt>
      <trkpt lat="45.67293" lon="6.35172">
        <ele>362</ele>
        <time>2020-06-06T14:39:06Z</time>
      </trkpt>
      <trkpt lat="45.67292" lon="6.35174">
        <ele>363</ele>
        <time>2020-06-06T14:39:08Z</time>
      </trkpt>
      <trkpt lat="45.67291" lon="6.35176">
        <ele>364</ele>
        <time>2020-06-06T14:39:10Z</time>
      </trkpt>
      <trkpt lat="45.67291" lon="6.35179">
        <ele>364</ele>
        <time>2020-06-06T14:39:13Z</time>
      </trkpt>
      <trkpt lat="45.67289" lon="6.35182">
        <ele>365</ele>
        <time>2020-06-06T14:39:18Z</time>
      </trkpt>
      <trkpt lat="45.67287" lon="6.35183">
        <ele>365</ele>
        <time>2020-06-06T14:39:20Z</time>
      </trkpt>
      <trkpt lat="45.6728" lon="6.35186">
        <ele>363</ele>
        <time>2020-06-06T14:39:28Z</time>
      </trkpt>
      <trkpt lat="45.67278" lon="6.35185">
        <ele>363</ele>
        <time>2020-06-06T14:39:30Z</time>
      </trkpt>
      <trkpt lat="45.67272" lon="6.35185">
        <ele>362</ele>
        <time>2020-06-06T14:39:35Z</time>
      </trkpt>
      <trkpt lat="45.6727" lon="6.35185">
        <ele>362</ele>
        <time>2020-06-06T14:39:36Z</time>
      </trkpt>
      <trkpt lat="45.67265" lon="6.35184">
        <ele>362</ele>
        <time>2020-06-06T14:39:40Z</time>
      </trkpt>
      <trkpt lat="45.67253" lon="6.35181">
        <ele>360</ele>
        <time>2020-06-06T14:39:55Z</time>
      </trkpt>
      <trkpt lat="45.67251" lon="6.3518">
        <ele>360</ele>
        <time>2020-06-06T14:39:57Z</time>
      </trkpt>
      <trkpt lat="45.67249" lon="6.35177">
        <ele>360</ele>
        <time>2020-06-06T14:40:00Z</time>
      </trkpt>
      <trkpt lat="45.67246" lon="6.35177">
        <ele>359</ele>
        <time>2020-06-06T14:40:01Z</time>
      </trkpt>
      <trkpt lat="45.67242" lon="6.35174">
        <ele>359</ele>
        <time>2020-06-06T14:40:05Z</time>
      </trkpt>
      <trkpt lat="45.67237" lon="6.35171">
        <ele>360</ele>
        <time>2020-06-06T14:40:09Z</time>
      </trkpt>
      <trkpt lat="45.67236" lon="6.35173">
        <ele>361</ele>
        <time>2020-06-06T14:40:11Z</time>
      </trkpt>
      <trkpt lat="45.67233" lon="6.35174">
        <ele>362</ele>
        <time>2020-06-06T14:40:13Z</time>
      </trkpt>
      <trkpt lat="45.67231" lon="6.35176">
        <ele>363</ele>
        <time>2020-06-06T14:40:15Z</time>
      </trkpt>
      <trkpt lat="45.67228" lon="6.35174">
        <ele>364</ele>
        <time>2020-06-06T14:40:17Z</time>
      </trkpt>
      <trkpt lat="45.67226" lon="6.35174">
        <ele>364</ele>
        <time>2020-06-06T14:40:19Z</time>
      </trkpt>
      <trkpt lat="45.67225" lon="6.35175">
        <ele>364</ele>
        <time>2020-06-06T14:40:20Z</time>
      </trkpt>
      <trkpt lat="45.67223" lon="6.35174">
        <ele>364</ele>
        <time>2020-06-06T14:40:21Z</time>
      </trkpt>
      <trkpt lat="45.67216" lon="6.35173">
        <ele>364</ele>
        <time>2020-06-06T14:40:26Z</time>
      </trkpt>
      <trkpt lat="45.67214" lon="6.35173">
        <ele>364</ele>
        <time>2020-06-06T14:40:28Z</time>
      </trkpt>
      <trkpt lat="45.67196" lon="6.35168">
        <ele>360</ele>
        <time>2020-06-06T14:40:43Z</time>
      </trkpt>
      <trkpt lat="45.67194" lon="6.35168">
        <ele>359</ele>
        <time>2020-06-06T14:40:45Z</time>
      </trkpt>
      <trkpt lat="45.67192" lon="6.35168">
        <ele>358</ele>
        <time>2020-06-06T14:40:47Z</time>
      </trkpt>
      <trkpt lat="45.67189" lon="6.35168">
        <ele>357</ele>
        <time>2020-06-06T14:40:49Z</time>
      </trkpt>
      <trkpt lat="45.67185" lon="6.35166">
        <ele>354</ele>
        <time>2020-06-06T14:40:53Z</time>
      </trkpt>
      <trkpt lat="45.67181" lon="6.35165">
        <ele>353</ele>
        <time>2020-06-06T14:40:57Z</time>
      </trkpt>
      <trkpt lat="45.6717" lon="6.35162">
        <ele>349</ele>
        <time>2020-06-06T14:41:05Z</time>
      </trkpt>
      <trkpt lat="45.67168" lon="6.35162">
        <ele>349</ele>
        <time>2020-06-06T14:41:06Z</time>
      </trkpt>
      <trkpt lat="45.67167" lon="6.35162">
        <ele>348</ele>
        <time>2020-06-06T14:41:07Z</time>
      </trkpt>
      <trkpt lat="45.67165" lon="6.35162">
        <ele>348</ele>
        <time>2020-06-06T14:41:09Z</time>
      </trkpt>
      <trkpt lat="45.67162" lon="6.35163">
        <ele>348</ele>
        <time>2020-06-06T14:41:11Z</time>
      </trkpt>
      <trkpt lat="45.67159" lon="6.35164">
        <ele>347</ele>
        <time>2020-06-06T14:41:13Z</time>
      </trkpt>
      <trkpt lat="45.67157" lon="6.35166">
        <ele>347</ele>
        <time>2020-06-06T14:41:15Z</time>
      </trkpt>
      <trkpt lat="45.67156" lon="6.35167">
        <ele>347</ele>
        <time>2020-06-06T14:41:16Z</time>
      </trkpt>
      <trkpt lat="45.67155" lon="6.35173">
        <ele>347</ele>
        <time>2020-06-06T14:41:20Z</time>
      </trkpt>
      <trkpt lat="45.67154" lon="6.35176">
        <ele>348</ele>
        <time>2020-06-06T14:41:22Z</time>
      </trkpt>
      <trkpt lat="45.67154" lon="6.35178">
        <ele>348</ele>
        <time>2020-06-06T14:41:24Z</time>
      </trkpt>
      <trkpt lat="45.67155" lon="6.35181">
        <ele>348</ele>
        <time>2020-06-06T14:41:26Z</time>
      </trkpt>
      <trkpt lat="45.67156" lon="6.35184">
        <ele>348</ele>
        <time>2020-06-06T14:41:28Z</time>
      </trkpt>
      <trkpt lat="45.67157" lon="6.35186">
        <ele>348</ele>
        <time>2020-06-06T14:41:30Z</time>
      </trkpt>
      <trkpt lat="45.67161" lon="6.35189">
        <ele>348</ele>
        <time>2020-06-06T14:41:37Z</time>
      </trkpt>
      <trkpt lat="45.67163" lon="6.3519">
        <ele>348</ele>
        <time>2020-06-06T14:41:39Z</time>
      </trkpt>
      <trkpt lat="45.67165" lon="6.35191">
        <ele>349</ele>
        <time>2020-06-06T14:41:41Z</time>
      </trkpt>
      <trkpt lat="45.6717" lon="6.35193">
        <ele>350</ele>
        <time>2020-06-06T14:41:45Z</time>
      </trkpt>
      <trkpt lat="45.67172" lon="6.35195">
        <ele>350</ele>
        <time>2020-06-06T14:41:47Z</time>
      </trkpt>
      <trkpt lat="45.67177" lon="6.35196">
        <ele>350</ele>
        <time>2020-06-06T14:41:51Z</time>
      </trkpt>
      <trkpt lat="45.67183" lon="6.35199">
        <ele>350</ele>
        <time>2020-06-06T14:41:56Z</time>
      </trkpt>
      <trkpt lat="45.67186" lon="6.352">
        <ele>349</ele>
        <time>2020-06-06T14:41:58Z</time>
      </trkpt>
      <trkpt lat="45.67188" lon="6.35202">
        <ele>349</ele>
        <time>2020-06-06T14:42:00Z</time>
      </trkpt>
      <trkpt lat="45.67192" lon="6.35204">
        <ele>349</ele>
        <time>2020-06-06T14:42:04Z</time>
      </trkpt>
      <trkpt lat="45.67197" lon="6.35207">
        <ele>349</ele>
        <time>2020-06-06T14:42:08Z</time>
      </trkpt>
      <trkpt lat="45.672" lon="6.35207">
        <ele>348</ele>
        <time>2020-06-06T14:42:11Z</time>
      </trkpt>
      <trkpt lat="45.67209" lon="6.35214">
        <ele>348</ele>
        <time>2020-06-06T14:42:19Z</time>
      </trkpt>
      <trkpt lat="45.6721" lon="6.35215">
        <ele>348</ele>
        <time>2020-06-06T14:42:21Z</time>
      </trkpt>
      <trkpt lat="45.67216" lon="6.3522">
        <ele>348</ele>
        <time>2020-06-06T14:42:27Z</time>
      </trkpt>
      <trkpt lat="45.67219" lon="6.35222">
        <ele>348</ele>
        <time>2020-06-06T14:42:31Z</time>
      </trkpt>
      <trkpt lat="45.67221" lon="6.35223">
        <ele>349</ele>
        <time>2020-06-06T14:42:33Z</time>
      </trkpt>
      <trkpt lat="45.67223" lon="6.35226">
        <ele>349</ele>
        <time>2020-06-06T14:42:35Z</time>
      </trkpt>
      <trkpt lat="45.67225" lon="6.35225">
        <ele>348</ele>
        <time>2020-06-06T14:42:37Z</time>
      </trkpt>
      <trkpt lat="45.67227" lon="6.35226">
        <ele>348</ele>
        <time>2020-06-06T14:42:39Z</time>
      </trkpt>
      <trkpt lat="45.67231" lon="6.35229">
        <ele>348</ele>
        <time>2020-06-06T14:42:43Z</time>
      </trkpt>
      <trkpt lat="45.67233" lon="6.35231">
        <ele>348</ele>
        <time>2020-06-06T14:42:45Z</time>
      </trkpt>
      <trkpt lat="45.67234" lon="6.35236">
        <ele>349</ele>
        <time>2020-06-06T14:42:47Z</time>
      </trkpt>
      <trkpt lat="45.67237" lon="6.3524">
        <ele>349</ele>
        <time>2020-06-06T14:42:50Z</time>
      </trkpt>
      <trkpt lat="45.67238" lon="6.35249">
        <ele>348</ele>
        <time>2020-06-06T14:42:56Z</time>
      </trkpt>
      <trkpt lat="45.67237" lon="6.35253">
        <ele>346</ele>
        <time>2020-06-06T14:42:58Z</time>
      </trkpt>
      <trkpt lat="45.67236" lon="6.35256">
        <ele>345</ele>
        <time>2020-06-06T14:43:00Z</time>
      </trkpt>
      <trkpt lat="45.67233" lon="6.3526">
        <ele>342</ele>
        <time>2020-06-06T14:43:04Z</time>
      </trkpt>
      <trkpt lat="45.67228" lon="6.35263">
        <ele>341</ele>
        <time>2020-06-06T14:43:08Z</time>
      </trkpt>
      <trkpt lat="45.67227" lon="6.35263">
        <ele>340</ele>
        <time>2020-06-06T14:43:10Z</time>
      </trkpt>
      <trkpt lat="45.67225" lon="6.35263">
        <ele>340</ele>
        <time>2020-06-06T14:43:13Z</time>
      </trkpt>
      <trkpt lat="45.67225" lon="6.3526">
        <ele>339</ele>
        <time>2020-06-06T14:43:18Z</time>
      </trkpt>
      <trkpt lat="45.67226" lon="6.35261">
        <ele>339</ele>
        <time>2020-06-06T14:43:50Z</time>
      </trkpt>
      <trkpt lat="45.67225" lon="6.35263">
        <ele>339</ele>
        <time>2020-06-06T14:43:52Z</time>
      </trkpt>
      <trkpt lat="45.67224" lon="6.35264">
        <ele>339</ele>
        <time>2020-06-06T14:43:53Z</time>
      </trkpt>
      <trkpt lat="45.67222" lon="6.35266">
        <ele>339</ele>
        <time>2020-06-06T14:43:55Z</time>
      </trkpt>
      <trkpt lat="45.6722" lon="6.35267">
        <ele>339</ele>
        <time>2020-06-06T14:43:57Z</time>
      </trkpt>
      <trkpt lat="45.67218" lon="6.35267">
        <ele>338</ele>
        <time>2020-06-06T14:43:59Z</time>
      </trkpt>
      <trkpt lat="45.67216" lon="6.35267">
        <ele>337</ele>
        <time>2020-06-06T14:44:01Z</time>
      </trkpt>
      <trkpt lat="45.67214" lon="6.35266">
        <ele>336</ele>
        <time>2020-06-06T14:44:04Z</time>
      </trkpt>
      <trkpt lat="45.67213" lon="6.35266">
        <ele>336</ele>
        <time>2020-06-06T14:44:07Z</time>
      </trkpt>
      <trkpt lat="45.6721" lon="6.35267">
        <ele>335</ele>
        <time>2020-06-06T14:46:16Z</time>
      </trkpt>
      <trkpt lat="45.67209" lon="6.35269">
        <ele>335</ele>
        <time>2020-06-06T14:46:18Z</time>
      </trkpt>
      <trkpt lat="45.67207" lon="6.3527">
        <ele>334</ele>
        <time>2020-06-06T14:46:20Z</time>
      </trkpt>
      <trkpt lat="45.67203" lon="6.35271">
        <ele>333</ele>
        <time>2020-06-06T14:46:26Z</time>
      </trkpt>
      <trkpt lat="45.67196" lon="6.3527">
        <ele>332</ele>
        <time>2020-06-06T14:46:31Z</time>
      </trkpt>
      <trkpt lat="45.67195" lon="6.3527">
        <ele>332</ele>
        <time>2020-06-06T14:46:32Z</time>
      </trkpt>
      <trkpt lat="45.67191" lon="6.3527">
        <ele>331</ele>
        <time>2020-06-06T14:46:35Z</time>
      </trkpt>
      <trkpt lat="45.67189" lon="6.35271">
        <ele>331</ele>
        <time>2020-06-06T14:46:37Z</time>
      </trkpt>
      <trkpt lat="45.67187" lon="6.35272">
        <ele>331</ele>
        <time>2020-06-06T14:46:39Z</time>
      </trkpt>
      <trkpt lat="45.67173" lon="6.35268">
        <ele>330</ele>
        <time>2020-06-06T14:46:50Z</time>
      </trkpt>
      <trkpt lat="45.6717" lon="6.35268">
        <ele>330</ele>
        <time>2020-06-06T14:46:52Z</time>
      </trkpt>
      <trkpt lat="45.67165" lon="6.35267">
        <ele>330</ele>
        <time>2020-06-06T14:46:57Z</time>
      </trkpt>
      <trkpt lat="45.67162" lon="6.35267">
        <ele>329</ele>
        <time>2020-06-06T14:46:59Z</time>
      </trkpt>
      <trkpt lat="45.6716" lon="6.35267">
        <ele>329</ele>
        <time>2020-06-06T14:47:01Z</time>
      </trkpt>
      <trkpt lat="45.67153" lon="6.35261">
        <ele>327</ele>
        <time>2020-06-06T14:47:09Z</time>
      </trkpt>
      <trkpt lat="45.6715" lon="6.35259">
        <ele>327</ele>
        <time>2020-06-06T14:47:11Z</time>
      </trkpt>
      <trkpt lat="45.67149" lon="6.35258">
        <ele>326</ele>
        <time>2020-06-06T14:47:13Z</time>
      </trkpt>
      <trkpt lat="45.67147" lon="6.35257">
        <ele>326</ele>
        <time>2020-06-06T14:47:15Z</time>
      </trkpt>
      <trkpt lat="45.67146" lon="6.35256">
        <ele>325</ele>
        <time>2020-06-06T14:47:17Z</time>
      </trkpt>
      <trkpt lat="45.67138" lon="6.35253">
        <ele>326</ele>
        <time>2020-06-06T14:47:24Z</time>
      </trkpt>
      <trkpt lat="45.67136" lon="6.35252">
        <ele>326</ele>
        <time>2020-06-06T14:47:26Z</time>
      </trkpt>
      <trkpt lat="45.67135" lon="6.3525">
        <ele>326</ele>
        <time>2020-06-06T14:47:28Z</time>
      </trkpt>
      <trkpt lat="45.67132" lon="6.35248">
        <ele>326</ele>
        <time>2020-06-06T14:47:30Z</time>
      </trkpt>
      <trkpt lat="45.6713" lon="6.35247">
        <ele>325</ele>
        <time>2020-06-06T14:47:32Z</time>
      </trkpt>
      <trkpt lat="45.67128" lon="6.35245">
        <ele>325</ele>
        <time>2020-06-06T14:47:34Z</time>
      </trkpt>
      <trkpt lat="45.67127" lon="6.35242">
        <ele>325</ele>
        <time>2020-06-06T14:47:36Z</time>
      </trkpt>
      <trkpt lat="45.67125" lon="6.35241">
        <ele>324</ele>
        <time>2020-06-06T14:47:38Z</time>
      </trkpt>
      <trkpt lat="45.67123" lon="6.35239">
        <ele>324</ele>
        <time>2020-06-06T14:47:39Z</time>
      </trkpt>
      <trkpt lat="45.67122" lon="6.35239">
        <ele>324</ele>
        <time>2020-06-06T14:47:40Z</time>
      </trkpt>
      <trkpt lat="45.67118" lon="6.35234">
        <ele>323</ele>
        <time>2020-06-06T14:47:45Z</time>
      </trkpt>
      <trkpt lat="45.67116" lon="6.35232">
        <ele>323</ele>
        <time>2020-06-06T14:47:47Z</time>
      </trkpt>
      <trkpt lat="45.67114" lon="6.35232">
        <ele>323</ele>
        <time>2020-06-06T14:47:48Z</time>
      </trkpt>
      <trkpt lat="45.67112" lon="6.35231">
        <ele>323</ele>
        <time>2020-06-06T14:47:49Z</time>
      </trkpt>
      <trkpt lat="45.67107" lon="6.35227">
        <ele>324</ele>
        <time>2020-06-06T14:47:54Z</time>
      </trkpt>
      <trkpt lat="45.67102" lon="6.35226">
        <ele>324</ele>
        <time>2020-06-06T14:47:58Z</time>
      </trkpt>
      <trkpt lat="45.67097" lon="6.35227">
        <ele>323</ele>
        <time>2020-06-06T14:48:02Z</time>
      </trkpt>
      <trkpt lat="45.67095" lon="6.35227">
        <ele>322</ele>
        <time>2020-06-06T14:48:04Z</time>
      </trkpt>
      <trkpt lat="45.67091" lon="6.35227">
        <ele>321</ele>
        <time>2020-06-06T14:48:08Z</time>
      </trkpt>
      <trkpt lat="45.67087" lon="6.35228">
        <ele>320</ele>
        <time>2020-06-06T14:48:11Z</time>
      </trkpt>
      <trkpt lat="45.67086" lon="6.35228">
        <ele>320</ele>
        <time>2020-06-06T14:48:12Z</time>
      </trkpt>
      <trkpt lat="45.67084" lon="6.35229">
        <ele>320</ele>
        <time>2020-06-06T14:48:14Z</time>
      </trkpt>
      <trkpt lat="45.67083" lon="6.35229">
        <ele>320</ele>
        <time>2020-06-06T14:48:16Z</time>
      </trkpt>
      <trkpt lat="45.67065" lon="6.35234">
        <ele>322</ele>
        <time>2020-06-06T14:48:32Z</time>
      </trkpt>
      <trkpt lat="45.6706" lon="6.35234">
        <ele>323</ele>
        <time>2020-06-06T14:48:36Z</time>
      </trkpt>
      <trkpt lat="45.67059" lon="6.35235">
        <ele>323</ele>
        <time>2020-06-06T14:48:38Z</time>
      </trkpt>
      <trkpt lat="45.67054" lon="6.35236">
        <ele>324</ele>
        <time>2020-06-06T14:48:42Z</time>
      </trkpt>
      <trkpt lat="45.67053" lon="6.35237">
        <ele>324</ele>
        <time>2020-06-06T14:48:43Z</time>
      </trkpt>
      <trkpt lat="45.67049" lon="6.35239">
        <ele>324</ele>
        <time>2020-06-06T14:48:46Z</time>
      </trkpt>
      <trkpt lat="45.67048" lon="6.35239">
        <ele>324</ele>
        <time>2020-06-06T14:48:47Z</time>
      </trkpt>
      <trkpt lat="45.67045" lon="6.35239">
        <ele>324</ele>
        <time>2020-06-06T14:48:49Z</time>
      </trkpt>
      <trkpt lat="45.67044" lon="6.3524">
        <ele>324</ele>
        <time>2020-06-06T14:48:51Z</time>
      </trkpt>
      <trkpt lat="45.67036" lon="6.3524">
        <ele>324</ele>
        <time>2020-06-06T14:49:01Z</time>
      </trkpt>
      <trkpt lat="45.67035" lon="6.35241">
        <ele>325</ele>
        <time>2020-06-06T14:49:20Z</time>
      </trkpt>
      <trkpt lat="45.67034" lon="6.35243">
        <ele>325</ele>
        <time>2020-06-06T14:49:22Z</time>
      </trkpt>
      <trkpt lat="45.67032" lon="6.35244">
        <ele>325</ele>
        <time>2020-06-06T14:49:24Z</time>
      </trkpt>
      <trkpt lat="45.6703" lon="6.35243">
        <ele>326</ele>
        <time>2020-06-06T14:49:27Z</time>
      </trkpt>
      <trkpt lat="45.67027" lon="6.35243">
        <ele>326</ele>
        <time>2020-06-06T14:49:29Z</time>
      </trkpt>
      <trkpt lat="45.67025" lon="6.35244">
        <ele>326</ele>
        <time>2020-06-06T14:49:31Z</time>
      </trkpt>
      <trkpt lat="45.67024" lon="6.35243">
        <ele>326</ele>
        <time>2020-06-06T14:49:33Z</time>
      </trkpt>
      <trkpt lat="45.67018" lon="6.35247">
        <ele>326</ele>
        <time>2020-06-06T14:49:39Z</time>
      </trkpt>
      <trkpt lat="45.67008" lon="6.35254">
        <ele>326</ele>
        <time>2020-06-06T14:49:51Z</time>
      </trkpt>
      <trkpt lat="45.66996" lon="6.35258">
        <ele>325</ele>
        <time>2020-06-06T14:49:58Z</time>
      </trkpt>
      <trkpt lat="45.66995" lon="6.35259">
        <ele>325</ele>
        <time>2020-06-06T14:49:59Z</time>
      </trkpt>
      <trkpt lat="45.66988" lon="6.35262">
        <ele>324</ele>
        <time>2020-06-06T14:50:03Z</time>
      </trkpt>
      <trkpt lat="45.66986" lon="6.35262">
        <ele>324</ele>
        <time>2020-06-06T14:50:04Z</time>
      </trkpt>
      <trkpt lat="45.66979" lon="6.35265">
        <ele>323</ele>
        <time>2020-06-06T14:50:09Z</time>
      </trkpt>
      <trkpt lat="45.66976" lon="6.35266">
        <ele>323</ele>
        <time>2020-06-06T14:50:11Z</time>
      </trkpt>
      <trkpt lat="45.66957" lon="6.35271">
        <ele>319</ele>
        <time>2020-06-06T14:50:25Z</time>
      </trkpt>
      <trkpt lat="45.66931" lon="6.35269">
        <ele>318</ele>
        <time>2020-06-06T14:50:51Z</time>
      </trkpt>
      <trkpt lat="45.66927" lon="6.3527">
        <ele>318</ele>
        <time>2020-06-06T14:50:55Z</time>
      </trkpt>
      <trkpt lat="45.66924" lon="6.35273">
        <ele>318</ele>
        <time>2020-06-06T14:50:59Z</time>
      </trkpt>
      <trkpt lat="45.66921" lon="6.35275">
        <ele>317</ele>
        <time>2020-06-06T14:51:01Z</time>
      </trkpt>
      <trkpt lat="45.66918" lon="6.35278">
        <ele>318</ele>
        <time>2020-06-06T14:51:05Z</time>
      </trkpt>
      <trkpt lat="45.66916" lon="6.35279">
        <ele>318</ele>
        <time>2020-06-06T14:51:06Z</time>
      </trkpt>
      <trkpt lat="45.66915" lon="6.35279">
        <ele>319</ele>
        <time>2020-06-06T14:51:07Z</time>
      </trkpt>
      <trkpt lat="45.66913" lon="6.35285">
        <ele>321</ele>
        <time>2020-06-06T14:51:11Z</time>
      </trkpt>
      <trkpt lat="45.66911" lon="6.35289">
        <ele>322</ele>
        <time>2020-06-06T14:51:13Z</time>
      </trkpt>
      <trkpt lat="45.66911" lon="6.35291">
        <ele>322</ele>
        <time>2020-06-06T14:51:14Z</time>
      </trkpt>
      <trkpt lat="45.66909" lon="6.35293">
        <ele>322</ele>
        <time>2020-06-06T14:51:16Z</time>
      </trkpt>
      <trkpt lat="45.66908" lon="6.35295">
        <ele>323</ele>
        <time>2020-06-06T14:51:17Z</time>
      </trkpt>
      <trkpt lat="45.66906" lon="6.35298">
        <ele>323</ele>
        <time>2020-06-06T14:51:19Z</time>
      </trkpt>
      <trkpt lat="45.66905" lon="6.353">
        <ele>324</ele>
        <time>2020-06-06T14:51:21Z</time>
      </trkpt>
      <trkpt lat="45.66893" lon="6.35332">
        <ele>325</ele>
        <time>2020-06-06T14:51:41Z</time>
      </trkpt>
      <trkpt lat="45.66892" lon="6.35335">
        <ele>325</ele>
        <time>2020-06-06T14:51:43Z</time>
      </trkpt>
      <trkpt lat="45.66891" lon="6.35338">
        <ele>325</ele>
        <time>2020-06-06T14:51:45Z</time>
      </trkpt>
      <trkpt lat="45.66888" lon="6.35342">
        <ele>325</ele>
        <time>2020-06-06T14:51:48Z</time>
      </trkpt>
      <trkpt lat="45.66876" lon="6.35359">
        <ele>324</ele>
        <time>2020-06-06T14:52:01Z</time>
      </trkpt>
      <trkpt lat="45.66876" lon="6.3536">
        <ele>324</ele>
        <time>2020-06-06T14:52:02Z</time>
      </trkpt>
      <trkpt lat="45.66872" lon="6.35364">
        <ele>323</ele>
        <time>2020-06-06T14:52:08Z</time>
      </trkpt>
      <trkpt lat="45.6687" lon="6.35366">
        <ele>323</ele>
        <time>2020-06-06T14:52:10Z</time>
      </trkpt>
      <trkpt lat="45.66869" lon="6.35369">
        <ele>323</ele>
        <time>2020-06-06T14:52:12Z</time>
      </trkpt>
      <trkpt lat="45.66867" lon="6.3537">
        <ele>323</ele>
        <time>2020-06-06T14:52:14Z</time>
      </trkpt>
      <trkpt lat="45.66858" lon="6.35378">
        <ele>324</ele>
        <time>2020-06-06T14:52:22Z</time>
      </trkpt>
      <trkpt lat="45.66857" lon="6.35379">
        <ele>324</ele>
        <time>2020-06-06T14:52:23Z</time>
      </trkpt>
      <trkpt lat="45.66851" lon="6.35385">
        <ele>324</ele>
        <time>2020-06-06T14:52:29Z</time>
      </trkpt>
      <trkpt lat="45.66845" lon="6.35389">
        <ele>324</ele>
        <time>2020-06-06T14:52:34Z</time>
      </trkpt>
      <trkpt lat="45.6684" lon="6.35393">
        <ele>323</ele>
        <time>2020-06-06T14:52:40Z</time>
      </trkpt>
      <trkpt lat="45.66838" lon="6.35395">
        <ele>322</ele>
        <time>2020-06-06T14:52:42Z</time>
      </trkpt>
      <trkpt lat="45.66804" lon="6.3542">
        <ele>317</ele>
        <time>2020-06-06T14:53:13Z</time>
      </trkpt>
      <trkpt lat="45.668" lon="6.35422">
        <ele>318</ele>
        <time>2020-06-06T14:53:16Z</time>
      </trkpt>
      <trkpt lat="45.66799" lon="6.35423">
        <ele>318</ele>
        <time>2020-06-06T14:53:17Z</time>
      </trkpt>
      <trkpt lat="45.66782" lon="6.35436">
        <ele>319</ele>
        <time>2020-06-06T14:53:32Z</time>
      </trkpt>
      <trkpt lat="45.66778" lon="6.35439">
        <ele>318</ele>
        <time>2020-06-06T14:53:36Z</time>
      </trkpt>
      <trkpt lat="45.66776" lon="6.35441">
        <ele>318</ele>
        <time>2020-06-06T14:53:38Z</time>
      </trkpt>
      <trkpt lat="45.66764" lon="6.35451">
        <ele>317</ele>
        <time>2020-06-06T14:53:50Z</time>
      </trkpt>
      <trkpt lat="45.66759" lon="6.35454">
        <ele>316</ele>
        <time>2020-06-06T14:53:55Z</time>
      </trkpt>
      <trkpt lat="45.66758" lon="6.35454">
        <ele>316</ele>
        <time>2020-06-06T14:53:56Z</time>
      </trkpt>
      <trkpt lat="45.66754" lon="6.35452">
        <ele>316</ele>
        <time>2020-06-06T14:54:00Z</time>
      </trkpt>
      <trkpt lat="45.6675" lon="6.35451">
        <ele>316</ele>
        <time>2020-06-06T14:54:03Z</time>
      </trkpt>
      <trkpt lat="45.66749" lon="6.3545">
        <ele>316</ele>
        <time>2020-06-06T14:54:04Z</time>
      </trkpt>
      <trkpt lat="45.66747" lon="6.35448">
        <ele>316</ele>
        <time>2020-06-06T14:54:06Z</time>
      </trkpt>
      <trkpt lat="45.66745" lon="6.35446">
        <ele>317</ele>
        <time>2020-06-06T14:54:08Z</time>
      </trkpt>
      <trkpt lat="45.66743" lon="6.35445">
        <ele>317</ele>
        <time>2020-06-06T14:54:09Z</time>
      </trkpt>
      <trkpt lat="45.66741" lon="6.35443">
        <ele>318</ele>
        <time>2020-06-06T14:54:11Z</time>
      </trkpt>
      <trkpt lat="45.66739" lon="6.35442">
        <ele>319</ele>
        <time>2020-06-06T14:54:12Z</time>
      </trkpt>
      <trkpt lat="45.66737" lon="6.35441">
        <ele>319</ele>
        <time>2020-06-06T14:54:14Z</time>
      </trkpt>
      <trkpt lat="45.66735" lon="6.35439">
        <ele>320</ele>
        <time>2020-06-06T14:54:16Z</time>
      </trkpt>
      <trkpt lat="45.66733" lon="6.35437">
        <ele>321</ele>
        <time>2020-06-06T14:54:18Z</time>
      </trkpt>
      <trkpt lat="45.66731" lon="6.35436">
        <ele>322</ele>
        <time>2020-06-06T14:54:20Z</time>
      </trkpt>
      <trkpt lat="45.66729" lon="6.35434">
        <ele>322</ele>
        <time>2020-06-06T14:54:22Z</time>
      </trkpt>
      <trkpt lat="45.66724" lon="6.35427">
        <ele>322</ele>
        <time>2020-06-06T14:54:28Z</time>
      </trkpt>
      <trkpt lat="45.66722" lon="6.35423">
        <ele>322</ele>
        <time>2020-06-06T14:54:31Z</time>
      </trkpt>
      <trkpt lat="45.66719" lon="6.3542">
        <ele>322</ele>
        <time>2020-06-06T14:54:33Z</time>
      </trkpt>
      <trkpt lat="45.66719" lon="6.35419">
        <ele>322</ele>
        <time>2020-06-06T14:54:34Z</time>
      </trkpt>
      <trkpt lat="45.66715" lon="6.35414">
        <ele>322</ele>
        <time>2020-06-06T14:54:38Z</time>
      </trkpt>
      <trkpt lat="45.66714" lon="6.35413">
        <ele>321</ele>
        <time>2020-06-06T14:54:39Z</time>
      </trkpt>
      <trkpt lat="45.66712" lon="6.35412">
        <ele>321</ele>
        <time>2020-06-06T14:54:41Z</time>
      </trkpt>
      <trkpt lat="45.6671" lon="6.35411">
        <ele>321</ele>
        <time>2020-06-06T14:54:43Z</time>
      </trkpt>
      <trkpt lat="45.66708" lon="6.35409">
        <ele>321</ele>
        <time>2020-06-06T14:54:45Z</time>
      </trkpt>
      <trkpt lat="45.66707" lon="6.35405">
        <ele>321</ele>
        <time>2020-06-06T14:54:47Z</time>
      </trkpt>
      <trkpt lat="45.66701" lon="6.35397">
        <ele>320</ele>
        <time>2020-06-06T14:54:54Z</time>
      </trkpt>
      <trkpt lat="45.66699" lon="6.35395">
        <ele>320</ele>
        <time>2020-06-06T14:54:56Z</time>
      </trkpt>
      <trkpt lat="45.66698" lon="6.35394">
        <ele>320</ele>
        <time>2020-06-06T14:54:57Z</time>
      </trkpt>
      <trkpt lat="45.66697" lon="6.35393">
        <ele>320</ele>
        <time>2020-06-06T14:54:58Z</time>
      </trkpt>
      <trkpt lat="45.66688" lon="6.35375">
        <ele>316</ele>
        <time>2020-06-06T14:55:12Z</time>
      </trkpt>
      <trkpt lat="45.66687" lon="6.35372">
        <ele>316</ele>
        <time>2020-06-06T14:55:13Z</time>
      </trkpt>
      <trkpt lat="45.66686" lon="6.35371">
        <ele>316</ele>
        <time>2020-06-06T14:55:14Z</time>
      </trkpt>
      <trkpt lat="45.66681" lon="6.35362">
        <ele>316</ele>
        <time>2020-06-06T14:55:21Z</time>
      </trkpt>
      <trkpt lat="45.66677" lon="6.35357">
        <ele>315</ele>
        <time>2020-06-06T14:55:25Z</time>
      </trkpt>
      <trkpt lat="45.66677" lon="6.35354">
        <ele>315</ele>
        <time>2020-06-06T14:55:27Z</time>
      </trkpt>
      <trkpt lat="45.66675" lon="6.35352">
        <ele>315</ele>
        <time>2020-06-06T14:55:29Z</time>
      </trkpt>
      <trkpt lat="45.66674" lon="6.3535">
        <ele>315</ele>
        <time>2020-06-06T14:55:31Z</time>
      </trkpt>
      <trkpt lat="45.6667" lon="6.35348">
        <ele>314</ele>
        <time>2020-06-06T14:55:34Z</time>
      </trkpt>
      <trkpt lat="45.66668" lon="6.35345">
        <ele>314</ele>
        <time>2020-06-06T14:55:36Z</time>
      </trkpt>
      <trkpt lat="45.66666" lon="6.35343">
        <ele>314</ele>
        <time>2020-06-06T14:55:38Z</time>
      </trkpt>
      <trkpt lat="45.66662" lon="6.35338">
        <ele>315</ele>
        <time>2020-06-06T14:55:43Z</time>
      </trkpt>
      <trkpt lat="45.66647" lon="6.35328">
        <ele>315</ele>
        <time>2020-06-06T14:55:56Z</time>
      </trkpt>
      <trkpt lat="45.66645" lon="6.35327">
        <ele>314</ele>
        <time>2020-06-06T14:55:58Z</time>
      </trkpt>
      <trkpt lat="45.66628" lon="6.35322">
        <ele>314</ele>
        <time>2020-06-06T14:56:13Z</time>
      </trkpt>
      <trkpt lat="45.66626" lon="6.35321">
        <ele>314</ele>
        <time>2020-06-06T14:56:15Z</time>
      </trkpt>
      <trkpt lat="45.66624" lon="6.3532">
        <ele>314</ele>
        <time>2020-06-06T14:56:18Z</time>
      </trkpt>
      <trkpt lat="45.6662" lon="6.35318">
        <ele>315</ele>
        <time>2020-06-06T14:56:21Z</time>
      </trkpt>
      <trkpt lat="45.66618" lon="6.35318">
        <ele>315</ele>
        <time>2020-06-06T14:56:23Z</time>
      </trkpt>
      <trkpt lat="45.66613" lon="6.35316">
        <ele>314</ele>
        <time>2020-06-06T14:56:27Z</time>
      </trkpt>
      <trkpt lat="45.66612" lon="6.35316">
        <ele>314</ele>
        <time>2020-06-06T14:56:29Z</time>
      </trkpt>
      <trkpt lat="45.66609" lon="6.35314">
        <ele>313</ele>
        <time>2020-06-06T14:56:31Z</time>
      </trkpt>
      <trkpt lat="45.66606" lon="6.35313">
        <ele>314</ele>
        <time>2020-06-06T14:56:33Z</time>
      </trkpt>
      <trkpt lat="45.66605" lon="6.35313">
        <ele>314</ele>
        <time>2020-06-06T14:56:35Z</time>
      </trkpt>
      <trkpt lat="45.66601" lon="6.3531">
        <ele>314</ele>
        <time>2020-06-06T14:56:39Z</time>
      </trkpt>
      <trkpt lat="45.666" lon="6.35309">
        <ele>314</ele>
        <time>2020-06-06T14:56:41Z</time>
      </trkpt>
      <trkpt lat="45.66596" lon="6.35309">
        <ele>314</ele>
        <time>2020-06-06T14:56:44Z</time>
      </trkpt>
      <trkpt lat="45.66592" lon="6.35308">
        <ele>313</ele>
        <time>2020-06-06T14:56:48Z</time>
      </trkpt>
      <trkpt lat="45.66589" lon="6.35308">
        <ele>312</ele>
        <time>2020-06-06T14:56:50Z</time>
      </trkpt>
      <trkpt lat="45.6657" lon="6.35303">
        <ele>311</ele>
        <time>2020-06-06T14:57:04Z</time>
      </trkpt>
      <trkpt lat="45.66566" lon="6.353">
        <ele>311</ele>
        <time>2020-06-06T14:57:08Z</time>
      </trkpt>
      <trkpt lat="45.66565" lon="6.35299">
        <ele>311</ele>
        <time>2020-06-06T14:57:09Z</time>
      </trkpt>
      <trkpt lat="45.66554" lon="6.35291">
        <ele>312</ele>
        <time>2020-06-06T14:57:19Z</time>
      </trkpt>
      <trkpt lat="45.66552" lon="6.3529">
        <ele>311</ele>
        <time>2020-06-06T14:57:21Z</time>
      </trkpt>
      <trkpt lat="45.6655" lon="6.35289">
        <ele>311</ele>
        <time>2020-06-06T14:57:22Z</time>
      </trkpt>
      <trkpt lat="45.66549" lon="6.35288">
        <ele>311</ele>
        <time>2020-06-06T14:57:24Z</time>
      </trkpt>
      <trkpt lat="45.66547" lon="6.35287">
        <ele>310</ele>
        <time>2020-06-06T14:57:26Z</time>
      </trkpt>
      <trkpt lat="45.66532" lon="6.35276">
        <ele>311</ele>
        <time>2020-06-06T14:57:40Z</time>
      </trkpt>
      <trkpt lat="45.6653" lon="6.35274">
        <ele>311</ele>
        <time>2020-06-06T14:57:42Z</time>
      </trkpt>
      <trkpt lat="45.66528" lon="6.35273">
        <ele>311</ele>
        <time>2020-06-06T14:57:44Z</time>
      </trkpt>
      <trkpt lat="45.6652" lon="6.35271">
        <ele>311</ele>
        <time>2020-06-06T14:57:50Z</time>
      </trkpt>
      <trkpt lat="45.66518" lon="6.3527">
        <ele>311</ele>
        <time>2020-06-06T14:57:52Z</time>
      </trkpt>
      <trkpt lat="45.66516" lon="6.35267">
        <ele>311</ele>
        <time>2020-06-06T14:57:54Z</time>
      </trkpt>
      <trkpt lat="45.66514" lon="6.35266">
        <ele>311</ele>
        <time>2020-06-06T14:57:55Z</time>
      </trkpt>
      <trkpt lat="45.66513" lon="6.35264">
        <ele>310</ele>
        <time>2020-06-06T14:57:57Z</time>
      </trkpt>
      <trkpt lat="45.66511" lon="6.35262">
        <ele>310</ele>
        <time>2020-06-06T14:57:59Z</time>
      </trkpt>
      <trkpt lat="45.66509" lon="6.35261">
        <ele>310</ele>
        <time>2020-06-06T14:58:01Z</time>
      </trkpt>
      <trkpt lat="45.66507" lon="6.35259">
        <ele>310</ele>
        <time>2020-06-06T14:58:03Z</time>
      </trkpt>
      <trkpt lat="45.66486" lon="6.35242">
        <ele>310</ele>
        <time>2020-06-06T14:58:24Z</time>
      </trkpt>
      <trkpt lat="45.66481" lon="6.35236">
        <ele>310</ele>
        <time>2020-06-06T14:58:30Z</time>
      </trkpt>
      <trkpt lat="45.66474" lon="6.35233">
        <ele>310</ele>
        <time>2020-06-06T14:58:36Z</time>
      </trkpt>
      <trkpt lat="45.66471" lon="6.35232">
        <ele>310</ele>
        <time>2020-06-06T14:58:38Z</time>
      </trkpt>
      <trkpt lat="45.6647" lon="6.35231">
        <ele>309</ele>
        <time>2020-06-06T14:58:39Z</time>
      </trkpt>
      <trkpt lat="45.66467" lon="6.3523">
        <ele>308</ele>
        <time>2020-06-06T14:58:41Z</time>
      </trkpt>
      <trkpt lat="45.66465" lon="6.35229">
        <ele>308</ele>
        <time>2020-06-06T14:58:42Z</time>
      </trkpt>
      <trkpt lat="45.66444" lon="6.35222">
        <ele>304</ele>
        <time>2020-06-06T14:59:00Z</time>
      </trkpt>
      <trkpt lat="45.66436" lon="6.35222">
        <ele>304</ele>
        <time>2020-06-06T14:59:06Z</time>
      </trkpt>
      <trkpt lat="45.66435" lon="6.35222">
        <ele>304</ele>
        <time>2020-06-06T14:59:07Z</time>
      </trkpt>
      <trkpt lat="45.66414" lon="6.35225">
        <ele>306</ele>
        <time>2020-06-06T14:59:24Z</time>
      </trkpt>
      <trkpt lat="45.6641" lon="6.35225">
        <ele>305</ele>
        <time>2020-06-06T14:59:28Z</time>
      </trkpt>
      <trkpt lat="45.66408" lon="6.35225">
        <ele>305</ele>
        <time>2020-06-06T14:59:30Z</time>
      </trkpt>
      <trkpt lat="45.664" lon="6.35227">
        <ele>304</ele>
        <time>2020-06-06T14:59:37Z</time>
      </trkpt>
      <trkpt lat="45.66397" lon="6.35226">
        <ele>303</ele>
        <time>2020-06-06T14:59:39Z</time>
      </trkpt>
      <trkpt lat="45.66395" lon="6.35226">
        <ele>303</ele>
        <time>2020-06-06T14:59:41Z</time>
      </trkpt>
      <trkpt lat="45.66394" lon="6.35226">
        <ele>303</ele>
        <time>2020-06-06T14:59:42Z</time>
      </trkpt>
      <trkpt lat="45.66392" lon="6.35226">
        <ele>303</ele>
        <time>2020-06-06T14:59:44Z</time>
      </trkpt>
      <trkpt lat="45.66357" lon="6.35215">
        <ele>304</ele>
        <time>2020-06-06T15:00:14Z</time>
      </trkpt>
      <trkpt lat="45.66352" lon="6.35212">
        <ele>303</ele>
        <time>2020-06-06T15:00:20Z</time>
      </trkpt>
      <trkpt lat="45.66352" lon="6.3521">
        <ele>303</ele>
        <time>2020-06-06T15:00:22Z</time>
      </trkpt>
      <trkpt lat="45.6635" lon="6.35209">
        <ele>303</ele>
        <time>2020-06-06T15:00:24Z</time>
      </trkpt>
      <trkpt lat="45.66344" lon="6.35208">
        <ele>304</ele>
        <time>2020-06-06T15:00:28Z</time>
      </trkpt>
      <trkpt lat="45.66328" lon="6.35204">
        <ele>304</ele>
        <time>2020-06-06T15:00:41Z</time>
      </trkpt>
      <trkpt lat="45.66327" lon="6.35204">
        <ele>303</ele>
        <time>2020-06-06T15:00:43Z</time>
      </trkpt>
      <trkpt lat="45.66323" lon="6.35203">
        <ele>302</ele>
        <time>2020-06-06T15:00:46Z</time>
      </trkpt>
      <trkpt lat="45.66322" lon="6.35202">
        <ele>302</ele>
        <time>2020-06-06T15:00:47Z</time>
      </trkpt>
      <trkpt lat="45.66313" lon="6.35201">
        <ele>303</ele>
        <time>2020-06-06T15:00:54Z</time>
      </trkpt>
      <trkpt lat="45.66309" lon="6.35199">
        <ele>304</ele>
        <time>2020-06-06T15:00:58Z</time>
      </trkpt>
      <trkpt lat="45.66307" lon="6.35199">
        <ele>304</ele>
        <time>2020-06-06T15:01:00Z</time>
      </trkpt>
      <trkpt lat="45.66305" lon="6.35198">
        <ele>304</ele>
        <time>2020-06-06T15:01:02Z</time>
      </trkpt>
      <trkpt lat="45.66303" lon="6.35197">
        <ele>304</ele>
        <time>2020-06-06T15:01:04Z</time>
      </trkpt>
      <trkpt lat="45.66298" lon="6.35196">
        <ele>304</ele>
        <time>2020-06-06T15:01:08Z</time>
      </trkpt>
      <trkpt lat="45.66295" lon="6.35195">
        <ele>304</ele>
        <time>2020-06-06T15:01:11Z</time>
      </trkpt>
      <trkpt lat="45.66293" lon="6.35195">
        <ele>304</ele>
        <time>2020-06-06T15:01:12Z</time>
      </trkpt>
      <trkpt lat="45.66287" lon="6.35193">
        <ele>304</ele>
        <time>2020-06-06T15:01:16Z</time>
      </trkpt>
      <trkpt lat="45.66285" lon="6.35193">
        <ele>304</ele>
        <time>2020-06-06T15:01:18Z</time>
      </trkpt>
      <trkpt lat="45.66283" lon="6.35192">
        <ele>304</ele>
        <time>2020-06-06T15:01:20Z</time>
      </trkpt>
      <trkpt lat="45.66282" lon="6.35192">
        <ele>303</ele>
        <time>2020-06-06T15:01:22Z</time>
      </trkpt>
    </trkseg>
  </trk>
</gpx>